<?xml version="1.0" encoding="UTF-8" standalone="no" ?>
<gpx xmlns="http://www.topografix.com/GPX/1/1" xmlns:xsi="http://www.w3.org/2001/XMLSchema-instance" xsi:schemaLocation="http://www.topografix.com/GPX/1/1 http://www.topografix.com/GPX/1/1/gpx.xsd" version="1.1" creator="VisuGPX - https://www.visugpx.com">
  <metadata>
    <name>170125HR3ROBJeunes</name>
    <desc><![CDATA[Sortie ecourtee a cause d'un derailleur]]></desc>
  </metadata>
  <trk>
    <name><![CDATA[170125HR3ROBJeunes]]></name>
    <trkseg>
      <trkpt lat="43.41574" lon="6.07032">
        <ele>200</ele>
        <time>2017-01-25T13:03:36Z</time>
      </trkpt>
      <trkpt lat="43.41574" lon="6.07032">
        <ele>202.19999694824</ele>
        <time>2017-01-25T13:03:37Z</time>
      </trkpt>
      <trkpt lat="43.41574" lon="6.07033">
        <ele>202</ele>
        <time>2017-01-25T13:03:38Z</time>
      </trkpt>
      <trkpt lat="43.4157" lon="6.07038">
        <ele>202</ele>
        <time>2017-01-25T13:03:48Z</time>
      </trkpt>
      <trkpt lat="43.4157" lon="6.07039">
        <ele>202.19999694824</ele>
        <time>2017-01-25T13:03:58Z</time>
      </trkpt>
      <trkpt lat="43.41575" lon="6.07043">
        <ele>202.19999694824</ele>
        <time>2017-01-25T13:04:08Z</time>
      </trkpt>
      <trkpt lat="43.41576" lon="6.07045">
        <ele>202.19999694824</ele>
        <time>2017-01-25T13:04:13Z</time>
      </trkpt>
      <trkpt lat="43.41576" lon="6.07045">
        <ele>202.19999694824</ele>
        <time>2017-01-25T13:04:14Z</time>
      </trkpt>
      <trkpt lat="43.41578" lon="6.07051">
        <ele>202</ele>
        <time>2017-01-25T13:04:18Z</time>
      </trkpt>
      <trkpt lat="43.41582" lon="6.07086">
        <ele>201.60000610352</ele>
        <time>2017-01-25T13:04:28Z</time>
      </trkpt>
      <trkpt lat="43.41584" lon="6.07105">
        <ele>201.60000610352</ele>
        <time>2017-01-25T13:04:35Z</time>
      </trkpt>
      <trkpt lat="43.41582" lon="6.0711">
        <ele>201.60000610352</ele>
        <time>2017-01-25T13:04:38Z</time>
      </trkpt>
      <trkpt lat="43.4156" lon="6.07117">
        <ele>201.60000610352</ele>
        <time>2017-01-25T13:04:46Z</time>
      </trkpt>
      <trkpt lat="43.41553" lon="6.07117">
        <ele>201.39999389648</ele>
        <time>2017-01-25T13:04:48Z</time>
      </trkpt>
      <trkpt lat="43.4155" lon="6.07116">
        <ele>201.39999389648</ele>
        <time>2017-01-25T13:04:49Z</time>
      </trkpt>
      <trkpt lat="43.41544" lon="6.07106">
        <ele>201.19999694824</ele>
        <time>2017-01-25T13:04:52Z</time>
      </trkpt>
      <trkpt lat="43.41544" lon="6.07102">
        <ele>201</ele>
        <time>2017-01-25T13:04:53Z</time>
      </trkpt>
      <trkpt lat="43.41542" lon="6.07091">
        <ele>201</ele>
        <time>2017-01-25T13:04:55Z</time>
      </trkpt>
      <trkpt lat="43.41539" lon="6.07087">
        <ele>201.19999694824</ele>
        <time>2017-01-25T13:04:56Z</time>
      </trkpt>
      <trkpt lat="43.41531" lon="6.07083">
        <ele>201.19999694824</ele>
        <time>2017-01-25T13:04:58Z</time>
      </trkpt>
      <trkpt lat="43.41501" lon="6.07084">
        <ele>200</ele>
        <time>2017-01-25T13:05:04Z</time>
      </trkpt>
      <trkpt lat="43.41492" lon="6.07084">
        <ele>199.80000305176</ele>
        <time>2017-01-25T13:05:06Z</time>
      </trkpt>
      <trkpt lat="43.41485" lon="6.07081">
        <ele>199.80000305176</ele>
        <time>2017-01-25T13:05:08Z</time>
      </trkpt>
      <trkpt lat="43.41467" lon="6.07073">
        <ele>199.60000610352</ele>
        <time>2017-01-25T13:05:15Z</time>
      </trkpt>
      <trkpt lat="43.41465" lon="6.0707">
        <ele>199.19999694824</ele>
        <time>2017-01-25T13:05:18Z</time>
      </trkpt>
      <trkpt lat="43.41465" lon="6.07068">
        <ele>199</ele>
        <time>2017-01-25T13:05:19Z</time>
      </trkpt>
      <trkpt lat="43.41464" lon="6.07066">
        <ele>199</ele>
        <time>2017-01-25T13:05:20Z</time>
      </trkpt>
      <trkpt lat="43.41478" lon="6.0703">
        <ele>199.39999389648</ele>
        <time>2017-01-25T13:05:28Z</time>
      </trkpt>
      <trkpt lat="43.41488" lon="6.07006">
        <ele>199.60000610352</ele>
        <time>2017-01-25T13:05:33Z</time>
      </trkpt>
      <trkpt lat="43.41491" lon="6.06988">
        <ele>200</ele>
        <time>2017-01-25T13:05:36Z</time>
      </trkpt>
      <trkpt lat="43.41491" lon="6.06983">
        <ele>200</ele>
        <time>2017-01-25T13:05:37Z</time>
      </trkpt>
      <trkpt lat="43.41488" lon="6.06972">
        <ele>200.19999694824</ele>
        <time>2017-01-25T13:05:39Z</time>
      </trkpt>
      <trkpt lat="43.41468" lon="6.06933">
        <ele>201</ele>
        <time>2017-01-25T13:05:48Z</time>
      </trkpt>
      <trkpt lat="43.41464" lon="6.06928">
        <ele>201</ele>
        <time>2017-01-25T13:05:50Z</time>
      </trkpt>
      <trkpt lat="43.41457" lon="6.06918">
        <ele>201.19999694824</ele>
        <time>2017-01-25T13:05:58Z</time>
      </trkpt>
      <trkpt lat="43.41456" lon="6.06918">
        <ele>201.19999694824</ele>
        <time>2017-01-25T13:06:00Z</time>
      </trkpt>
      <trkpt lat="43.41457" lon="6.06909">
        <ele>201.60000610352</ele>
        <time>2017-01-25T13:06:08Z</time>
      </trkpt>
      <trkpt lat="43.41459" lon="6.069">
        <ele>201.80000305176</ele>
        <time>2017-01-25T13:06:10Z</time>
      </trkpt>
      <trkpt lat="43.41459" lon="6.0689">
        <ele>201.80000305176</ele>
        <time>2017-01-25T13:06:12Z</time>
      </trkpt>
      <trkpt lat="43.41457" lon="6.06878">
        <ele>201.80000305176</ele>
        <time>2017-01-25T13:06:14Z</time>
      </trkpt>
      <trkpt lat="43.41451" lon="6.06868">
        <ele>201.80000305176</ele>
        <time>2017-01-25T13:06:16Z</time>
      </trkpt>
      <trkpt lat="43.41442" lon="6.06862">
        <ele>202</ele>
        <time>2017-01-25T13:06:18Z</time>
      </trkpt>
      <trkpt lat="43.41432" lon="6.0686">
        <ele>202</ele>
        <time>2017-01-25T13:06:20Z</time>
      </trkpt>
      <trkpt lat="43.41416" lon="6.06857">
        <ele>201.60000610352</ele>
        <time>2017-01-25T13:06:23Z</time>
      </trkpt>
      <trkpt lat="43.41405" lon="6.06851">
        <ele>201.60000610352</ele>
        <time>2017-01-25T13:06:25Z</time>
      </trkpt>
      <trkpt lat="43.41392" lon="6.06838">
        <ele>201.39999389648</ele>
        <time>2017-01-25T13:06:28Z</time>
      </trkpt>
      <trkpt lat="43.41357" lon="6.06817">
        <ele>201.80000305176</ele>
        <time>2017-01-25T13:06:35Z</time>
      </trkpt>
      <trkpt lat="43.41343" lon="6.0681">
        <ele>201.80000305176</ele>
        <time>2017-01-25T13:06:38Z</time>
      </trkpt>
      <trkpt lat="43.413" lon="6.06783">
        <ele>201.60000610352</ele>
        <time>2017-01-25T13:06:46Z</time>
      </trkpt>
      <trkpt lat="43.4129" lon="6.06772">
        <ele>201.19999694824</ele>
        <time>2017-01-25T13:06:48Z</time>
      </trkpt>
      <trkpt lat="43.41285" lon="6.06766">
        <ele>200.80000305176</ele>
        <time>2017-01-25T13:06:49Z</time>
      </trkpt>
      <trkpt lat="43.41278" lon="6.06754">
        <ele>200.19999694824</ele>
        <time>2017-01-25T13:06:51Z</time>
      </trkpt>
      <trkpt lat="43.41273" lon="6.0674">
        <ele>199.80000305176</ele>
        <time>2017-01-25T13:06:53Z</time>
      </trkpt>
      <trkpt lat="43.41267" lon="6.06704">
        <ele>199.60000610352</ele>
        <time>2017-01-25T13:06:58Z</time>
      </trkpt>
      <trkpt lat="43.41261" lon="6.06684">
        <ele>200</ele>
        <time>2017-01-25T13:07:02Z</time>
      </trkpt>
      <trkpt lat="43.41253" lon="6.06683">
        <ele>200.19999694824</ele>
        <time>2017-01-25T13:07:04Z</time>
      </trkpt>
      <trkpt lat="43.41244" lon="6.06687">
        <ele>199.80000305176</ele>
        <time>2017-01-25T13:07:06Z</time>
      </trkpt>
      <trkpt lat="43.4124" lon="6.06692">
        <ele>199.19999694824</ele>
        <time>2017-01-25T13:07:08Z</time>
      </trkpt>
      <trkpt lat="43.41239" lon="6.06695">
        <ele>199</ele>
        <time>2017-01-25T13:07:09Z</time>
      </trkpt>
      <trkpt lat="43.41239" lon="6.06698">
        <ele>198.80000305176</ele>
        <time>2017-01-25T13:07:10Z</time>
      </trkpt>
      <trkpt lat="43.4124" lon="6.06703">
        <ele>198.60000610352</ele>
        <time>2017-01-25T13:07:12Z</time>
      </trkpt>
      <trkpt lat="43.41241" lon="6.06705">
        <ele>198.80000305176</ele>
        <time>2017-01-25T13:07:13Z</time>
      </trkpt>
      <trkpt lat="43.41244" lon="6.06709">
        <ele>198.80000305176</ele>
        <time>2017-01-25T13:07:17Z</time>
      </trkpt>
      <trkpt lat="43.41243" lon="6.06709">
        <ele>198.60000610352</ele>
        <time>2017-01-25T13:07:18Z</time>
      </trkpt>
      <trkpt lat="43.41239" lon="6.06709">
        <ele>198.19999694824</ele>
        <time>2017-01-25T13:07:20Z</time>
      </trkpt>
      <trkpt lat="43.41227" lon="6.0671">
        <ele>197.80000305176</ele>
        <time>2017-01-25T13:07:23Z</time>
      </trkpt>
      <trkpt lat="43.41212" lon="6.06716">
        <ele>197</ele>
        <time>2017-01-25T13:07:27Z</time>
      </trkpt>
      <trkpt lat="43.41207" lon="6.06717">
        <ele>197</ele>
        <time>2017-01-25T13:07:28Z</time>
      </trkpt>
      <trkpt lat="43.41188" lon="6.06718">
        <ele>196.60000610352</ele>
        <time>2017-01-25T13:07:32Z</time>
      </trkpt>
      <trkpt lat="43.41169" lon="6.06717">
        <ele>196</ele>
        <time>2017-01-25T13:07:36Z</time>
      </trkpt>
      <trkpt lat="43.4116" lon="6.06719">
        <ele>195.80000305176</ele>
        <time>2017-01-25T13:07:38Z</time>
      </trkpt>
      <trkpt lat="43.41132" lon="6.06731">
        <ele>195.80000305176</ele>
        <time>2017-01-25T13:07:44Z</time>
      </trkpt>
      <trkpt lat="43.41113" lon="6.0674">
        <ele>195.80000305176</ele>
        <time>2017-01-25T13:07:48Z</time>
      </trkpt>
      <trkpt lat="43.41108" lon="6.06743">
        <ele>195.80000305176</ele>
        <time>2017-01-25T13:07:49Z</time>
      </trkpt>
      <trkpt lat="43.41098" lon="6.06747">
        <ele>195.80000305176</ele>
        <time>2017-01-25T13:07:51Z</time>
      </trkpt>
      <trkpt lat="43.41091" lon="6.06752">
        <ele>195.60000610352</ele>
        <time>2017-01-25T13:07:54Z</time>
      </trkpt>
      <trkpt lat="43.41087" lon="6.06758">
        <ele>195.80000305176</ele>
        <time>2017-01-25T13:07:56Z</time>
      </trkpt>
      <trkpt lat="43.41085" lon="6.06768">
        <ele>195.80000305176</ele>
        <time>2017-01-25T13:07:58Z</time>
      </trkpt>
      <trkpt lat="43.41079" lon="6.06803">
        <ele>195.60000610352</ele>
        <time>2017-01-25T13:08:04Z</time>
      </trkpt>
      <trkpt lat="43.41072" lon="6.06819">
        <ele>195.39999389648</ele>
        <time>2017-01-25T13:08:07Z</time>
      </trkpt>
      <trkpt lat="43.41071" lon="6.06825">
        <ele>195.39999389648</ele>
        <time>2017-01-25T13:08:08Z</time>
      </trkpt>
      <trkpt lat="43.41066" lon="6.06854">
        <ele>196</ele>
        <time>2017-01-25T13:08:13Z</time>
      </trkpt>
      <trkpt lat="43.41066" lon="6.06862">
        <ele>196.39999389648</ele>
        <time>2017-01-25T13:08:15Z</time>
      </trkpt>
      <trkpt lat="43.41065" lon="6.06865">
        <ele>196.60000610352</ele>
        <time>2017-01-25T13:08:16Z</time>
      </trkpt>
      <trkpt lat="43.41063" lon="6.06866">
        <ele>196.80000305176</ele>
        <time>2017-01-25T13:08:17Z</time>
      </trkpt>
      <trkpt lat="43.4106" lon="6.06867">
        <ele>196.80000305176</ele>
        <time>2017-01-25T13:08:18Z</time>
      </trkpt>
      <trkpt lat="43.41042" lon="6.06877">
        <ele>196.80000305176</ele>
        <time>2017-01-25T13:08:23Z</time>
      </trkpt>
      <trkpt lat="43.41037" lon="6.0688">
        <ele>196.39999389648</ele>
        <time>2017-01-25T13:08:24Z</time>
      </trkpt>
      <trkpt lat="43.41024" lon="6.06889">
        <ele>195.80000305176</ele>
        <time>2017-01-25T13:08:27Z</time>
      </trkpt>
      <trkpt lat="43.41021" lon="6.0689">
        <ele>195.60000610352</ele>
        <time>2017-01-25T13:08:28Z</time>
      </trkpt>
      <trkpt lat="43.41016" lon="6.06892">
        <ele>195.60000610352</ele>
        <time>2017-01-25T13:08:33Z</time>
      </trkpt>
      <trkpt lat="43.41008" lon="6.06903">
        <ele>196</ele>
        <time>2017-01-25T13:08:38Z</time>
      </trkpt>
      <trkpt lat="43.40971" lon="6.06926">
        <ele>195.39999389648</ele>
        <time>2017-01-25T13:08:48Z</time>
      </trkpt>
      <trkpt lat="43.40942" lon="6.06938">
        <ele>195.39999389648</ele>
        <time>2017-01-25T13:08:54Z</time>
      </trkpt>
      <trkpt lat="43.40937" lon="6.06939">
        <ele>195.39999389648</ele>
        <time>2017-01-25T13:08:55Z</time>
      </trkpt>
      <trkpt lat="43.40922" lon="6.06944">
        <ele>195.60000610352</ele>
        <time>2017-01-25T13:08:58Z</time>
      </trkpt>
      <trkpt lat="43.40908" lon="6.06949">
        <ele>195.60000610352</ele>
        <time>2017-01-25T13:09:01Z</time>
      </trkpt>
      <trkpt lat="43.40902" lon="6.0696">
        <ele>195.39999389648</ele>
        <time>2017-01-25T13:09:03Z</time>
      </trkpt>
      <trkpt lat="43.40897" lon="6.06986">
        <ele>195.39999389648</ele>
        <time>2017-01-25T13:09:07Z</time>
      </trkpt>
      <trkpt lat="43.4089" lon="6.06993">
        <ele>195.19999694824</ele>
        <time>2017-01-25T13:09:09Z</time>
      </trkpt>
      <trkpt lat="43.40886" lon="6.06996">
        <ele>195.19999694824</ele>
        <time>2017-01-25T13:09:10Z</time>
      </trkpt>
      <trkpt lat="43.40881" lon="6.06997">
        <ele>195.19999694824</ele>
        <time>2017-01-25T13:09:11Z</time>
      </trkpt>
      <trkpt lat="43.40862" lon="6.07003">
        <ele>195.39999389648</ele>
        <time>2017-01-25T13:09:15Z</time>
      </trkpt>
      <trkpt lat="43.40858" lon="6.07004">
        <ele>195.39999389648</ele>
        <time>2017-01-25T13:09:16Z</time>
      </trkpt>
      <trkpt lat="43.40849" lon="6.07004">
        <ele>195.60000610352</ele>
        <time>2017-01-25T13:09:18Z</time>
      </trkpt>
      <trkpt lat="43.40841" lon="6.07003">
        <ele>195.80000305176</ele>
        <time>2017-01-25T13:09:21Z</time>
      </trkpt>
      <trkpt lat="43.40839" lon="6.07005">
        <ele>195.80000305176</ele>
        <time>2017-01-25T13:09:22Z</time>
      </trkpt>
      <trkpt lat="43.40836" lon="6.07008">
        <ele>195.80000305176</ele>
        <time>2017-01-25T13:09:23Z</time>
      </trkpt>
      <trkpt lat="43.40836" lon="6.07012">
        <ele>195.80000305176</ele>
        <time>2017-01-25T13:09:24Z</time>
      </trkpt>
      <trkpt lat="43.40836" lon="6.07023">
        <ele>196.19999694824</ele>
        <time>2017-01-25T13:09:26Z</time>
      </trkpt>
      <trkpt lat="43.40838" lon="6.07035">
        <ele>196.19999694824</ele>
        <time>2017-01-25T13:09:28Z</time>
      </trkpt>
      <trkpt lat="43.40839" lon="6.07041">
        <ele>196.19999694824</ele>
        <time>2017-01-25T13:09:29Z</time>
      </trkpt>
      <trkpt lat="43.40841" lon="6.07053">
        <ele>196.19999694824</ele>
        <time>2017-01-25T13:09:31Z</time>
      </trkpt>
      <trkpt lat="43.40842" lon="6.07097">
        <ele>195.80000305176</ele>
        <time>2017-01-25T13:09:38Z</time>
      </trkpt>
      <trkpt lat="43.4083" lon="6.07158">
        <ele>195.80000305176</ele>
        <time>2017-01-25T13:09:47Z</time>
      </trkpt>
      <trkpt lat="43.40828" lon="6.07164">
        <ele>196</ele>
        <time>2017-01-25T13:09:48Z</time>
      </trkpt>
      <trkpt lat="43.40809" lon="6.07214">
        <ele>196.19999694824</ele>
        <time>2017-01-25T13:09:58Z</time>
      </trkpt>
      <trkpt lat="43.40819" lon="6.07274">
        <ele>195.60000610352</ele>
        <time>2017-01-25T13:10:08Z</time>
      </trkpt>
      <trkpt lat="43.40831" lon="6.07349">
        <ele>195</ele>
        <time>2017-01-25T13:10:18Z</time>
      </trkpt>
      <trkpt lat="43.40844" lon="6.07416">
        <ele>194.80000305176</ele>
        <time>2017-01-25T13:10:27Z</time>
      </trkpt>
      <trkpt lat="43.40846" lon="6.07422">
        <ele>194.80000305176</ele>
        <time>2017-01-25T13:10:28Z</time>
      </trkpt>
      <trkpt lat="43.4085" lon="6.07425">
        <ele>194.80000305176</ele>
        <time>2017-01-25T13:10:29Z</time>
      </trkpt>
      <trkpt lat="43.40858" lon="6.07427">
        <ele>195</ele>
        <time>2017-01-25T13:10:31Z</time>
      </trkpt>
      <trkpt lat="43.40866" lon="6.07426">
        <ele>195</ele>
        <time>2017-01-25T13:10:33Z</time>
      </trkpt>
      <trkpt lat="43.40875" lon="6.07431">
        <ele>195</ele>
        <time>2017-01-25T13:10:35Z</time>
      </trkpt>
      <trkpt lat="43.40889" lon="6.07442">
        <ele>194.80000305176</ele>
        <time>2017-01-25T13:10:38Z</time>
      </trkpt>
      <trkpt lat="43.40894" lon="6.07445">
        <ele>194.80000305176</ele>
        <time>2017-01-25T13:10:39Z</time>
      </trkpt>
      <trkpt lat="43.40939" lon="6.07474">
        <ele>195.39999389648</ele>
        <time>2017-01-25T13:10:48Z</time>
      </trkpt>
      <trkpt lat="43.40988" lon="6.07503">
        <ele>195</ele>
        <time>2017-01-25T13:10:58Z</time>
      </trkpt>
      <trkpt lat="43.41008" lon="6.07514">
        <ele>194.80000305176</ele>
        <time>2017-01-25T13:11:02Z</time>
      </trkpt>
      <trkpt lat="43.41018" lon="6.07527">
        <ele>194.80000305176</ele>
        <time>2017-01-25T13:11:05Z</time>
      </trkpt>
      <trkpt lat="43.41019" lon="6.07533">
        <ele>194.80000305176</ele>
        <time>2017-01-25T13:11:06Z</time>
      </trkpt>
      <trkpt lat="43.41018" lon="6.07545">
        <ele>194.60000610352</ele>
        <time>2017-01-25T13:11:08Z</time>
      </trkpt>
      <trkpt lat="43.41016" lon="6.07571">
        <ele>193.39999389648</ele>
        <time>2017-01-25T13:11:12Z</time>
      </trkpt>
      <trkpt lat="43.41009" lon="6.07612">
        <ele>193.39999389648</ele>
        <time>2017-01-25T13:11:18Z</time>
      </trkpt>
      <trkpt lat="43.41007" lon="6.07626">
        <ele>193.39999389648</ele>
        <time>2017-01-25T13:11:20Z</time>
      </trkpt>
      <trkpt lat="43.41009" lon="6.07662">
        <ele>193.60000610352</ele>
        <time>2017-01-25T13:11:26Z</time>
      </trkpt>
      <trkpt lat="43.4101" lon="6.07674">
        <ele>193.60000610352</ele>
        <time>2017-01-25T13:11:28Z</time>
      </trkpt>
      <trkpt lat="43.41011" lon="6.0769">
        <ele>193.60000610352</ele>
        <time>2017-01-25T13:11:31Z</time>
      </trkpt>
      <trkpt lat="43.41012" lon="6.07696">
        <ele>193.60000610352</ele>
        <time>2017-01-25T13:11:32Z</time>
      </trkpt>
      <trkpt lat="43.41013" lon="6.07706">
        <ele>193.60000610352</ele>
        <time>2017-01-25T13:11:34Z</time>
      </trkpt>
      <trkpt lat="43.41011" lon="6.0771">
        <ele>193.60000610352</ele>
        <time>2017-01-25T13:11:35Z</time>
      </trkpt>
      <trkpt lat="43.41004" lon="6.07723">
        <ele>193.80000305176</ele>
        <time>2017-01-25T13:11:38Z</time>
      </trkpt>
      <trkpt lat="43.40999" lon="6.07733">
        <ele>193.80000305176</ele>
        <time>2017-01-25T13:11:40Z</time>
      </trkpt>
      <trkpt lat="43.40992" lon="6.07749">
        <ele>193.80000305176</ele>
        <time>2017-01-25T13:11:43Z</time>
      </trkpt>
      <trkpt lat="43.40982" lon="6.07779">
        <ele>194.19999694824</ele>
        <time>2017-01-25T13:11:48Z</time>
      </trkpt>
      <trkpt lat="43.40978" lon="6.0779">
        <ele>194.19999694824</ele>
        <time>2017-01-25T13:11:50Z</time>
      </trkpt>
      <trkpt lat="43.40971" lon="6.0781">
        <ele>194.39999389648</ele>
        <time>2017-01-25T13:11:54Z</time>
      </trkpt>
      <trkpt lat="43.40963" lon="6.07824">
        <ele>194.60000610352</ele>
        <time>2017-01-25T13:11:58Z</time>
      </trkpt>
      <trkpt lat="43.40962" lon="6.0783">
        <ele>195.19999694824</ele>
        <time>2017-01-25T13:12:01Z</time>
      </trkpt>
      <trkpt lat="43.40964" lon="6.07835">
        <ele>195.39999389648</ele>
        <time>2017-01-25T13:12:03Z</time>
      </trkpt>
      <trkpt lat="43.40976" lon="6.07847">
        <ele>195.80000305176</ele>
        <time>2017-01-25T13:12:08Z</time>
      </trkpt>
      <trkpt lat="43.40998" lon="6.07888">
        <ele>196.19999694824</ele>
        <time>2017-01-25T13:12:18Z</time>
      </trkpt>
      <trkpt lat="43.41006" lon="6.07906">
        <ele>196.39999389648</ele>
        <time>2017-01-25T13:12:22Z</time>
      </trkpt>
      <trkpt lat="43.41018" lon="6.07931">
        <ele>197.60000610352</ele>
        <time>2017-01-25T13:12:28Z</time>
      </trkpt>
      <trkpt lat="43.41024" lon="6.07943">
        <ele>198.60000610352</ele>
        <time>2017-01-25T13:12:31Z</time>
      </trkpt>
      <trkpt lat="43.41031" lon="6.0796">
        <ele>199.80000305176</ele>
        <time>2017-01-25T13:12:35Z</time>
      </trkpt>
      <trkpt lat="43.41037" lon="6.07971">
        <ele>200.60000610352</ele>
        <time>2017-01-25T13:12:38Z</time>
      </trkpt>
      <trkpt lat="43.41038" lon="6.07974">
        <ele>201</ele>
        <time>2017-01-25T13:12:39Z</time>
      </trkpt>
      <trkpt lat="43.4104" lon="6.07978">
        <ele>201.19999694824</ele>
        <time>2017-01-25T13:12:40Z</time>
      </trkpt>
      <trkpt lat="43.41048" lon="6.07992">
        <ele>202.19999694824</ele>
        <time>2017-01-25T13:12:44Z</time>
      </trkpt>
      <trkpt lat="43.41054" lon="6.08005">
        <ele>203.19999694824</ele>
        <time>2017-01-25T13:12:48Z</time>
      </trkpt>
      <trkpt lat="43.41061" lon="6.08019">
        <ele>204.19999694824</ele>
        <time>2017-01-25T13:12:53Z</time>
      </trkpt>
      <trkpt lat="43.41066" lon="6.08029">
        <ele>205</ele>
        <time>2017-01-25T13:12:58Z</time>
      </trkpt>
      <trkpt lat="43.41066" lon="6.08033">
        <ele>205.19999694824</ele>
        <time>2017-01-25T13:13:02Z</time>
      </trkpt>
      <trkpt lat="43.41066" lon="6.08033">
        <ele>205.39999389648</ele>
        <time>2017-01-25T13:13:03Z</time>
      </trkpt>
      <trkpt lat="43.41065" lon="6.08033">
        <ele>205.60000610352</ele>
        <time>2017-01-25T13:13:08Z</time>
      </trkpt>
      <trkpt lat="43.41062" lon="6.08036">
        <ele>205.39999389648</ele>
        <time>2017-01-25T13:13:14Z</time>
      </trkpt>
      <trkpt lat="43.41061" lon="6.08036">
        <ele>205.19999694824</ele>
        <time>2017-01-25T13:13:18Z</time>
      </trkpt>
      <trkpt lat="43.4106" lon="6.08036">
        <ele>205.19999694824</ele>
        <time>2017-01-25T13:13:24Z</time>
      </trkpt>
      <trkpt lat="43.41058" lon="6.08036">
        <ele>205.19999694824</ele>
        <time>2017-01-25T13:13:26Z</time>
      </trkpt>
      <trkpt lat="43.41056" lon="6.08036">
        <ele>205</ele>
        <time>2017-01-25T13:13:27Z</time>
      </trkpt>
      <trkpt lat="43.41055" lon="6.08037">
        <ele>205</ele>
        <time>2017-01-25T13:13:28Z</time>
      </trkpt>
      <trkpt lat="43.41054" lon="6.08037">
        <ele>204.80000305176</ele>
        <time>2017-01-25T13:13:31Z</time>
      </trkpt>
      <trkpt lat="43.41054" lon="6.08038">
        <ele>204.60000610352</ele>
        <time>2017-01-25T13:13:34Z</time>
      </trkpt>
      <trkpt lat="43.41054" lon="6.08038">
        <ele>204.39999389648</ele>
        <time>2017-01-25T13:13:38Z</time>
      </trkpt>
      <trkpt lat="43.41054" lon="6.08038">
        <ele>204.39999389648</ele>
        <time>2017-01-25T13:13:41Z</time>
      </trkpt>
      <trkpt lat="43.41054" lon="6.08038">
        <ele>204.39999389648</ele>
        <time>2017-01-25T13:13:48Z</time>
      </trkpt>
      <trkpt lat="43.41054" lon="6.08038">
        <ele>204.60000610352</ele>
        <time>2017-01-25T13:13:52Z</time>
      </trkpt>
      <trkpt lat="43.41054" lon="6.08038">
        <ele>204.39999389648</ele>
        <time>2017-01-25T13:13:57Z</time>
      </trkpt>
      <trkpt lat="43.41053" lon="6.08038">
        <ele>204.39999389648</ele>
        <time>2017-01-25T13:13:58Z</time>
      </trkpt>
      <trkpt lat="43.4105" lon="6.0804">
        <ele>204.39999389648</ele>
        <time>2017-01-25T13:14:04Z</time>
      </trkpt>
      <trkpt lat="43.41048" lon="6.08042">
        <ele>204.19999694824</ele>
        <time>2017-01-25T13:14:05Z</time>
      </trkpt>
      <trkpt lat="43.41042" lon="6.08045">
        <ele>203.80000305176</ele>
        <time>2017-01-25T13:14:07Z</time>
      </trkpt>
      <trkpt lat="43.41038" lon="6.08047">
        <ele>203.60000610352</ele>
        <time>2017-01-25T13:14:08Z</time>
      </trkpt>
      <trkpt lat="43.41021" lon="6.08057">
        <ele>202.80000305176</ele>
        <time>2017-01-25T13:14:12Z</time>
      </trkpt>
      <trkpt lat="43.41018" lon="6.0806">
        <ele>202.60000610352</ele>
        <time>2017-01-25T13:14:13Z</time>
      </trkpt>
      <trkpt lat="43.40998" lon="6.08074">
        <ele>202.39999389648</ele>
        <time>2017-01-25T13:14:18Z</time>
      </trkpt>
      <trkpt lat="43.40978" lon="6.08088">
        <ele>204</ele>
        <time>2017-01-25T13:14:24Z</time>
      </trkpt>
      <trkpt lat="43.40965" lon="6.08097">
        <ele>204.19999694824</ele>
        <time>2017-01-25T13:14:28Z</time>
      </trkpt>
      <trkpt lat="43.40931" lon="6.08119">
        <ele>204.39999389648</ele>
        <time>2017-01-25T13:14:38Z</time>
      </trkpt>
      <trkpt lat="43.40927" lon="6.08121">
        <ele>204.39999389648</ele>
        <time>2017-01-25T13:14:39Z</time>
      </trkpt>
      <trkpt lat="43.40893" lon="6.08134">
        <ele>202.80000305176</ele>
        <time>2017-01-25T13:14:46Z</time>
      </trkpt>
      <trkpt lat="43.40881" lon="6.08139">
        <ele>202.19999694824</ele>
        <time>2017-01-25T13:14:48Z</time>
      </trkpt>
      <trkpt lat="43.4087" lon="6.08147">
        <ele>201.39999389648</ele>
        <time>2017-01-25T13:14:50Z</time>
      </trkpt>
      <trkpt lat="43.40866" lon="6.08153">
        <ele>200.80000305176</ele>
        <time>2017-01-25T13:14:51Z</time>
      </trkpt>
      <trkpt lat="43.40862" lon="6.0816">
        <ele>200.60000610352</ele>
        <time>2017-01-25T13:14:52Z</time>
      </trkpt>
      <trkpt lat="43.40858" lon="6.08175">
        <ele>200.39999389648</ele>
        <time>2017-01-25T13:14:54Z</time>
      </trkpt>
      <trkpt lat="43.40857" lon="6.08182">
        <ele>200.60000610352</ele>
        <time>2017-01-25T13:14:55Z</time>
      </trkpt>
      <trkpt lat="43.40854" lon="6.08194">
        <ele>201</ele>
        <time>2017-01-25T13:14:57Z</time>
      </trkpt>
      <trkpt lat="43.40852" lon="6.08199">
        <ele>201</ele>
        <time>2017-01-25T13:14:58Z</time>
      </trkpt>
      <trkpt lat="43.40814" lon="6.08258">
        <ele>202</ele>
        <time>2017-01-25T13:15:08Z</time>
      </trkpt>
      <trkpt lat="43.40803" lon="6.08276">
        <ele>202.60000610352</ele>
        <time>2017-01-25T13:15:11Z</time>
      </trkpt>
      <trkpt lat="43.40793" lon="6.08294">
        <ele>202.39999389648</ele>
        <time>2017-01-25T13:15:14Z</time>
      </trkpt>
      <trkpt lat="43.40783" lon="6.08314">
        <ele>202.39999389648</ele>
        <time>2017-01-25T13:15:17Z</time>
      </trkpt>
      <trkpt lat="43.40781" lon="6.08321">
        <ele>202.39999389648</ele>
        <time>2017-01-25T13:15:18Z</time>
      </trkpt>
      <trkpt lat="43.40768" lon="6.08358">
        <ele>203.19999694824</ele>
        <time>2017-01-25T13:15:23Z</time>
      </trkpt>
      <trkpt lat="43.40765" lon="6.08365">
        <ele>203.39999389648</ele>
        <time>2017-01-25T13:15:24Z</time>
      </trkpt>
      <trkpt lat="43.40764" lon="6.08372">
        <ele>203.60000610352</ele>
        <time>2017-01-25T13:15:25Z</time>
      </trkpt>
      <trkpt lat="43.40764" lon="6.08379">
        <ele>203.80000305176</ele>
        <time>2017-01-25T13:15:26Z</time>
      </trkpt>
      <trkpt lat="43.40765" lon="6.08385">
        <ele>204.39999389648</ele>
        <time>2017-01-25T13:15:27Z</time>
      </trkpt>
      <trkpt lat="43.40766" lon="6.08391">
        <ele>204.80000305176</ele>
        <time>2017-01-25T13:15:28Z</time>
      </trkpt>
      <trkpt lat="43.4077" lon="6.08405">
        <ele>206</ele>
        <time>2017-01-25T13:15:31Z</time>
      </trkpt>
      <trkpt lat="43.40774" lon="6.08417">
        <ele>207.19999694824</ele>
        <time>2017-01-25T13:15:34Z</time>
      </trkpt>
      <trkpt lat="43.40778" lon="6.08432">
        <ele>208.39999389648</ele>
        <time>2017-01-25T13:15:38Z</time>
      </trkpt>
      <trkpt lat="43.40781" lon="6.08441">
        <ele>209.19999694824</ele>
        <time>2017-01-25T13:15:41Z</time>
      </trkpt>
      <trkpt lat="43.40783" lon="6.08456">
        <ele>210.39999389648</ele>
        <time>2017-01-25T13:15:46Z</time>
      </trkpt>
      <trkpt lat="43.40783" lon="6.08461">
        <ele>210.80000305176</ele>
        <time>2017-01-25T13:15:48Z</time>
      </trkpt>
      <trkpt lat="43.40784" lon="6.08474">
        <ele>211.39999389648</ele>
        <time>2017-01-25T13:15:52Z</time>
      </trkpt>
      <trkpt lat="43.40787" lon="6.08489">
        <ele>212.60000610352</ele>
        <time>2017-01-25T13:15:57Z</time>
      </trkpt>
      <trkpt lat="43.40788" lon="6.08491">
        <ele>212.80000305176</ele>
        <time>2017-01-25T13:15:58Z</time>
      </trkpt>
      <trkpt lat="43.4079" lon="6.08498">
        <ele>213.19999694824</ele>
        <time>2017-01-25T13:16:01Z</time>
      </trkpt>
      <trkpt lat="43.40791" lon="6.08504">
        <ele>213.60000610352</ele>
        <time>2017-01-25T13:16:03Z</time>
      </trkpt>
      <trkpt lat="43.40794" lon="6.08517">
        <ele>214.19999694824</ele>
        <time>2017-01-25T13:16:08Z</time>
      </trkpt>
      <trkpt lat="43.40795" lon="6.08524">
        <ele>214.39999389648</ele>
        <time>2017-01-25T13:16:10Z</time>
      </trkpt>
      <trkpt lat="43.40797" lon="6.08531">
        <ele>214.60000610352</ele>
        <time>2017-01-25T13:16:12Z</time>
      </trkpt>
      <trkpt lat="43.40799" lon="6.08539">
        <ele>215</ele>
        <time>2017-01-25T13:16:15Z</time>
      </trkpt>
      <trkpt lat="43.40802" lon="6.08548">
        <ele>215.19999694824</ele>
        <time>2017-01-25T13:16:18Z</time>
      </trkpt>
      <trkpt lat="43.40805" lon="6.08564">
        <ele>215.60000610352</ele>
        <time>2017-01-25T13:16:23Z</time>
      </trkpt>
      <trkpt lat="43.40806" lon="6.08579">
        <ele>216</ele>
        <time>2017-01-25T13:16:28Z</time>
      </trkpt>
      <trkpt lat="43.4081" lon="6.08599">
        <ele>216.80000305176</ele>
        <time>2017-01-25T13:16:35Z</time>
      </trkpt>
      <trkpt lat="43.40812" lon="6.08607">
        <ele>217.60000610352</ele>
        <time>2017-01-25T13:16:38Z</time>
      </trkpt>
      <trkpt lat="43.40813" lon="6.08609">
        <ele>217.80000305176</ele>
        <time>2017-01-25T13:16:39Z</time>
      </trkpt>
      <trkpt lat="43.4082" lon="6.08626">
        <ele>219</ele>
        <time>2017-01-25T13:16:47Z</time>
      </trkpt>
      <trkpt lat="43.4082" lon="6.08628">
        <ele>219.19999694824</ele>
        <time>2017-01-25T13:16:48Z</time>
      </trkpt>
      <trkpt lat="43.40826" lon="6.08647">
        <ele>220.19999694824</ele>
        <time>2017-01-25T13:16:55Z</time>
      </trkpt>
      <trkpt lat="43.40828" lon="6.08656">
        <ele>221</ele>
        <time>2017-01-25T13:16:58Z</time>
      </trkpt>
      <trkpt lat="43.4083" lon="6.08661">
        <ele>221.39999389648</ele>
        <time>2017-01-25T13:17:00Z</time>
      </trkpt>
      <trkpt lat="43.40834" lon="6.08681">
        <ele>222.60000610352</ele>
        <time>2017-01-25T13:17:08Z</time>
      </trkpt>
      <trkpt lat="43.40834" lon="6.08683">
        <ele>222.60000610352</ele>
        <time>2017-01-25T13:17:09Z</time>
      </trkpt>
      <trkpt lat="43.40831" lon="6.08703">
        <ele>223.39999389648</ele>
        <time>2017-01-25T13:17:16Z</time>
      </trkpt>
      <trkpt lat="43.4083" lon="6.08708">
        <ele>223.60000610352</ele>
        <time>2017-01-25T13:17:18Z</time>
      </trkpt>
      <trkpt lat="43.40828" lon="6.08719">
        <ele>224</ele>
        <time>2017-01-25T13:17:22Z</time>
      </trkpt>
      <trkpt lat="43.40826" lon="6.08741">
        <ele>224.39999389648</ele>
        <time>2017-01-25T13:17:28Z</time>
      </trkpt>
      <trkpt lat="43.40823" lon="6.08756">
        <ele>224</ele>
        <time>2017-01-25T13:17:32Z</time>
      </trkpt>
      <trkpt lat="43.40819" lon="6.08781">
        <ele>224</ele>
        <time>2017-01-25T13:17:38Z</time>
      </trkpt>
      <trkpt lat="43.40813" lon="6.08804">
        <ele>223.80000305176</ele>
        <time>2017-01-25T13:17:43Z</time>
      </trkpt>
      <trkpt lat="43.40805" lon="6.08828">
        <ele>223.39999389648</ele>
        <time>2017-01-25T13:17:48Z</time>
      </trkpt>
      <trkpt lat="43.40804" lon="6.08833">
        <ele>223.39999389648</ele>
        <time>2017-01-25T13:17:49Z</time>
      </trkpt>
      <trkpt lat="43.40802" lon="6.08837">
        <ele>223.39999389648</ele>
        <time>2017-01-25T13:17:50Z</time>
      </trkpt>
      <trkpt lat="43.4079" lon="6.08872">
        <ele>223.39999389648</ele>
        <time>2017-01-25T13:17:58Z</time>
      </trkpt>
      <trkpt lat="43.40789" lon="6.08876">
        <ele>223.39999389648</ele>
        <time>2017-01-25T13:17:59Z</time>
      </trkpt>
      <trkpt lat="43.40784" lon="6.08892">
        <ele>223.60000610352</ele>
        <time>2017-01-25T13:18:03Z</time>
      </trkpt>
      <trkpt lat="43.40783" lon="6.089">
        <ele>223.80000305176</ele>
        <time>2017-01-25T13:18:05Z</time>
      </trkpt>
      <trkpt lat="43.40781" lon="6.08905">
        <ele>224</ele>
        <time>2017-01-25T13:18:07Z</time>
      </trkpt>
      <trkpt lat="43.4078" lon="6.08908">
        <ele>224.19999694824</ele>
        <time>2017-01-25T13:18:08Z</time>
      </trkpt>
      <trkpt lat="43.40775" lon="6.08917">
        <ele>224.39999389648</ele>
        <time>2017-01-25T13:18:11Z</time>
      </trkpt>
      <trkpt lat="43.40767" lon="6.0892">
        <ele>224.80000305176</ele>
        <time>2017-01-25T13:18:14Z</time>
      </trkpt>
      <trkpt lat="43.40757" lon="6.08923">
        <ele>225.60000610352</ele>
        <time>2017-01-25T13:18:18Z</time>
      </trkpt>
      <trkpt lat="43.40725" lon="6.08937">
        <ele>226.19999694824</ele>
        <time>2017-01-25T13:18:28Z</time>
      </trkpt>
      <trkpt lat="43.40699" lon="6.08955">
        <ele>224.60000610352</ele>
        <time>2017-01-25T13:18:36Z</time>
      </trkpt>
      <trkpt lat="43.40696" lon="6.08955">
        <ele>224.39999389648</ele>
        <time>2017-01-25T13:18:38Z</time>
      </trkpt>
      <trkpt lat="43.40694" lon="6.08957">
        <ele>224.39999389648</ele>
        <time>2017-01-25T13:18:40Z</time>
      </trkpt>
      <trkpt lat="43.40689" lon="6.08965">
        <ele>224</ele>
        <time>2017-01-25T13:18:44Z</time>
      </trkpt>
      <trkpt lat="43.40689" lon="6.08983">
        <ele>223.80000305176</ele>
        <time>2017-01-25T13:18:48Z</time>
      </trkpt>
      <trkpt lat="43.40697" lon="6.09015">
        <ele>224.60000610352</ele>
        <time>2017-01-25T13:18:55Z</time>
      </trkpt>
      <trkpt lat="43.407" lon="6.09029">
        <ele>225</ele>
        <time>2017-01-25T13:18:58Z</time>
      </trkpt>
      <trkpt lat="43.40706" lon="6.09052">
        <ele>225.80000305176</ele>
        <time>2017-01-25T13:19:03Z</time>
      </trkpt>
      <trkpt lat="43.40711" lon="6.09076">
        <ele>226.39999389648</ele>
        <time>2017-01-25T13:19:08Z</time>
      </trkpt>
      <trkpt lat="43.40715" lon="6.0909">
        <ele>227</ele>
        <time>2017-01-25T13:19:11Z</time>
      </trkpt>
      <trkpt lat="43.40717" lon="6.09099">
        <ele>227.39999389648</ele>
        <time>2017-01-25T13:19:13Z</time>
      </trkpt>
      <trkpt lat="43.40721" lon="6.09114">
        <ele>228</ele>
        <time>2017-01-25T13:19:16Z</time>
      </trkpt>
      <trkpt lat="43.40722" lon="6.09119">
        <ele>228.19999694824</ele>
        <time>2017-01-25T13:19:17Z</time>
      </trkpt>
      <trkpt lat="43.4073" lon="6.09146">
        <ele>229.19999694824</ele>
        <time>2017-01-25T13:19:23Z</time>
      </trkpt>
      <trkpt lat="43.40734" lon="6.09166">
        <ele>230.19999694824</ele>
        <time>2017-01-25T13:19:28Z</time>
      </trkpt>
      <trkpt lat="43.40739" lon="6.09195">
        <ele>231.39999389648</ele>
        <time>2017-01-25T13:19:35Z</time>
      </trkpt>
      <trkpt lat="43.40742" lon="6.09207">
        <ele>232</ele>
        <time>2017-01-25T13:19:38Z</time>
      </trkpt>
      <trkpt lat="43.40743" lon="6.09214">
        <ele>232.39999389648</ele>
        <time>2017-01-25T13:19:40Z</time>
      </trkpt>
      <trkpt lat="43.40748" lon="6.09243">
        <ele>233.60000610352</ele>
        <time>2017-01-25T13:19:48Z</time>
      </trkpt>
      <trkpt lat="43.40752" lon="6.09268">
        <ele>234.60000610352</ele>
        <time>2017-01-25T13:19:55Z</time>
      </trkpt>
      <trkpt lat="43.40754" lon="6.09277">
        <ele>235.19999694824</ele>
        <time>2017-01-25T13:19:58Z</time>
      </trkpt>
      <trkpt lat="43.40754" lon="6.0929">
        <ele>235.80000305176</ele>
        <time>2017-01-25T13:20:02Z</time>
      </trkpt>
      <trkpt lat="43.40757" lon="6.09299">
        <ele>236</ele>
        <time>2017-01-25T13:20:06Z</time>
      </trkpt>
      <trkpt lat="43.40758" lon="6.09306">
        <ele>236</ele>
        <time>2017-01-25T13:20:08Z</time>
      </trkpt>
      <trkpt lat="43.40759" lon="6.09343">
        <ele>236.80000305176</ele>
        <time>2017-01-25T13:20:17Z</time>
      </trkpt>
      <trkpt lat="43.40759" lon="6.09347">
        <ele>236.80000305176</ele>
        <time>2017-01-25T13:20:18Z</time>
      </trkpt>
      <trkpt lat="43.40763" lon="6.09379">
        <ele>237.80000305176</ele>
        <time>2017-01-25T13:20:26Z</time>
      </trkpt>
      <trkpt lat="43.40765" lon="6.09386">
        <ele>238</ele>
        <time>2017-01-25T13:20:28Z</time>
      </trkpt>
      <trkpt lat="43.40773" lon="6.09409">
        <ele>238.19999694824</ele>
        <time>2017-01-25T13:20:34Z</time>
      </trkpt>
      <trkpt lat="43.40778" lon="6.09425">
        <ele>238</ele>
        <time>2017-01-25T13:20:38Z</time>
      </trkpt>
      <trkpt lat="43.40786" lon="6.09473">
        <ele>237.39999389648</ele>
        <time>2017-01-25T13:20:47Z</time>
      </trkpt>
      <trkpt lat="43.40787" lon="6.0948">
        <ele>237.19999694824</ele>
        <time>2017-01-25T13:20:48Z</time>
      </trkpt>
      <trkpt lat="43.40792" lon="6.09498">
        <ele>236.60000610352</ele>
        <time>2017-01-25T13:20:51Z</time>
      </trkpt>
      <trkpt lat="43.40798" lon="6.09508">
        <ele>236</ele>
        <time>2017-01-25T13:20:53Z</time>
      </trkpt>
      <trkpt lat="43.40806" lon="6.09515">
        <ele>235.60000610352</ele>
        <time>2017-01-25T13:20:55Z</time>
      </trkpt>
      <trkpt lat="43.40814" lon="6.0952">
        <ele>235.19999694824</ele>
        <time>2017-01-25T13:20:57Z</time>
      </trkpt>
      <trkpt lat="43.40819" lon="6.09522">
        <ele>235</ele>
        <time>2017-01-25T13:20:58Z</time>
      </trkpt>
      <trkpt lat="43.40828" lon="6.09526">
        <ele>234.60000610352</ele>
        <time>2017-01-25T13:21:00Z</time>
      </trkpt>
      <trkpt lat="43.40837" lon="6.0953">
        <ele>234.19999694824</ele>
        <time>2017-01-25T13:21:02Z</time>
      </trkpt>
      <trkpt lat="43.4086" lon="6.0954">
        <ele>233.80000305176</ele>
        <time>2017-01-25T13:21:08Z</time>
      </trkpt>
      <trkpt lat="43.40868" lon="6.09545">
        <ele>234.60000610352</ele>
        <time>2017-01-25T13:21:11Z</time>
      </trkpt>
      <trkpt lat="43.40876" lon="6.09549">
        <ele>235.19999694824</ele>
        <time>2017-01-25T13:21:14Z</time>
      </trkpt>
      <trkpt lat="43.4088" lon="6.09552">
        <ele>235.60000610352</ele>
        <time>2017-01-25T13:21:16Z</time>
      </trkpt>
      <trkpt lat="43.40885" lon="6.09553">
        <ele>235.80000305176</ele>
        <time>2017-01-25T13:21:18Z</time>
      </trkpt>
      <trkpt lat="43.40896" lon="6.09559">
        <ele>236.60000610352</ele>
        <time>2017-01-25T13:21:23Z</time>
      </trkpt>
      <trkpt lat="43.40898" lon="6.0956">
        <ele>236.80000305176</ele>
        <time>2017-01-25T13:21:24Z</time>
      </trkpt>
      <trkpt lat="43.40906" lon="6.09564">
        <ele>238</ele>
        <time>2017-01-25T13:21:28Z</time>
      </trkpt>
      <trkpt lat="43.40915" lon="6.09566">
        <ele>239</ele>
        <time>2017-01-25T13:21:35Z</time>
      </trkpt>
      <trkpt lat="43.40919" lon="6.09568">
        <ele>239.39999389648</ele>
        <time>2017-01-25T13:21:38Z</time>
      </trkpt>
      <trkpt lat="43.40924" lon="6.09572">
        <ele>240</ele>
        <time>2017-01-25T13:21:42Z</time>
      </trkpt>
      <trkpt lat="43.40932" lon="6.09574">
        <ele>240.80000305176</ele>
        <time>2017-01-25T13:21:47Z</time>
      </trkpt>
      <trkpt lat="43.40933" lon="6.09576">
        <ele>241</ele>
        <time>2017-01-25T13:21:48Z</time>
      </trkpt>
      <trkpt lat="43.40941" lon="6.0958">
        <ele>242.19999694824</ele>
        <time>2017-01-25T13:21:53Z</time>
      </trkpt>
      <trkpt lat="43.40947" lon="6.09583">
        <ele>243</ele>
        <time>2017-01-25T13:21:57Z</time>
      </trkpt>
      <trkpt lat="43.40949" lon="6.09584">
        <ele>243.39999389648</ele>
        <time>2017-01-25T13:21:58Z</time>
      </trkpt>
      <trkpt lat="43.40959" lon="6.09589">
        <ele>244.39999389648</ele>
        <time>2017-01-25T13:22:04Z</time>
      </trkpt>
      <trkpt lat="43.40965" lon="6.09592">
        <ele>245.19999694824</ele>
        <time>2017-01-25T13:22:08Z</time>
      </trkpt>
      <trkpt lat="43.40974" lon="6.09595">
        <ele>246.60000610352</ele>
        <time>2017-01-25T13:22:14Z</time>
      </trkpt>
      <trkpt lat="43.40982" lon="6.096">
        <ele>247.60000610352</ele>
        <time>2017-01-25T13:22:20Z</time>
      </trkpt>
      <trkpt lat="43.40993" lon="6.09606">
        <ele>248.80000305176</ele>
        <time>2017-01-25T13:22:28Z</time>
      </trkpt>
      <trkpt lat="43.40998" lon="6.09608">
        <ele>249.60000610352</ele>
        <time>2017-01-25T13:22:31Z</time>
      </trkpt>
      <trkpt lat="43.40999" lon="6.09609">
        <ele>249.80000305176</ele>
        <time>2017-01-25T13:22:32Z</time>
      </trkpt>
      <trkpt lat="43.41008" lon="6.09614">
        <ele>251.19999694824</ele>
        <time>2017-01-25T13:22:38Z</time>
      </trkpt>
      <trkpt lat="43.41015" lon="6.09619">
        <ele>252.19999694824</ele>
        <time>2017-01-25T13:22:43Z</time>
      </trkpt>
      <trkpt lat="43.41023" lon="6.09624">
        <ele>253.39999389648</ele>
        <time>2017-01-25T13:22:48Z</time>
      </trkpt>
      <trkpt lat="43.4103" lon="6.09631">
        <ele>254.39999389648</ele>
        <time>2017-01-25T13:22:54Z</time>
      </trkpt>
      <trkpt lat="43.41035" lon="6.09635">
        <ele>255.39999389648</ele>
        <time>2017-01-25T13:22:58Z</time>
      </trkpt>
      <trkpt lat="43.41036" lon="6.09636">
        <ele>255.60000610352</ele>
        <time>2017-01-25T13:22:59Z</time>
      </trkpt>
      <trkpt lat="43.41044" lon="6.0964">
        <ele>256.60000610352</ele>
        <time>2017-01-25T13:23:04Z</time>
      </trkpt>
      <trkpt lat="43.41052" lon="6.09644">
        <ele>257.39999389648</ele>
        <time>2017-01-25T13:23:10Z</time>
      </trkpt>
      <trkpt lat="43.41059" lon="6.09649">
        <ele>258.39999389648</ele>
        <time>2017-01-25T13:23:15Z</time>
      </trkpt>
      <trkpt lat="43.41062" lon="6.09651">
        <ele>258.60000610352</ele>
        <time>2017-01-25T13:23:17Z</time>
      </trkpt>
      <trkpt lat="43.41063" lon="6.09652">
        <ele>258.60000610352</ele>
        <time>2017-01-25T13:23:18Z</time>
      </trkpt>
      <trkpt lat="43.41067" lon="6.09656">
        <ele>259.20001220703</ele>
        <time>2017-01-25T13:23:21Z</time>
      </trkpt>
      <trkpt lat="43.41073" lon="6.09664">
        <ele>259.79998779297</ele>
        <time>2017-01-25T13:23:26Z</time>
      </trkpt>
      <trkpt lat="43.41076" lon="6.09667">
        <ele>260.20001220703</ele>
        <time>2017-01-25T13:23:28Z</time>
      </trkpt>
      <trkpt lat="43.4108" lon="6.09676">
        <ele>260.79998779297</ele>
        <time>2017-01-25T13:23:33Z</time>
      </trkpt>
      <trkpt lat="43.41085" lon="6.09683">
        <ele>261.20001220703</ele>
        <time>2017-01-25T13:23:38Z</time>
      </trkpt>
      <trkpt lat="43.41086" lon="6.09685">
        <ele>261.39999389648</ele>
        <time>2017-01-25T13:23:40Z</time>
      </trkpt>
      <trkpt lat="43.41087" lon="6.09687">
        <ele>261.39999389648</ele>
        <time>2017-01-25T13:23:45Z</time>
      </trkpt>
      <trkpt lat="43.41087" lon="6.09687">
        <ele>261.79998779297</ele>
        <time>2017-01-25T13:23:48Z</time>
      </trkpt>
      <trkpt lat="43.41087" lon="6.09687">
        <ele>262</ele>
        <time>2017-01-25T13:23:50Z</time>
      </trkpt>
      <trkpt lat="43.41087" lon="6.09687">
        <ele>262</ele>
        <time>2017-01-25T13:23:55Z</time>
      </trkpt>
      <trkpt lat="43.41087" lon="6.09687">
        <ele>262</ele>
        <time>2017-01-25T13:23:58Z</time>
      </trkpt>
      <trkpt lat="43.41086" lon="6.09687">
        <ele>262</ele>
        <time>2017-01-25T13:24:00Z</time>
      </trkpt>
      <trkpt lat="43.41086" lon="6.09687">
        <ele>262.20001220703</ele>
        <time>2017-01-25T13:24:04Z</time>
      </trkpt>
      <trkpt lat="43.41086" lon="6.09687">
        <ele>262</ele>
        <time>2017-01-25T13:24:08Z</time>
      </trkpt>
      <trkpt lat="43.41086" lon="6.09687">
        <ele>262</ele>
        <time>2017-01-25T13:24:11Z</time>
      </trkpt>
      <trkpt lat="43.41086" lon="6.09687">
        <ele>262.20001220703</ele>
        <time>2017-01-25T13:24:14Z</time>
      </trkpt>
      <trkpt lat="43.41086" lon="6.09688">
        <ele>262.20001220703</ele>
        <time>2017-01-25T13:24:17Z</time>
      </trkpt>
      <trkpt lat="43.41086" lon="6.09688">
        <ele>262</ele>
        <time>2017-01-25T13:24:18Z</time>
      </trkpt>
      <trkpt lat="43.41086" lon="6.09688">
        <ele>262</ele>
        <time>2017-01-25T13:24:27Z</time>
      </trkpt>
      <trkpt lat="43.41086" lon="6.09688">
        <ele>262</ele>
        <time>2017-01-25T13:24:28Z</time>
      </trkpt>
      <trkpt lat="43.41086" lon="6.09689">
        <ele>261.39999389648</ele>
        <time>2017-01-25T13:24:37Z</time>
      </trkpt>
      <trkpt lat="43.41086" lon="6.09694">
        <ele>261.39999389648</ele>
        <time>2017-01-25T13:24:40Z</time>
      </trkpt>
      <trkpt lat="43.41087" lon="6.09697">
        <ele>261.79998779297</ele>
        <time>2017-01-25T13:24:47Z</time>
      </trkpt>
      <trkpt lat="43.41088" lon="6.09697">
        <ele>261.79998779297</ele>
        <time>2017-01-25T13:24:48Z</time>
      </trkpt>
      <trkpt lat="43.4109" lon="6.09696">
        <ele>261.60000610352</ele>
        <time>2017-01-25T13:24:56Z</time>
      </trkpt>
      <trkpt lat="43.4109" lon="6.09696">
        <ele>261.60000610352</ele>
        <time>2017-01-25T13:24:58Z</time>
      </trkpt>
      <trkpt lat="43.4109" lon="6.09696">
        <ele>261.60000610352</ele>
        <time>2017-01-25T13:25:04Z</time>
      </trkpt>
      <trkpt lat="43.4109" lon="6.09696">
        <ele>261.60000610352</ele>
        <time>2017-01-25T13:25:18Z</time>
      </trkpt>
      <trkpt lat="43.4109" lon="6.09697">
        <ele>261.60000610352</ele>
        <time>2017-01-25T13:25:28Z</time>
      </trkpt>
      <trkpt lat="43.4109" lon="6.09697">
        <ele>261.20001220703</ele>
        <time>2017-01-25T13:26:01Z</time>
      </trkpt>
      <trkpt lat="43.4109" lon="6.09697">
        <ele>261.20001220703</ele>
        <time>2017-01-25T13:26:08Z</time>
      </trkpt>
      <trkpt lat="43.41093" lon="6.09697">
        <ele>261.20001220703</ele>
        <time>2017-01-25T13:26:10Z</time>
      </trkpt>
      <trkpt lat="43.41094" lon="6.09698">
        <ele>261</ele>
        <time>2017-01-25T13:26:11Z</time>
      </trkpt>
      <trkpt lat="43.41095" lon="6.09699">
        <ele>260.79998779297</ele>
        <time>2017-01-25T13:26:12Z</time>
      </trkpt>
      <trkpt lat="43.41103" lon="6.09717">
        <ele>260.60000610352</ele>
        <time>2017-01-25T13:26:18Z</time>
      </trkpt>
      <trkpt lat="43.4111" lon="6.09733">
        <ele>260.20001220703</ele>
        <time>2017-01-25T13:26:22Z</time>
      </trkpt>
      <trkpt lat="43.41117" lon="6.09758">
        <ele>259.60000610352</ele>
        <time>2017-01-25T13:26:28Z</time>
      </trkpt>
      <trkpt lat="43.41136" lon="6.09791">
        <ele>258.79998779297</ele>
        <time>2017-01-25T13:26:35Z</time>
      </trkpt>
      <trkpt lat="43.41147" lon="6.09808">
        <ele>258.20001220703</ele>
        <time>2017-01-25T13:26:38Z</time>
      </trkpt>
      <trkpt lat="43.41155" lon="6.0982">
        <ele>257.60000610352</ele>
        <time>2017-01-25T13:26:40Z</time>
      </trkpt>
      <trkpt lat="43.41175" lon="6.09853">
        <ele>256.60000610352</ele>
        <time>2017-01-25T13:26:45Z</time>
      </trkpt>
      <trkpt lat="43.41187" lon="6.0987">
        <ele>256.60000610352</ele>
        <time>2017-01-25T13:26:48Z</time>
      </trkpt>
      <trkpt lat="43.41215" lon="6.09905">
        <ele>256.20001220703</ele>
        <time>2017-01-25T13:26:55Z</time>
      </trkpt>
      <trkpt lat="43.41226" lon="6.09919">
        <ele>256.39999389648</ele>
        <time>2017-01-25T13:26:58Z</time>
      </trkpt>
      <trkpt lat="43.41234" lon="6.09928">
        <ele>256.79998779297</ele>
        <time>2017-01-25T13:27:00Z</time>
      </trkpt>
      <trkpt lat="43.41238" lon="6.09932">
        <ele>257.20001220703</ele>
        <time>2017-01-25T13:27:01Z</time>
      </trkpt>
      <trkpt lat="43.41245" lon="6.09942">
        <ele>257.60000610352</ele>
        <time>2017-01-25T13:27:03Z</time>
      </trkpt>
      <trkpt lat="43.41261" lon="6.09968">
        <ele>257.60000610352</ele>
        <time>2017-01-25T13:27:08Z</time>
      </trkpt>
      <trkpt lat="43.41267" lon="6.10002">
        <ele>257.39999389648</ele>
        <time>2017-01-25T13:27:15Z</time>
      </trkpt>
      <trkpt lat="43.41257" lon="6.10009">
        <ele>257.60000610352</ele>
        <time>2017-01-25T13:27:18Z</time>
      </trkpt>
      <trkpt lat="43.41234" lon="6.10022">
        <ele>258.60000610352</ele>
        <time>2017-01-25T13:27:24Z</time>
      </trkpt>
      <trkpt lat="43.4123" lon="6.10024">
        <ele>258.60000610352</ele>
        <time>2017-01-25T13:27:25Z</time>
      </trkpt>
      <trkpt lat="43.4122" lon="6.1003">
        <ele>259.39999389648</ele>
        <time>2017-01-25T13:27:28Z</time>
      </trkpt>
      <trkpt lat="43.41218" lon="6.10032">
        <ele>259.79998779297</ele>
        <time>2017-01-25T13:27:29Z</time>
      </trkpt>
      <trkpt lat="43.41216" lon="6.10036">
        <ele>260.39999389648</ele>
        <time>2017-01-25T13:27:30Z</time>
      </trkpt>
      <trkpt lat="43.41217" lon="6.10044">
        <ele>261.20001220703</ele>
        <time>2017-01-25T13:27:32Z</time>
      </trkpt>
      <trkpt lat="43.41225" lon="6.10069">
        <ele>261.60000610352</ele>
        <time>2017-01-25T13:27:38Z</time>
      </trkpt>
      <trkpt lat="43.41231" lon="6.10096">
        <ele>262</ele>
        <time>2017-01-25T13:27:43Z</time>
      </trkpt>
      <trkpt lat="43.41241" lon="6.10129">
        <ele>260.79998779297</ele>
        <time>2017-01-25T13:27:48Z</time>
      </trkpt>
      <trkpt lat="43.41248" lon="6.10144">
        <ele>260.60000610352</ele>
        <time>2017-01-25T13:27:51Z</time>
      </trkpt>
      <trkpt lat="43.41262" lon="6.10179">
        <ele>260.60000610352</ele>
        <time>2017-01-25T13:27:58Z</time>
      </trkpt>
      <trkpt lat="43.41271" lon="6.10209">
        <ele>259.79998779297</ele>
        <time>2017-01-25T13:28:02Z</time>
      </trkpt>
      <trkpt lat="43.41282" lon="6.10239">
        <ele>259.60000610352</ele>
        <time>2017-01-25T13:28:06Z</time>
      </trkpt>
      <trkpt lat="43.41286" lon="6.10254">
        <ele>258.79998779297</ele>
        <time>2017-01-25T13:28:08Z</time>
      </trkpt>
      <trkpt lat="43.41298" lon="6.10281">
        <ele>259</ele>
        <time>2017-01-25T13:28:14Z</time>
      </trkpt>
      <trkpt lat="43.41297" lon="6.10283">
        <ele>259.79998779297</ele>
        <time>2017-01-25T13:28:17Z</time>
      </trkpt>
      <trkpt lat="43.41297" lon="6.10284">
        <ele>260</ele>
        <time>2017-01-25T13:28:18Z</time>
      </trkpt>
      <trkpt lat="43.41296" lon="6.10286">
        <ele>259.79998779297</ele>
        <time>2017-01-25T13:28:21Z</time>
      </trkpt>
      <trkpt lat="43.41296" lon="6.10286">
        <ele>259.60000610352</ele>
        <time>2017-01-25T13:28:23Z</time>
      </trkpt>
      <trkpt lat="43.41296" lon="6.1029">
        <ele>259.60000610352</ele>
        <time>2017-01-25T13:28:27Z</time>
      </trkpt>
      <trkpt lat="43.41296" lon="6.10289">
        <ele>259.79998779297</ele>
        <time>2017-01-25T13:28:28Z</time>
      </trkpt>
      <trkpt lat="43.41291" lon="6.10284">
        <ele>259.60000610352</ele>
        <time>2017-01-25T13:28:38Z</time>
      </trkpt>
      <trkpt lat="43.4129" lon="6.10283">
        <ele>259.20001220703</ele>
        <time>2017-01-25T13:28:41Z</time>
      </trkpt>
      <trkpt lat="43.4129" lon="6.10282">
        <ele>259</ele>
        <time>2017-01-25T13:28:48Z</time>
      </trkpt>
      <trkpt lat="43.41289" lon="6.10279">
        <ele>258.79998779297</ele>
        <time>2017-01-25T13:28:52Z</time>
      </trkpt>
      <trkpt lat="43.41286" lon="6.10278">
        <ele>258.39999389648</ele>
        <time>2017-01-25T13:28:58Z</time>
      </trkpt>
      <trkpt lat="43.41286" lon="6.10278">
        <ele>258.39999389648</ele>
        <time>2017-01-25T13:29:00Z</time>
      </trkpt>
      <trkpt lat="43.41285" lon="6.10278">
        <ele>258.39999389648</ele>
        <time>2017-01-25T13:29:03Z</time>
      </trkpt>
      <trkpt lat="43.41285" lon="6.10277">
        <ele>258.39999389648</ele>
        <time>2017-01-25T13:29:08Z</time>
      </trkpt>
      <trkpt lat="43.41286" lon="6.10281">
        <ele>258.20001220703</ele>
        <time>2017-01-25T13:29:18Z</time>
      </trkpt>
      <trkpt lat="43.41285" lon="6.10282">
        <ele>258.39999389648</ele>
        <time>2017-01-25T13:29:28Z</time>
      </trkpt>
      <trkpt lat="43.41285" lon="6.10282">
        <ele>258.79998779297</ele>
        <time>2017-01-25T13:29:36Z</time>
      </trkpt>
      <trkpt lat="43.41285" lon="6.10282">
        <ele>258.60000610352</ele>
        <time>2017-01-25T13:29:38Z</time>
      </trkpt>
      <trkpt lat="43.41286" lon="6.10282">
        <ele>258.20001220703</ele>
        <time>2017-01-25T13:29:48Z</time>
      </trkpt>
      <trkpt lat="43.41283" lon="6.10281">
        <ele>258</ele>
        <time>2017-01-25T13:29:53Z</time>
      </trkpt>
      <trkpt lat="43.41284" lon="6.10279">
        <ele>258</ele>
        <time>2017-01-25T13:29:58Z</time>
      </trkpt>
      <trkpt lat="43.41285" lon="6.10279">
        <ele>258.20001220703</ele>
        <time>2017-01-25T13:30:08Z</time>
      </trkpt>
      <trkpt lat="43.41285" lon="6.10278">
        <ele>258.39999389648</ele>
        <time>2017-01-25T13:30:18Z</time>
      </trkpt>
      <trkpt lat="43.41285" lon="6.10277">
        <ele>258.39999389648</ele>
        <time>2017-01-25T13:30:23Z</time>
      </trkpt>
      <trkpt lat="43.41283" lon="6.10276">
        <ele>258.79998779297</ele>
        <time>2017-01-25T13:30:38Z</time>
      </trkpt>
      <trkpt lat="43.41277" lon="6.10271">
        <ele>258.79998779297</ele>
        <time>2017-01-25T13:30:47Z</time>
      </trkpt>
      <trkpt lat="43.41277" lon="6.10271">
        <ele>258.79998779297</ele>
        <time>2017-01-25T13:30:48Z</time>
      </trkpt>
      <trkpt lat="43.41278" lon="6.10272">
        <ele>258.20001220703</ele>
        <time>2017-01-25T13:30:58Z</time>
      </trkpt>
      <trkpt lat="43.41279" lon="6.10271">
        <ele>258.20001220703</ele>
        <time>2017-01-25T13:31:04Z</time>
      </trkpt>
      <trkpt lat="43.4128" lon="6.10271">
        <ele>258.20001220703</ele>
        <time>2017-01-25T13:31:08Z</time>
      </trkpt>
      <trkpt lat="43.41281" lon="6.10273">
        <ele>258.20001220703</ele>
        <time>2017-01-25T13:31:18Z</time>
      </trkpt>
      <trkpt lat="43.41283" lon="6.10274">
        <ele>257.79998779297</ele>
        <time>2017-01-25T13:31:28Z</time>
      </trkpt>
      <trkpt lat="43.41285" lon="6.10276">
        <ele>258.60000610352</ele>
        <time>2017-01-25T13:31:38Z</time>
      </trkpt>
      <trkpt lat="43.41289" lon="6.10277">
        <ele>258.60000610352</ele>
        <time>2017-01-25T13:31:48Z</time>
      </trkpt>
      <trkpt lat="43.4129" lon="6.10278">
        <ele>259</ele>
        <time>2017-01-25T13:31:58Z</time>
      </trkpt>
      <trkpt lat="43.41289" lon="6.10278">
        <ele>259.39999389648</ele>
        <time>2017-01-25T13:32:08Z</time>
      </trkpt>
      <trkpt lat="43.41288" lon="6.10279">
        <ele>259</ele>
        <time>2017-01-25T13:32:18Z</time>
      </trkpt>
      <trkpt lat="43.41285" lon="6.10281">
        <ele>259.20001220703</ele>
        <time>2017-01-25T13:32:28Z</time>
      </trkpt>
      <trkpt lat="43.41286" lon="6.10281">
        <ele>258.39999389648</ele>
        <time>2017-01-25T13:32:38Z</time>
      </trkpt>
      <trkpt lat="43.41286" lon="6.10281">
        <ele>259.39999389648</ele>
        <time>2017-01-25T13:32:42Z</time>
      </trkpt>
      <trkpt lat="43.41286" lon="6.10281">
        <ele>258.39999389648</ele>
        <time>2017-01-25T13:32:48Z</time>
      </trkpt>
      <trkpt lat="43.41288" lon="6.10279">
        <ele>260</ele>
        <time>2017-01-25T13:33:01Z</time>
      </trkpt>
      <trkpt lat="43.41289" lon="6.10279">
        <ele>258.60000610352</ele>
        <time>2017-01-25T13:33:05Z</time>
      </trkpt>
      <trkpt lat="43.41288" lon="6.1028">
        <ele>259.20001220703</ele>
        <time>2017-01-25T13:33:08Z</time>
      </trkpt>
      <trkpt lat="43.41286" lon="6.10281">
        <ele>258.39999389648</ele>
        <time>2017-01-25T13:33:18Z</time>
      </trkpt>
      <trkpt lat="43.41287" lon="6.10279">
        <ele>258.60000610352</ele>
        <time>2017-01-25T13:33:28Z</time>
      </trkpt>
      <trkpt lat="43.41287" lon="6.10274">
        <ele>258.60000610352</ele>
        <time>2017-01-25T13:33:38Z</time>
      </trkpt>
      <trkpt lat="43.41289" lon="6.10277">
        <ele>258.60000610352</ele>
        <time>2017-01-25T13:33:48Z</time>
      </trkpt>
      <trkpt lat="43.4129" lon="6.10277">
        <ele>258.60000610352</ele>
        <time>2017-01-25T13:33:58Z</time>
      </trkpt>
      <trkpt lat="43.41289" lon="6.10278">
        <ele>258.60000610352</ele>
        <time>2017-01-25T13:34:08Z</time>
      </trkpt>
      <trkpt lat="43.41285" lon="6.10281">
        <ele>258.60000610352</ele>
        <time>2017-01-25T13:34:18Z</time>
      </trkpt>
      <trkpt lat="43.41288" lon="6.10282">
        <ele>258.60000610352</ele>
        <time>2017-01-25T13:34:28Z</time>
      </trkpt>
      <trkpt lat="43.4129" lon="6.10283">
        <ele>258.60000610352</ele>
        <time>2017-01-25T13:34:38Z</time>
      </trkpt>
      <trkpt lat="43.41288" lon="6.10279">
        <ele>258.60000610352</ele>
        <time>2017-01-25T13:34:48Z</time>
      </trkpt>
      <trkpt lat="43.41287" lon="6.10281">
        <ele>258.60000610352</ele>
        <time>2017-01-25T13:34:58Z</time>
      </trkpt>
      <trkpt lat="43.41288" lon="6.10285">
        <ele>258.60000610352</ele>
        <time>2017-01-25T13:35:08Z</time>
      </trkpt>
      <trkpt lat="43.4129" lon="6.10283">
        <ele>258.60000610352</ele>
        <time>2017-01-25T13:35:18Z</time>
      </trkpt>
      <trkpt lat="43.41287" lon="6.10287">
        <ele>258.60000610352</ele>
        <time>2017-01-25T13:35:28Z</time>
      </trkpt>
      <trkpt lat="43.41286" lon="6.10285">
        <ele>258.60000610352</ele>
        <time>2017-01-25T13:35:38Z</time>
      </trkpt>
      <trkpt lat="43.41289" lon="6.10283">
        <ele>258.60000610352</ele>
        <time>2017-01-25T13:35:48Z</time>
      </trkpt>
      <trkpt lat="43.41288" lon="6.10282">
        <ele>258.60000610352</ele>
        <time>2017-01-25T13:35:58Z</time>
      </trkpt>
      <trkpt lat="43.41288" lon="6.10281">
        <ele>258.60000610352</ele>
        <time>2017-01-25T13:36:08Z</time>
      </trkpt>
      <trkpt lat="43.4129" lon="6.10283">
        <ele>258.60000610352</ele>
        <time>2017-01-25T13:36:28Z</time>
      </trkpt>
      <trkpt lat="43.4129" lon="6.10283">
        <ele>258.60000610352</ele>
        <time>2017-01-25T13:36:38Z</time>
      </trkpt>
      <trkpt lat="43.41289" lon="6.10282">
        <ele>258.60000610352</ele>
        <time>2017-01-25T13:36:48Z</time>
      </trkpt>
      <trkpt lat="43.41289" lon="6.10282">
        <ele>258.60000610352</ele>
        <time>2017-01-25T13:36:58Z</time>
      </trkpt>
      <trkpt lat="43.41289" lon="6.10281">
        <ele>258.60000610352</ele>
        <time>2017-01-25T13:37:00Z</time>
      </trkpt>
      <trkpt lat="43.41289" lon="6.10281">
        <ele>258.60000610352</ele>
        <time>2017-01-25T13:37:08Z</time>
      </trkpt>
      <trkpt lat="43.4129" lon="6.10282">
        <ele>258.60000610352</ele>
        <time>2017-01-25T13:37:18Z</time>
      </trkpt>
      <trkpt lat="43.41291" lon="6.10284">
        <ele>258.60000610352</ele>
        <time>2017-01-25T13:37:28Z</time>
      </trkpt>
      <trkpt lat="43.41291" lon="6.10284">
        <ele>258.60000610352</ele>
        <time>2017-01-25T13:37:38Z</time>
      </trkpt>
      <trkpt lat="43.41291" lon="6.10284">
        <ele>258.60000610352</ele>
        <time>2017-01-25T13:37:48Z</time>
      </trkpt>
      <trkpt lat="43.41291" lon="6.10283">
        <ele>258.60000610352</ele>
        <time>2017-01-25T13:37:58Z</time>
      </trkpt>
      <trkpt lat="43.41291" lon="6.10281">
        <ele>258.60000610352</ele>
        <time>2017-01-25T13:38:08Z</time>
      </trkpt>
      <trkpt lat="43.41292" lon="6.10281">
        <ele>258.60000610352</ele>
        <time>2017-01-25T13:38:16Z</time>
      </trkpt>
      <trkpt lat="43.41292" lon="6.1028">
        <ele>258.60000610352</ele>
        <time>2017-01-25T13:38:18Z</time>
      </trkpt>
      <trkpt lat="43.41291" lon="6.10281">
        <ele>258.60000610352</ele>
        <time>2017-01-25T13:38:28Z</time>
      </trkpt>
      <trkpt lat="43.41291" lon="6.10283">
        <ele>258.60000610352</ele>
        <time>2017-01-25T13:38:38Z</time>
      </trkpt>
      <trkpt lat="43.41292" lon="6.10284">
        <ele>258.60000610352</ele>
        <time>2017-01-25T13:38:48Z</time>
      </trkpt>
      <trkpt lat="43.41293" lon="6.10283">
        <ele>258.60000610352</ele>
        <time>2017-01-25T13:38:58Z</time>
      </trkpt>
      <trkpt lat="43.41293" lon="6.10281">
        <ele>258.60000610352</ele>
        <time>2017-01-25T13:39:08Z</time>
      </trkpt>
      <trkpt lat="43.41291" lon="6.10281">
        <ele>258.60000610352</ele>
        <time>2017-01-25T13:39:18Z</time>
      </trkpt>
      <trkpt lat="43.41289" lon="6.10282">
        <ele>258.60000610352</ele>
        <time>2017-01-25T13:39:28Z</time>
      </trkpt>
      <trkpt lat="43.4129" lon="6.10282">
        <ele>258.60000610352</ele>
        <time>2017-01-25T13:39:34Z</time>
      </trkpt>
      <trkpt lat="43.41289" lon="6.10281">
        <ele>258.60000610352</ele>
        <time>2017-01-25T13:39:38Z</time>
      </trkpt>
      <trkpt lat="43.4129" lon="6.10284">
        <ele>258.60000610352</ele>
        <time>2017-01-25T13:39:43Z</time>
      </trkpt>
      <trkpt lat="43.4129" lon="6.10283">
        <ele>258.60000610352</ele>
        <time>2017-01-25T13:39:44Z</time>
      </trkpt>
      <trkpt lat="43.4129" lon="6.10282">
        <ele>258.60000610352</ele>
        <time>2017-01-25T13:39:48Z</time>
      </trkpt>
      <trkpt lat="43.4129" lon="6.10282">
        <ele>258.60000610352</ele>
        <time>2017-01-25T13:39:50Z</time>
      </trkpt>
      <trkpt lat="43.4129" lon="6.10283">
        <ele>258.60000610352</ele>
        <time>2017-01-25T13:39:55Z</time>
      </trkpt>
      <trkpt lat="43.41289" lon="6.10284">
        <ele>258.60000610352</ele>
        <time>2017-01-25T13:39:58Z</time>
      </trkpt>
      <trkpt lat="43.41291" lon="6.10286">
        <ele>258.60000610352</ele>
        <time>2017-01-25T13:40:08Z</time>
      </trkpt>
      <trkpt lat="43.4129" lon="6.10287">
        <ele>258.60000610352</ele>
        <time>2017-01-25T13:40:18Z</time>
      </trkpt>
      <trkpt lat="43.41288" lon="6.10287">
        <ele>258.60000610352</ele>
        <time>2017-01-25T13:40:28Z</time>
      </trkpt>
      <trkpt lat="43.41287" lon="6.10283">
        <ele>258.60000610352</ele>
        <time>2017-01-25T13:40:38Z</time>
      </trkpt>
      <trkpt lat="43.41288" lon="6.10283">
        <ele>258.60000610352</ele>
        <time>2017-01-25T13:40:48Z</time>
      </trkpt>
      <trkpt lat="43.41288" lon="6.10282">
        <ele>258.60000610352</ele>
        <time>2017-01-25T13:40:58Z</time>
      </trkpt>
      <trkpt lat="43.41289" lon="6.10282">
        <ele>258.60000610352</ele>
        <time>2017-01-25T13:41:08Z</time>
      </trkpt>
      <trkpt lat="43.4129" lon="6.10281">
        <ele>258.60000610352</ele>
        <time>2017-01-25T13:41:18Z</time>
      </trkpt>
      <trkpt lat="43.41288" lon="6.1028">
        <ele>258.60000610352</ele>
        <time>2017-01-25T13:41:28Z</time>
      </trkpt>
      <trkpt lat="43.41288" lon="6.10285">
        <ele>258.60000610352</ele>
        <time>2017-01-25T13:41:38Z</time>
      </trkpt>
      <trkpt lat="43.4129" lon="6.10287">
        <ele>258.60000610352</ele>
        <time>2017-01-25T13:41:48Z</time>
      </trkpt>
      <trkpt lat="43.41291" lon="6.10285">
        <ele>258.60000610352</ele>
        <time>2017-01-25T13:41:58Z</time>
      </trkpt>
      <trkpt lat="43.41291" lon="6.10283">
        <ele>258.60000610352</ele>
        <time>2017-01-25T13:42:08Z</time>
      </trkpt>
      <trkpt lat="43.4129" lon="6.10283">
        <ele>258.60000610352</ele>
        <time>2017-01-25T13:42:18Z</time>
      </trkpt>
      <trkpt lat="43.4129" lon="6.10282">
        <ele>258.60000610352</ele>
        <time>2017-01-25T13:42:28Z</time>
      </trkpt>
      <trkpt lat="43.41294" lon="6.10279">
        <ele>258.60000610352</ele>
        <time>2017-01-25T13:42:38Z</time>
      </trkpt>
      <trkpt lat="43.41294" lon="6.10277">
        <ele>258.60000610352</ele>
        <time>2017-01-25T13:42:48Z</time>
      </trkpt>
      <trkpt lat="43.41293" lon="6.10279">
        <ele>258.60000610352</ele>
        <time>2017-01-25T13:42:58Z</time>
      </trkpt>
      <trkpt lat="43.41291" lon="6.10281">
        <ele>258.60000610352</ele>
        <time>2017-01-25T13:43:18Z</time>
      </trkpt>
      <trkpt lat="43.41293" lon="6.10279">
        <ele>258.60000610352</ele>
        <time>2017-01-25T13:43:28Z</time>
      </trkpt>
      <trkpt lat="43.41293" lon="6.10279">
        <ele>258.60000610352</ele>
        <time>2017-01-25T13:43:38Z</time>
      </trkpt>
      <trkpt lat="43.41293" lon="6.1028">
        <ele>258.60000610352</ele>
        <time>2017-01-25T13:43:48Z</time>
      </trkpt>
      <trkpt lat="43.41293" lon="6.10281">
        <ele>258.60000610352</ele>
        <time>2017-01-25T13:43:58Z</time>
      </trkpt>
      <trkpt lat="43.41291" lon="6.10281">
        <ele>258.60000610352</ele>
        <time>2017-01-25T13:44:08Z</time>
      </trkpt>
      <trkpt lat="43.41293" lon="6.10281">
        <ele>258.60000610352</ele>
        <time>2017-01-25T13:44:18Z</time>
      </trkpt>
      <trkpt lat="43.41293" lon="6.1028">
        <ele>258.60000610352</ele>
        <time>2017-01-25T13:44:28Z</time>
      </trkpt>
      <trkpt lat="43.41294" lon="6.1028">
        <ele>258.60000610352</ele>
        <time>2017-01-25T13:44:38Z</time>
      </trkpt>
      <trkpt lat="43.41295" lon="6.10279">
        <ele>258.60000610352</ele>
        <time>2017-01-25T13:44:48Z</time>
      </trkpt>
      <trkpt lat="43.41293" lon="6.10281">
        <ele>258.60000610352</ele>
        <time>2017-01-25T13:44:58Z</time>
      </trkpt>
      <trkpt lat="43.41292" lon="6.1028">
        <ele>258.60000610352</ele>
        <time>2017-01-25T13:45:08Z</time>
      </trkpt>
      <trkpt lat="43.41291" lon="6.10279">
        <ele>258.60000610352</ele>
        <time>2017-01-25T13:45:17Z</time>
      </trkpt>
      <trkpt lat="43.41291" lon="6.10279">
        <ele>258.60000610352</ele>
        <time>2017-01-25T13:45:18Z</time>
      </trkpt>
      <trkpt lat="43.41291" lon="6.10279">
        <ele>258.60000610352</ele>
        <time>2017-01-25T13:45:28Z</time>
      </trkpt>
      <trkpt lat="43.4129" lon="6.10281">
        <ele>258.60000610352</ele>
        <time>2017-01-25T13:45:48Z</time>
      </trkpt>
      <trkpt lat="43.41291" lon="6.10284">
        <ele>258.60000610352</ele>
        <time>2017-01-25T13:45:55Z</time>
      </trkpt>
      <trkpt lat="43.41293" lon="6.10284">
        <ele>258.60000610352</ele>
        <time>2017-01-25T13:45:58Z</time>
      </trkpt>
      <trkpt lat="43.41295" lon="6.10283">
        <ele>258.60000610352</ele>
        <time>2017-01-25T13:46:08Z</time>
      </trkpt>
      <trkpt lat="43.41296" lon="6.10282">
        <ele>258.60000610352</ele>
        <time>2017-01-25T13:46:18Z</time>
      </trkpt>
      <trkpt lat="43.41295" lon="6.10283">
        <ele>258.60000610352</ele>
        <time>2017-01-25T13:46:28Z</time>
      </trkpt>
      <trkpt lat="43.41293" lon="6.10283">
        <ele>258.60000610352</ele>
        <time>2017-01-25T13:46:38Z</time>
      </trkpt>
      <trkpt lat="43.41293" lon="6.10282">
        <ele>258.60000610352</ele>
        <time>2017-01-25T13:46:47Z</time>
      </trkpt>
      <trkpt lat="43.41293" lon="6.10282">
        <ele>258.60000610352</ele>
        <time>2017-01-25T13:46:48Z</time>
      </trkpt>
      <trkpt lat="43.41293" lon="6.10283">
        <ele>258.60000610352</ele>
        <time>2017-01-25T13:46:58Z</time>
      </trkpt>
      <trkpt lat="43.41291" lon="6.10281">
        <ele>258.60000610352</ele>
        <time>2017-01-25T13:47:18Z</time>
      </trkpt>
      <trkpt lat="43.41291" lon="6.10282">
        <ele>258.60000610352</ele>
        <time>2017-01-25T13:47:28Z</time>
      </trkpt>
      <trkpt lat="43.41292" lon="6.10285">
        <ele>258.60000610352</ele>
        <time>2017-01-25T13:47:48Z</time>
      </trkpt>
      <trkpt lat="43.41293" lon="6.10284">
        <ele>258.60000610352</ele>
        <time>2017-01-25T13:48:01Z</time>
      </trkpt>
      <trkpt lat="43.41291" lon="6.10284">
        <ele>258.60000610352</ele>
        <time>2017-01-25T13:48:08Z</time>
      </trkpt>
      <trkpt lat="43.41293" lon="6.10282">
        <ele>258.60000610352</ele>
        <time>2017-01-25T13:48:18Z</time>
      </trkpt>
      <trkpt lat="43.41295" lon="6.10282">
        <ele>258.60000610352</ele>
        <time>2017-01-25T13:48:28Z</time>
      </trkpt>
      <trkpt lat="43.41294" lon="6.10286">
        <ele>258.60000610352</ele>
        <time>2017-01-25T13:48:38Z</time>
      </trkpt>
      <trkpt lat="43.41293" lon="6.10285">
        <ele>258.60000610352</ele>
        <time>2017-01-25T13:48:46Z</time>
      </trkpt>
      <trkpt lat="43.41289" lon="6.10283">
        <ele>258.60000610352</ele>
        <time>2017-01-25T13:48:58Z</time>
      </trkpt>
      <trkpt lat="43.41291" lon="6.10285">
        <ele>258.60000610352</ele>
        <time>2017-01-25T13:49:08Z</time>
      </trkpt>
      <trkpt lat="43.41291" lon="6.10284">
        <ele>258.60000610352</ele>
        <time>2017-01-25T13:49:18Z</time>
      </trkpt>
      <trkpt lat="43.41292" lon="6.10285">
        <ele>258.60000610352</ele>
        <time>2017-01-25T13:49:24Z</time>
      </trkpt>
      <trkpt lat="43.41292" lon="6.10286">
        <ele>258.60000610352</ele>
        <time>2017-01-25T13:49:28Z</time>
      </trkpt>
      <trkpt lat="43.41291" lon="6.10286">
        <ele>258.60000610352</ele>
        <time>2017-01-25T13:49:38Z</time>
      </trkpt>
      <trkpt lat="43.41289" lon="6.10287">
        <ele>258.60000610352</ele>
        <time>2017-01-25T13:49:48Z</time>
      </trkpt>
      <trkpt lat="43.41289" lon="6.10287">
        <ele>258.60000610352</ele>
        <time>2017-01-25T13:49:58Z</time>
      </trkpt>
      <trkpt lat="43.41293" lon="6.10287">
        <ele>258.60000610352</ele>
        <time>2017-01-25T13:50:08Z</time>
      </trkpt>
      <trkpt lat="43.41295" lon="6.10285">
        <ele>258.60000610352</ele>
        <time>2017-01-25T13:50:18Z</time>
      </trkpt>
      <trkpt lat="43.41295" lon="6.10283">
        <ele>258.60000610352</ele>
        <time>2017-01-25T13:50:28Z</time>
      </trkpt>
      <trkpt lat="43.4129" lon="6.10282">
        <ele>258.60000610352</ele>
        <time>2017-01-25T13:50:38Z</time>
      </trkpt>
      <trkpt lat="43.41289" lon="6.10284">
        <ele>258.60000610352</ele>
        <time>2017-01-25T13:50:48Z</time>
      </trkpt>
      <trkpt lat="43.41289" lon="6.10284">
        <ele>258.60000610352</ele>
        <time>2017-01-25T13:50:58Z</time>
      </trkpt>
      <trkpt lat="43.41288" lon="6.10283">
        <ele>258.60000610352</ele>
        <time>2017-01-25T13:51:08Z</time>
      </trkpt>
      <trkpt lat="43.41289" lon="6.10282">
        <ele>258.60000610352</ele>
        <time>2017-01-25T13:51:18Z</time>
      </trkpt>
      <trkpt lat="43.41288" lon="6.10283">
        <ele>258.60000610352</ele>
        <time>2017-01-25T13:51:26Z</time>
      </trkpt>
      <trkpt lat="43.41288" lon="6.10283">
        <ele>258.60000610352</ele>
        <time>2017-01-25T13:51:28Z</time>
      </trkpt>
      <trkpt lat="43.41288" lon="6.10283">
        <ele>258.60000610352</ele>
        <time>2017-01-25T13:51:38Z</time>
      </trkpt>
      <trkpt lat="43.41288" lon="6.10284">
        <ele>258.60000610352</ele>
        <time>2017-01-25T13:51:42Z</time>
      </trkpt>
      <trkpt lat="43.4129" lon="6.10284">
        <ele>258.60000610352</ele>
        <time>2017-01-25T13:51:48Z</time>
      </trkpt>
      <trkpt lat="43.41291" lon="6.10281">
        <ele>258.60000610352</ele>
        <time>2017-01-25T13:51:58Z</time>
      </trkpt>
      <trkpt lat="43.41291" lon="6.10282">
        <ele>258.60000610352</ele>
        <time>2017-01-25T13:52:08Z</time>
      </trkpt>
      <trkpt lat="43.41286" lon="6.10282">
        <ele>258.60000610352</ele>
        <time>2017-01-25T13:52:28Z</time>
      </trkpt>
      <trkpt lat="43.41286" lon="6.10283">
        <ele>258.60000610352</ele>
        <time>2017-01-25T13:52:38Z</time>
      </trkpt>
      <trkpt lat="43.41286" lon="6.10282">
        <ele>258.60000610352</ele>
        <time>2017-01-25T13:52:48Z</time>
      </trkpt>
      <trkpt lat="43.41286" lon="6.10285">
        <ele>258.60000610352</ele>
        <time>2017-01-25T13:52:58Z</time>
      </trkpt>
      <trkpt lat="43.41288" lon="6.10285">
        <ele>258.60000610352</ele>
        <time>2017-01-25T13:53:08Z</time>
      </trkpt>
      <trkpt lat="43.41286" lon="6.10287">
        <ele>258.60000610352</ele>
        <time>2017-01-25T13:53:18Z</time>
      </trkpt>
      <trkpt lat="43.41288" lon="6.10288">
        <ele>258.60000610352</ele>
        <time>2017-01-25T13:53:28Z</time>
      </trkpt>
      <trkpt lat="43.41287" lon="6.10287">
        <ele>258.60000610352</ele>
        <time>2017-01-25T13:53:38Z</time>
      </trkpt>
      <trkpt lat="43.41286" lon="6.10287">
        <ele>258.60000610352</ele>
        <time>2017-01-25T13:53:48Z</time>
      </trkpt>
      <trkpt lat="43.41288" lon="6.10285">
        <ele>258.60000610352</ele>
        <time>2017-01-25T13:53:57Z</time>
      </trkpt>
      <trkpt lat="43.41287" lon="6.10285">
        <ele>258.60000610352</ele>
        <time>2017-01-25T13:53:58Z</time>
      </trkpt>
      <trkpt lat="43.41286" lon="6.10286">
        <ele>258.60000610352</ele>
        <time>2017-01-25T13:54:08Z</time>
      </trkpt>
      <trkpt lat="43.41286" lon="6.10286">
        <ele>258.60000610352</ele>
        <time>2017-01-25T13:54:18Z</time>
      </trkpt>
      <trkpt lat="43.41291" lon="6.10283">
        <ele>258.60000610352</ele>
        <time>2017-01-25T13:54:28Z</time>
      </trkpt>
      <trkpt lat="43.41291" lon="6.10281">
        <ele>258.60000610352</ele>
        <time>2017-01-25T13:54:32Z</time>
      </trkpt>
      <trkpt lat="43.41292" lon="6.1028">
        <ele>258.60000610352</ele>
        <time>2017-01-25T13:54:38Z</time>
      </trkpt>
      <trkpt lat="43.41292" lon="6.1028">
        <ele>258.60000610352</ele>
        <time>2017-01-25T13:54:48Z</time>
      </trkpt>
      <trkpt lat="43.41293" lon="6.10283">
        <ele>258.60000610352</ele>
        <time>2017-01-25T13:54:58Z</time>
      </trkpt>
      <trkpt lat="43.41293" lon="6.10285">
        <ele>258.60000610352</ele>
        <time>2017-01-25T13:55:08Z</time>
      </trkpt>
      <trkpt lat="43.41296" lon="6.10284">
        <ele>258.60000610352</ele>
        <time>2017-01-25T13:55:18Z</time>
      </trkpt>
      <trkpt lat="43.41292" lon="6.10279">
        <ele>258.60000610352</ele>
        <time>2017-01-25T13:55:28Z</time>
      </trkpt>
      <trkpt lat="43.41292" lon="6.10276">
        <ele>258.60000610352</ele>
        <time>2017-01-25T13:55:38Z</time>
      </trkpt>
      <trkpt lat="43.4129" lon="6.10277">
        <ele>258.60000610352</ele>
        <time>2017-01-25T13:55:48Z</time>
      </trkpt>
      <trkpt lat="43.4129" lon="6.10278">
        <ele>258.60000610352</ele>
        <time>2017-01-25T13:55:53Z</time>
      </trkpt>
      <trkpt lat="43.4129" lon="6.10279">
        <ele>258.60000610352</ele>
        <time>2017-01-25T13:55:58Z</time>
      </trkpt>
      <trkpt lat="43.4129" lon="6.10279">
        <ele>258.60000610352</ele>
        <time>2017-01-25T13:56:08Z</time>
      </trkpt>
      <trkpt lat="43.41291" lon="6.10279">
        <ele>258.60000610352</ele>
        <time>2017-01-25T13:56:18Z</time>
      </trkpt>
      <trkpt lat="43.41292" lon="6.1028">
        <ele>258.60000610352</ele>
        <time>2017-01-25T13:56:25Z</time>
      </trkpt>
      <trkpt lat="43.41293" lon="6.1028">
        <ele>258.60000610352</ele>
        <time>2017-01-25T13:56:28Z</time>
      </trkpt>
      <trkpt lat="43.4129" lon="6.1028">
        <ele>258.60000610352</ele>
        <time>2017-01-25T13:56:38Z</time>
      </trkpt>
      <trkpt lat="43.4129" lon="6.10279">
        <ele>258.60000610352</ele>
        <time>2017-01-25T13:56:45Z</time>
      </trkpt>
      <trkpt lat="43.41291" lon="6.10282">
        <ele>258.60000610352</ele>
        <time>2017-01-25T13:56:58Z</time>
      </trkpt>
      <trkpt lat="43.41291" lon="6.10282">
        <ele>258.60000610352</ele>
        <time>2017-01-25T13:57:06Z</time>
      </trkpt>
      <trkpt lat="43.41291" lon="6.10282">
        <ele>258.60000610352</ele>
        <time>2017-01-25T13:57:08Z</time>
      </trkpt>
      <trkpt lat="43.4129" lon="6.10282">
        <ele>258.60000610352</ele>
        <time>2017-01-25T13:57:18Z</time>
      </trkpt>
      <trkpt lat="43.41292" lon="6.10284">
        <ele>258.60000610352</ele>
        <time>2017-01-25T13:57:28Z</time>
      </trkpt>
      <trkpt lat="43.41291" lon="6.10285">
        <ele>258.60000610352</ele>
        <time>2017-01-25T13:57:38Z</time>
      </trkpt>
      <trkpt lat="43.41289" lon="6.10287">
        <ele>258.60000610352</ele>
        <time>2017-01-25T13:57:48Z</time>
      </trkpt>
      <trkpt lat="43.41289" lon="6.10286">
        <ele>258.60000610352</ele>
        <time>2017-01-25T13:57:58Z</time>
      </trkpt>
      <trkpt lat="43.4129" lon="6.10282">
        <ele>258.60000610352</ele>
        <time>2017-01-25T13:58:18Z</time>
      </trkpt>
      <trkpt lat="43.4129" lon="6.1028">
        <ele>258.60000610352</ele>
        <time>2017-01-25T13:58:28Z</time>
      </trkpt>
      <trkpt lat="43.4129" lon="6.1028">
        <ele>258.60000610352</ele>
        <time>2017-01-25T13:58:38Z</time>
      </trkpt>
      <trkpt lat="43.41291" lon="6.1028">
        <ele>258.60000610352</ele>
        <time>2017-01-25T13:58:48Z</time>
      </trkpt>
      <trkpt lat="43.41292" lon="6.10279">
        <ele>258.60000610352</ele>
        <time>2017-01-25T13:58:58Z</time>
      </trkpt>
      <trkpt lat="43.41291" lon="6.10281">
        <ele>258.60000610352</ele>
        <time>2017-01-25T13:59:08Z</time>
      </trkpt>
      <trkpt lat="43.4129" lon="6.10282">
        <ele>258.60000610352</ele>
        <time>2017-01-25T13:59:28Z</time>
      </trkpt>
      <trkpt lat="43.41289" lon="6.10281">
        <ele>258.60000610352</ele>
        <time>2017-01-25T13:59:38Z</time>
      </trkpt>
      <trkpt lat="43.41289" lon="6.1028">
        <ele>258.60000610352</ele>
        <time>2017-01-25T13:59:48Z</time>
      </trkpt>
      <trkpt lat="43.41288" lon="6.10284">
        <ele>258.60000610352</ele>
        <time>2017-01-25T13:59:58Z</time>
      </trkpt>
      <trkpt lat="43.41288" lon="6.10286">
        <ele>258.60000610352</ele>
        <time>2017-01-25T14:00:04Z</time>
      </trkpt>
      <trkpt lat="43.41289" lon="6.10285">
        <ele>258.60000610352</ele>
        <time>2017-01-25T14:00:08Z</time>
      </trkpt>
      <trkpt lat="43.41288" lon="6.10283">
        <ele>258.60000610352</ele>
        <time>2017-01-25T14:00:28Z</time>
      </trkpt>
      <trkpt lat="43.41291" lon="6.10281">
        <ele>258.60000610352</ele>
        <time>2017-01-25T14:00:38Z</time>
      </trkpt>
      <trkpt lat="43.41291" lon="6.10282">
        <ele>258.60000610352</ele>
        <time>2017-01-25T14:00:48Z</time>
      </trkpt>
      <trkpt lat="43.41293" lon="6.10281">
        <ele>258.60000610352</ele>
        <time>2017-01-25T14:00:58Z</time>
      </trkpt>
      <trkpt lat="43.41294" lon="6.10281">
        <ele>258.60000610352</ele>
        <time>2017-01-25T14:01:03Z</time>
      </trkpt>
      <trkpt lat="43.41292" lon="6.1028">
        <ele>258.60000610352</ele>
        <time>2017-01-25T14:01:08Z</time>
      </trkpt>
      <trkpt lat="43.41293" lon="6.10281">
        <ele>258.60000610352</ele>
        <time>2017-01-25T14:01:18Z</time>
      </trkpt>
      <trkpt lat="43.41291" lon="6.10284">
        <ele>258.60000610352</ele>
        <time>2017-01-25T14:01:26Z</time>
      </trkpt>
      <trkpt lat="43.4129" lon="6.10284">
        <ele>258.60000610352</ele>
        <time>2017-01-25T14:01:28Z</time>
      </trkpt>
      <trkpt lat="43.41292" lon="6.10282">
        <ele>258.60000610352</ele>
        <time>2017-01-25T14:01:38Z</time>
      </trkpt>
      <trkpt lat="43.41293" lon="6.10283">
        <ele>258.60000610352</ele>
        <time>2017-01-25T14:01:48Z</time>
      </trkpt>
      <trkpt lat="43.41291" lon="6.10277">
        <ele>258.60000610352</ele>
        <time>2017-01-25T14:01:56Z</time>
      </trkpt>
      <trkpt lat="43.41291" lon="6.10276">
        <ele>258.60000610352</ele>
        <time>2017-01-25T14:01:58Z</time>
      </trkpt>
      <trkpt lat="43.4129" lon="6.10278">
        <ele>258.60000610352</ele>
        <time>2017-01-25T14:02:08Z</time>
      </trkpt>
      <trkpt lat="43.41288" lon="6.10281">
        <ele>258.60000610352</ele>
        <time>2017-01-25T14:02:13Z</time>
      </trkpt>
      <trkpt lat="43.4129" lon="6.10281">
        <ele>258.60000610352</ele>
        <time>2017-01-25T14:02:28Z</time>
      </trkpt>
      <trkpt lat="43.4129" lon="6.10282">
        <ele>258.60000610352</ele>
        <time>2017-01-25T14:02:38Z</time>
      </trkpt>
      <trkpt lat="43.41288" lon="6.10282">
        <ele>258.60000610352</ele>
        <time>2017-01-25T14:02:48Z</time>
      </trkpt>
      <trkpt lat="43.41286" lon="6.10284">
        <ele>258.60000610352</ele>
        <time>2017-01-25T14:02:58Z</time>
      </trkpt>
      <trkpt lat="43.41288" lon="6.10285">
        <ele>258.60000610352</ele>
        <time>2017-01-25T14:03:08Z</time>
      </trkpt>
      <trkpt lat="43.4129" lon="6.10283">
        <ele>258.60000610352</ele>
        <time>2017-01-25T14:03:18Z</time>
      </trkpt>
      <trkpt lat="43.41291" lon="6.10281">
        <ele>258.60000610352</ele>
        <time>2017-01-25T14:03:28Z</time>
      </trkpt>
      <trkpt lat="43.41291" lon="6.10281">
        <ele>258.60000610352</ele>
        <time>2017-01-25T14:03:38Z</time>
      </trkpt>
      <trkpt lat="43.4129" lon="6.10279">
        <ele>258.60000610352</ele>
        <time>2017-01-25T14:03:48Z</time>
      </trkpt>
      <trkpt lat="43.4129" lon="6.10279">
        <ele>258.60000610352</ele>
        <time>2017-01-25T14:03:54Z</time>
      </trkpt>
      <trkpt lat="43.41289" lon="6.10279">
        <ele>258.60000610352</ele>
        <time>2017-01-25T14:03:58Z</time>
      </trkpt>
      <trkpt lat="43.41289" lon="6.10277">
        <ele>258.60000610352</ele>
        <time>2017-01-25T14:04:08Z</time>
      </trkpt>
      <trkpt lat="43.41286" lon="6.10278">
        <ele>258.60000610352</ele>
        <time>2017-01-25T14:04:18Z</time>
      </trkpt>
      <trkpt lat="43.41288" lon="6.10278">
        <ele>258.60000610352</ele>
        <time>2017-01-25T14:04:28Z</time>
      </trkpt>
      <trkpt lat="43.4129" lon="6.10272">
        <ele>258.60000610352</ele>
        <time>2017-01-25T14:04:48Z</time>
      </trkpt>
      <trkpt lat="43.41291" lon="6.10271">
        <ele>258.60000610352</ele>
        <time>2017-01-25T14:04:58Z</time>
      </trkpt>
      <trkpt lat="43.4129" lon="6.10272">
        <ele>258.60000610352</ele>
        <time>2017-01-25T14:05:08Z</time>
      </trkpt>
      <trkpt lat="43.41293" lon="6.10276">
        <ele>258.60000610352</ele>
        <time>2017-01-25T14:05:18Z</time>
      </trkpt>
      <trkpt lat="43.41294" lon="6.10275">
        <ele>258.60000610352</ele>
        <time>2017-01-25T14:05:38Z</time>
      </trkpt>
      <trkpt lat="43.41293" lon="6.10276">
        <ele>258.60000610352</ele>
        <time>2017-01-25T14:05:48Z</time>
      </trkpt>
      <trkpt lat="43.41292" lon="6.10274">
        <ele>258.60000610352</ele>
        <time>2017-01-25T14:05:58Z</time>
      </trkpt>
      <trkpt lat="43.41293" lon="6.10274">
        <ele>258.60000610352</ele>
        <time>2017-01-25T14:06:08Z</time>
      </trkpt>
      <trkpt lat="43.41293" lon="6.10274">
        <ele>258.60000610352</ele>
        <time>2017-01-25T14:06:18Z</time>
      </trkpt>
      <trkpt lat="43.41289" lon="6.10276">
        <ele>258.60000610352</ele>
        <time>2017-01-25T14:06:28Z</time>
      </trkpt>
      <trkpt lat="43.4129" lon="6.10276">
        <ele>258.60000610352</ele>
        <time>2017-01-25T14:06:38Z</time>
      </trkpt>
      <trkpt lat="43.41288" lon="6.10276">
        <ele>258.60000610352</ele>
        <time>2017-01-25T14:06:48Z</time>
      </trkpt>
      <trkpt lat="43.41288" lon="6.10277">
        <ele>258.60000610352</ele>
        <time>2017-01-25T14:06:58Z</time>
      </trkpt>
      <trkpt lat="43.41289" lon="6.10274">
        <ele>258.60000610352</ele>
        <time>2017-01-25T14:07:08Z</time>
      </trkpt>
      <trkpt lat="43.4129" lon="6.10277">
        <ele>258.60000610352</ele>
        <time>2017-01-25T14:07:18Z</time>
      </trkpt>
      <trkpt lat="43.41291" lon="6.10277">
        <ele>258.60000610352</ele>
        <time>2017-01-25T14:07:28Z</time>
      </trkpt>
      <trkpt lat="43.4129" lon="6.10278">
        <ele>258.60000610352</ele>
        <time>2017-01-25T14:07:38Z</time>
      </trkpt>
      <trkpt lat="43.4129" lon="6.10277">
        <ele>258.60000610352</ele>
        <time>2017-01-25T14:07:48Z</time>
      </trkpt>
      <trkpt lat="43.4129" lon="6.10276">
        <ele>258.60000610352</ele>
        <time>2017-01-25T14:07:58Z</time>
      </trkpt>
      <trkpt lat="43.41291" lon="6.10276">
        <ele>258.60000610352</ele>
        <time>2017-01-25T14:08:08Z</time>
      </trkpt>
      <trkpt lat="43.41292" lon="6.10277">
        <ele>258.60000610352</ele>
        <time>2017-01-25T14:08:18Z</time>
      </trkpt>
      <trkpt lat="43.41291" lon="6.10276">
        <ele>258.60000610352</ele>
        <time>2017-01-25T14:08:28Z</time>
      </trkpt>
      <trkpt lat="43.41291" lon="6.10274">
        <ele>258.60000610352</ele>
        <time>2017-01-25T14:08:38Z</time>
      </trkpt>
      <trkpt lat="43.4129" lon="6.10277">
        <ele>258.60000610352</ele>
        <time>2017-01-25T14:08:48Z</time>
      </trkpt>
      <trkpt lat="43.41291" lon="6.10275">
        <ele>258.60000610352</ele>
        <time>2017-01-25T14:08:58Z</time>
      </trkpt>
      <trkpt lat="43.41291" lon="6.10276">
        <ele>258.60000610352</ele>
        <time>2017-01-25T14:09:08Z</time>
      </trkpt>
      <trkpt lat="43.41292" lon="6.10277">
        <ele>258.60000610352</ele>
        <time>2017-01-25T14:09:15Z</time>
      </trkpt>
      <trkpt lat="43.4129" lon="6.10277">
        <ele>258.60000610352</ele>
        <time>2017-01-25T14:09:18Z</time>
      </trkpt>
      <trkpt lat="43.4129" lon="6.10279">
        <ele>258.60000610352</ele>
        <time>2017-01-25T14:09:28Z</time>
      </trkpt>
      <trkpt lat="43.4129" lon="6.10281">
        <ele>258.60000610352</ele>
        <time>2017-01-25T14:09:38Z</time>
      </trkpt>
      <trkpt lat="43.4129" lon="6.10283">
        <ele>258.60000610352</ele>
        <time>2017-01-25T14:09:48Z</time>
      </trkpt>
      <trkpt lat="43.41292" lon="6.10286">
        <ele>258.60000610352</ele>
        <time>2017-01-25T14:09:58Z</time>
      </trkpt>
      <trkpt lat="43.41294" lon="6.10289">
        <ele>258.60000610352</ele>
        <time>2017-01-25T14:10:08Z</time>
      </trkpt>
      <trkpt lat="43.41295" lon="6.10291">
        <ele>258.60000610352</ele>
        <time>2017-01-25T14:10:11Z</time>
      </trkpt>
      <trkpt lat="43.41297" lon="6.10293">
        <ele>258.79998779297</ele>
        <time>2017-01-25T14:10:13Z</time>
      </trkpt>
      <trkpt lat="43.41302" lon="6.103">
        <ele>259.60000610352</ele>
        <time>2017-01-25T14:10:17Z</time>
      </trkpt>
      <trkpt lat="43.41303" lon="6.10302">
        <ele>260.20001220703</ele>
        <time>2017-01-25T14:10:18Z</time>
      </trkpt>
      <trkpt lat="43.41304" lon="6.10304">
        <ele>260</ele>
        <time>2017-01-25T14:10:20Z</time>
      </trkpt>
      <trkpt lat="43.41306" lon="6.10309">
        <ele>260.39999389648</ele>
        <time>2017-01-25T14:10:23Z</time>
      </trkpt>
      <trkpt lat="43.41307" lon="6.10312">
        <ele>260.79998779297</ele>
        <time>2017-01-25T14:10:25Z</time>
      </trkpt>
      <trkpt lat="43.4131" lon="6.10317">
        <ele>261.39999389648</ele>
        <time>2017-01-25T14:10:28Z</time>
      </trkpt>
      <trkpt lat="43.41311" lon="6.10319">
        <ele>261.60000610352</ele>
        <time>2017-01-25T14:10:29Z</time>
      </trkpt>
      <trkpt lat="43.41317" lon="6.1033">
        <ele>261.79998779297</ele>
        <time>2017-01-25T14:10:33Z</time>
      </trkpt>
      <trkpt lat="43.41322" lon="6.1034">
        <ele>261.79998779297</ele>
        <time>2017-01-25T14:10:36Z</time>
      </trkpt>
      <trkpt lat="43.41326" lon="6.10347">
        <ele>261.60000610352</ele>
        <time>2017-01-25T14:10:38Z</time>
      </trkpt>
      <trkpt lat="43.41335" lon="6.10366">
        <ele>261.79998779297</ele>
        <time>2017-01-25T14:10:44Z</time>
      </trkpt>
      <trkpt lat="43.41339" lon="6.10374">
        <ele>262.39999389648</ele>
        <time>2017-01-25T14:10:47Z</time>
      </trkpt>
      <trkpt lat="43.4134" lon="6.10377">
        <ele>262.60000610352</ele>
        <time>2017-01-25T14:10:48Z</time>
      </trkpt>
      <trkpt lat="43.41344" lon="6.10385">
        <ele>263</ele>
        <time>2017-01-25T14:10:51Z</time>
      </trkpt>
      <trkpt lat="43.41347" lon="6.1039">
        <ele>263</ele>
        <time>2017-01-25T14:10:53Z</time>
      </trkpt>
      <trkpt lat="43.41352" lon="6.10399">
        <ele>263.60000610352</ele>
        <time>2017-01-25T14:10:57Z</time>
      </trkpt>
      <trkpt lat="43.41355" lon="6.10403">
        <ele>264</ele>
        <time>2017-01-25T14:10:59Z</time>
      </trkpt>
      <trkpt lat="43.41368" lon="6.10428">
        <ele>263.60000610352</ele>
        <time>2017-01-25T14:11:08Z</time>
      </trkpt>
      <trkpt lat="43.41381" lon="6.10465">
        <ele>263.60000610352</ele>
        <time>2017-01-25T14:11:18Z</time>
      </trkpt>
      <trkpt lat="43.41383" lon="6.10469">
        <ele>263.60000610352</ele>
        <time>2017-01-25T14:11:19Z</time>
      </trkpt>
      <trkpt lat="43.41396" lon="6.1049">
        <ele>263.20001220703</ele>
        <time>2017-01-25T14:11:24Z</time>
      </trkpt>
      <trkpt lat="43.41398" lon="6.10494">
        <ele>263.20001220703</ele>
        <time>2017-01-25T14:11:25Z</time>
      </trkpt>
      <trkpt lat="43.41404" lon="6.10509">
        <ele>263</ele>
        <time>2017-01-25T14:11:28Z</time>
      </trkpt>
      <trkpt lat="43.41405" lon="6.10514">
        <ele>263</ele>
        <time>2017-01-25T14:11:29Z</time>
      </trkpt>
      <trkpt lat="43.41411" lon="6.10527">
        <ele>263</ele>
        <time>2017-01-25T14:11:32Z</time>
      </trkpt>
      <trkpt lat="43.41413" lon="6.10531">
        <ele>263.20001220703</ele>
        <time>2017-01-25T14:11:33Z</time>
      </trkpt>
      <trkpt lat="43.41423" lon="6.10548">
        <ele>263</ele>
        <time>2017-01-25T14:11:38Z</time>
      </trkpt>
      <trkpt lat="43.41432" lon="6.10565">
        <ele>262.39999389648</ele>
        <time>2017-01-25T14:11:43Z</time>
      </trkpt>
      <trkpt lat="43.41437" lon="6.10566">
        <ele>261.60000610352</ele>
        <time>2017-01-25T14:11:45Z</time>
      </trkpt>
      <trkpt lat="43.41439" lon="6.10568">
        <ele>261.20001220703</ele>
        <time>2017-01-25T14:11:46Z</time>
      </trkpt>
      <trkpt lat="43.41443" lon="6.10576">
        <ele>260.60000610352</ele>
        <time>2017-01-25T14:11:48Z</time>
      </trkpt>
      <trkpt lat="43.41444" lon="6.1058">
        <ele>260.60000610352</ele>
        <time>2017-01-25T14:11:49Z</time>
      </trkpt>
      <trkpt lat="43.41449" lon="6.10597">
        <ele>260</ele>
        <time>2017-01-25T14:11:52Z</time>
      </trkpt>
      <trkpt lat="43.41449" lon="6.10602">
        <ele>259.79998779297</ele>
        <time>2017-01-25T14:11:53Z</time>
      </trkpt>
      <trkpt lat="43.41451" lon="6.10609">
        <ele>259.39999389648</ele>
        <time>2017-01-25T14:11:54Z</time>
      </trkpt>
      <trkpt lat="43.41452" lon="6.10625">
        <ele>258.39999389648</ele>
        <time>2017-01-25T14:11:56Z</time>
      </trkpt>
      <trkpt lat="43.41454" lon="6.10642">
        <ele>257.39999389648</ele>
        <time>2017-01-25T14:11:58Z</time>
      </trkpt>
      <trkpt lat="43.41454" lon="6.10651">
        <ele>256.79998779297</ele>
        <time>2017-01-25T14:11:59Z</time>
      </trkpt>
      <trkpt lat="43.41455" lon="6.10659">
        <ele>256</ele>
        <time>2017-01-25T14:12:00Z</time>
      </trkpt>
      <trkpt lat="43.41456" lon="6.10666">
        <ele>255.39999389648</ele>
        <time>2017-01-25T14:12:01Z</time>
      </trkpt>
      <trkpt lat="43.41457" lon="6.10673">
        <ele>254.60000610352</ele>
        <time>2017-01-25T14:12:02Z</time>
      </trkpt>
      <trkpt lat="43.41458" lon="6.1068">
        <ele>253.80000305176</ele>
        <time>2017-01-25T14:12:03Z</time>
      </trkpt>
      <trkpt lat="43.41459" lon="6.10687">
        <ele>253.39999389648</ele>
        <time>2017-01-25T14:12:04Z</time>
      </trkpt>
      <trkpt lat="43.41462" lon="6.107">
        <ele>252.80000305176</ele>
        <time>2017-01-25T14:12:06Z</time>
      </trkpt>
      <trkpt lat="43.41464" lon="6.10709">
        <ele>252.80000305176</ele>
        <time>2017-01-25T14:12:08Z</time>
      </trkpt>
      <trkpt lat="43.41471" lon="6.10729">
        <ele>254</ele>
        <time>2017-01-25T14:12:13Z</time>
      </trkpt>
      <trkpt lat="43.41475" lon="6.10744">
        <ele>254.39999389648</ele>
        <time>2017-01-25T14:12:16Z</time>
      </trkpt>
      <trkpt lat="43.41477" lon="6.10757">
        <ele>254.39999389648</ele>
        <time>2017-01-25T14:12:18Z</time>
      </trkpt>
      <trkpt lat="43.41479" lon="6.10771">
        <ele>253.80000305176</ele>
        <time>2017-01-25T14:12:20Z</time>
      </trkpt>
      <trkpt lat="43.41479" lon="6.10777">
        <ele>253.19999694824</ele>
        <time>2017-01-25T14:12:21Z</time>
      </trkpt>
      <trkpt lat="43.41478" lon="6.10782">
        <ele>252.60000610352</ele>
        <time>2017-01-25T14:12:22Z</time>
      </trkpt>
      <trkpt lat="43.41477" lon="6.10787">
        <ele>252.19999694824</ele>
        <time>2017-01-25T14:12:23Z</time>
      </trkpt>
      <trkpt lat="43.41475" lon="6.10792">
        <ele>252</ele>
        <time>2017-01-25T14:12:24Z</time>
      </trkpt>
      <trkpt lat="43.41474" lon="6.10797">
        <ele>251.80000305176</ele>
        <time>2017-01-25T14:12:25Z</time>
      </trkpt>
      <trkpt lat="43.41471" lon="6.10808">
        <ele>251.39999389648</ele>
        <time>2017-01-25T14:12:27Z</time>
      </trkpt>
      <trkpt lat="43.41469" lon="6.10813">
        <ele>251.39999389648</ele>
        <time>2017-01-25T14:12:28Z</time>
      </trkpt>
      <trkpt lat="43.41455" lon="6.10845">
        <ele>250.39999389648</ele>
        <time>2017-01-25T14:12:34Z</time>
      </trkpt>
      <trkpt lat="43.41453" lon="6.10848">
        <ele>250.39999389648</ele>
        <time>2017-01-25T14:12:35Z</time>
      </trkpt>
      <trkpt lat="43.41443" lon="6.10854">
        <ele>249.80000305176</ele>
        <time>2017-01-25T14:12:38Z</time>
      </trkpt>
      <trkpt lat="43.41436" lon="6.10855">
        <ele>249.19999694824</ele>
        <time>2017-01-25T14:12:40Z</time>
      </trkpt>
      <trkpt lat="43.41431" lon="6.10854">
        <ele>248.80000305176</ele>
        <time>2017-01-25T14:12:41Z</time>
      </trkpt>
      <trkpt lat="43.41423" lon="6.10854">
        <ele>248.19999694824</ele>
        <time>2017-01-25T14:12:43Z</time>
      </trkpt>
      <trkpt lat="43.41415" lon="6.10855">
        <ele>247.19999694824</ele>
        <time>2017-01-25T14:12:45Z</time>
      </trkpt>
      <trkpt lat="43.4141" lon="6.10854">
        <ele>245.39999389648</ele>
        <time>2017-01-25T14:12:47Z</time>
      </trkpt>
      <trkpt lat="43.41406" lon="6.10854">
        <ele>244.80000305176</ele>
        <time>2017-01-25T14:12:48Z</time>
      </trkpt>
      <trkpt lat="43.41394" lon="6.10859">
        <ele>243</ele>
        <time>2017-01-25T14:12:52Z</time>
      </trkpt>
      <trkpt lat="43.41389" lon="6.10862">
        <ele>241.60000610352</ele>
        <time>2017-01-25T14:12:54Z</time>
      </trkpt>
      <trkpt lat="43.41383" lon="6.10864">
        <ele>240.39999389648</ele>
        <time>2017-01-25T14:12:57Z</time>
      </trkpt>
      <trkpt lat="43.41382" lon="6.10866">
        <ele>240.19999694824</ele>
        <time>2017-01-25T14:12:58Z</time>
      </trkpt>
      <trkpt lat="43.41371" lon="6.10873">
        <ele>237.39999389648</ele>
        <time>2017-01-25T14:13:02Z</time>
      </trkpt>
      <trkpt lat="43.41369" lon="6.10876">
        <ele>236.19999694824</ele>
        <time>2017-01-25T14:13:03Z</time>
      </trkpt>
      <trkpt lat="43.41364" lon="6.1088">
        <ele>235.19999694824</ele>
        <time>2017-01-25T14:13:05Z</time>
      </trkpt>
      <trkpt lat="43.41358" lon="6.10888">
        <ele>232.80000305176</ele>
        <time>2017-01-25T14:13:08Z</time>
      </trkpt>
      <trkpt lat="43.41354" lon="6.10899">
        <ele>230</ele>
        <time>2017-01-25T14:13:11Z</time>
      </trkpt>
      <trkpt lat="43.41351" lon="6.10905">
        <ele>228.39999389648</ele>
        <time>2017-01-25T14:13:13Z</time>
      </trkpt>
      <trkpt lat="43.41346" lon="6.10912">
        <ele>227.39999389648</ele>
        <time>2017-01-25T14:13:15Z</time>
      </trkpt>
      <trkpt lat="43.41336" lon="6.10924">
        <ele>226</ele>
        <time>2017-01-25T14:13:18Z</time>
      </trkpt>
      <trkpt lat="43.41332" lon="6.10932">
        <ele>224.39999389648</ele>
        <time>2017-01-25T14:13:20Z</time>
      </trkpt>
      <trkpt lat="43.4133" lon="6.10937">
        <ele>223.80000305176</ele>
        <time>2017-01-25T14:13:21Z</time>
      </trkpt>
      <trkpt lat="43.41328" lon="6.1094">
        <ele>223.19999694824</ele>
        <time>2017-01-25T14:13:22Z</time>
      </trkpt>
      <trkpt lat="43.41316" lon="6.10956">
        <ele>222</ele>
        <time>2017-01-25T14:13:26Z</time>
      </trkpt>
      <trkpt lat="43.4131" lon="6.10962">
        <ele>221.19999694824</ele>
        <time>2017-01-25T14:13:28Z</time>
      </trkpt>
      <trkpt lat="43.41307" lon="6.10965">
        <ele>220.39999389648</ele>
        <time>2017-01-25T14:13:29Z</time>
      </trkpt>
      <trkpt lat="43.41305" lon="6.10971">
        <ele>218.80000305176</ele>
        <time>2017-01-25T14:13:31Z</time>
      </trkpt>
      <trkpt lat="43.41304" lon="6.10974">
        <ele>218.39999389648</ele>
        <time>2017-01-25T14:13:32Z</time>
      </trkpt>
      <trkpt lat="43.41302" lon="6.10983">
        <ele>217.60000610352</ele>
        <time>2017-01-25T14:13:34Z</time>
      </trkpt>
      <trkpt lat="43.41301" lon="6.10986">
        <ele>217.19999694824</ele>
        <time>2017-01-25T14:13:35Z</time>
      </trkpt>
      <trkpt lat="43.413" lon="6.1099">
        <ele>216.39999389648</ele>
        <time>2017-01-25T14:13:37Z</time>
      </trkpt>
      <trkpt lat="43.41298" lon="6.10993">
        <ele>216</ele>
        <time>2017-01-25T14:13:38Z</time>
      </trkpt>
      <trkpt lat="43.41296" lon="6.11">
        <ele>215.19999694824</ele>
        <time>2017-01-25T14:13:40Z</time>
      </trkpt>
      <trkpt lat="43.41294" lon="6.11003">
        <ele>214.60000610352</ele>
        <time>2017-01-25T14:13:41Z</time>
      </trkpt>
      <trkpt lat="43.41293" lon="6.11007">
        <ele>214</ele>
        <time>2017-01-25T14:13:42Z</time>
      </trkpt>
      <trkpt lat="43.41292" lon="6.11015">
        <ele>212.19999694824</ele>
        <time>2017-01-25T14:13:44Z</time>
      </trkpt>
      <trkpt lat="43.41292" lon="6.11025">
        <ele>211</ele>
        <time>2017-01-25T14:13:46Z</time>
      </trkpt>
      <trkpt lat="43.41291" lon="6.11034">
        <ele>209.39999389648</ele>
        <time>2017-01-25T14:13:48Z</time>
      </trkpt>
      <trkpt lat="43.41291" lon="6.11043">
        <ele>207.80000305176</ele>
        <time>2017-01-25T14:13:50Z</time>
      </trkpt>
      <trkpt lat="43.41288" lon="6.11053">
        <ele>206.39999389648</ele>
        <time>2017-01-25T14:13:53Z</time>
      </trkpt>
      <trkpt lat="43.41285" lon="6.11058">
        <ele>205.19999694824</ele>
        <time>2017-01-25T14:13:55Z</time>
      </trkpt>
      <trkpt lat="43.41276" lon="6.11065">
        <ele>203.39999389648</ele>
        <time>2017-01-25T14:13:58Z</time>
      </trkpt>
      <trkpt lat="43.41271" lon="6.11067">
        <ele>202.80000305176</ele>
        <time>2017-01-25T14:13:59Z</time>
      </trkpt>
      <trkpt lat="43.41261" lon="6.11069">
        <ele>201.60000610352</ele>
        <time>2017-01-25T14:14:01Z</time>
      </trkpt>
      <trkpt lat="43.41248" lon="6.11076">
        <ele>200.39999389648</ele>
        <time>2017-01-25T14:14:04Z</time>
      </trkpt>
      <trkpt lat="43.41241" lon="6.11082">
        <ele>199.39999389648</ele>
        <time>2017-01-25T14:14:08Z</time>
      </trkpt>
      <trkpt lat="43.4124" lon="6.11083">
        <ele>199.39999389648</ele>
        <time>2017-01-25T14:14:10Z</time>
      </trkpt>
      <trkpt lat="43.4124" lon="6.11082">
        <ele>199.19999694824</ele>
        <time>2017-01-25T14:14:13Z</time>
      </trkpt>
      <trkpt lat="43.4124" lon="6.11082">
        <ele>199.19999694824</ele>
        <time>2017-01-25T14:14:15Z</time>
      </trkpt>
      <trkpt lat="43.4124" lon="6.11082">
        <ele>199.19999694824</ele>
        <time>2017-01-25T14:14:16Z</time>
      </trkpt>
      <trkpt lat="43.4124" lon="6.11082">
        <ele>199.19999694824</ele>
        <time>2017-01-25T14:14:19Z</time>
      </trkpt>
      <trkpt lat="43.4124" lon="6.11082">
        <ele>199.19999694824</ele>
        <time>2017-01-25T14:14:21Z</time>
      </trkpt>
      <trkpt lat="43.4124" lon="6.11082">
        <ele>199.19999694824</ele>
        <time>2017-01-25T14:14:23Z</time>
      </trkpt>
      <trkpt lat="43.41239" lon="6.11082">
        <ele>199.19999694824</ele>
        <time>2017-01-25T14:14:27Z</time>
      </trkpt>
      <trkpt lat="43.41239" lon="6.11082">
        <ele>199.19999694824</ele>
        <time>2017-01-25T14:14:28Z</time>
      </trkpt>
      <trkpt lat="43.41239" lon="6.11082">
        <ele>199.19999694824</ele>
        <time>2017-01-25T14:14:38Z</time>
      </trkpt>
      <trkpt lat="43.41239" lon="6.11082">
        <ele>199.19999694824</ele>
        <time>2017-01-25T14:14:58Z</time>
      </trkpt>
      <trkpt lat="43.41238" lon="6.11082">
        <ele>199.19999694824</ele>
        <time>2017-01-25T14:15:06Z</time>
      </trkpt>
      <trkpt lat="43.41235" lon="6.11082">
        <ele>199.19999694824</ele>
        <time>2017-01-25T14:15:08Z</time>
      </trkpt>
      <trkpt lat="43.41233" lon="6.11082">
        <ele>199.19999694824</ele>
        <time>2017-01-25T14:15:09Z</time>
      </trkpt>
      <trkpt lat="43.41212" lon="6.11082">
        <ele>198.39999389648</ele>
        <time>2017-01-25T14:15:16Z</time>
      </trkpt>
      <trkpt lat="43.41205" lon="6.11083">
        <ele>198.19999694824</ele>
        <time>2017-01-25T14:15:18Z</time>
      </trkpt>
      <trkpt lat="43.41198" lon="6.11083">
        <ele>198.19999694824</ele>
        <time>2017-01-25T14:15:20Z</time>
      </trkpt>
      <trkpt lat="43.41169" lon="6.11081">
        <ele>198.39999389648</ele>
        <time>2017-01-25T14:15:28Z</time>
      </trkpt>
      <trkpt lat="43.41137" lon="6.11071">
        <ele>199.19999694824</ele>
        <time>2017-01-25T14:15:37Z</time>
      </trkpt>
      <trkpt lat="43.41133" lon="6.11071">
        <ele>199</ele>
        <time>2017-01-25T14:15:38Z</time>
      </trkpt>
      <trkpt lat="43.4113" lon="6.1107">
        <ele>199</ele>
        <time>2017-01-25T14:15:39Z</time>
      </trkpt>
      <trkpt lat="43.41122" lon="6.11067">
        <ele>199.19999694824</ele>
        <time>2017-01-25T14:15:41Z</time>
      </trkpt>
      <trkpt lat="43.41098" lon="6.11058">
        <ele>199</ele>
        <time>2017-01-25T14:15:48Z</time>
      </trkpt>
      <trkpt lat="43.41058" lon="6.11044">
        <ele>198.80000305176</ele>
        <time>2017-01-25T14:15:58Z</time>
      </trkpt>
      <trkpt lat="43.41034" lon="6.11035">
        <ele>199.39999389648</ele>
        <time>2017-01-25T14:16:04Z</time>
      </trkpt>
      <trkpt lat="43.41018" lon="6.11029">
        <ele>199.39999389648</ele>
        <time>2017-01-25T14:16:08Z</time>
      </trkpt>
      <trkpt lat="43.40987" lon="6.1102">
        <ele>200.39999389648</ele>
        <time>2017-01-25T14:16:16Z</time>
      </trkpt>
      <trkpt lat="43.4098" lon="6.11018">
        <ele>200.19999694824</ele>
        <time>2017-01-25T14:16:18Z</time>
      </trkpt>
      <trkpt lat="43.40967" lon="6.11016">
        <ele>200.39999389648</ele>
        <time>2017-01-25T14:16:22Z</time>
      </trkpt>
      <trkpt lat="43.40965" lon="6.11016">
        <ele>200.60000610352</ele>
        <time>2017-01-25T14:16:23Z</time>
      </trkpt>
      <trkpt lat="43.40954" lon="6.11017">
        <ele>201.19999694824</ele>
        <time>2017-01-25T14:16:27Z</time>
      </trkpt>
      <trkpt lat="43.40952" lon="6.11018">
        <ele>201.19999694824</ele>
        <time>2017-01-25T14:16:28Z</time>
      </trkpt>
      <trkpt lat="43.40939" lon="6.11018">
        <ele>201.39999389648</ele>
        <time>2017-01-25T14:16:33Z</time>
      </trkpt>
      <trkpt lat="43.40924" lon="6.11013">
        <ele>201.80000305176</ele>
        <time>2017-01-25T14:16:38Z</time>
      </trkpt>
      <trkpt lat="43.40915" lon="6.1101">
        <ele>201.80000305176</ele>
        <time>2017-01-25T14:16:41Z</time>
      </trkpt>
      <trkpt lat="43.40896" lon="6.11004">
        <ele>201.80000305176</ele>
        <time>2017-01-25T14:16:48Z</time>
      </trkpt>
      <trkpt lat="43.40894" lon="6.11003">
        <ele>201.80000305176</ele>
        <time>2017-01-25T14:16:49Z</time>
      </trkpt>
      <trkpt lat="43.40887" lon="6.11003">
        <ele>202</ele>
        <time>2017-01-25T14:16:53Z</time>
      </trkpt>
      <trkpt lat="43.40886" lon="6.11005">
        <ele>202.19999694824</ele>
        <time>2017-01-25T14:16:54Z</time>
      </trkpt>
      <trkpt lat="43.40887" lon="6.1101">
        <ele>202.60000610352</ele>
        <time>2017-01-25T14:16:58Z</time>
      </trkpt>
      <trkpt lat="43.40885" lon="6.11032">
        <ele>202.60000610352</ele>
        <time>2017-01-25T14:17:08Z</time>
      </trkpt>
      <trkpt lat="43.40885" lon="6.11036">
        <ele>202.60000610352</ele>
        <time>2017-01-25T14:17:10Z</time>
      </trkpt>
      <trkpt lat="43.40885" lon="6.1104">
        <ele>202.39999389648</ele>
        <time>2017-01-25T14:17:12Z</time>
      </trkpt>
      <trkpt lat="43.40885" lon="6.11045">
        <ele>202.39999389648</ele>
        <time>2017-01-25T14:17:14Z</time>
      </trkpt>
      <trkpt lat="43.40887" lon="6.11051">
        <ele>202.60000610352</ele>
        <time>2017-01-25T14:17:17Z</time>
      </trkpt>
      <trkpt lat="43.40889" lon="6.11053">
        <ele>202.60000610352</ele>
        <time>2017-01-25T14:17:18Z</time>
      </trkpt>
      <trkpt lat="43.40893" lon="6.11057">
        <ele>202.60000610352</ele>
        <time>2017-01-25T14:17:20Z</time>
      </trkpt>
      <trkpt lat="43.40895" lon="6.11059">
        <ele>202.39999389648</ele>
        <time>2017-01-25T14:17:21Z</time>
      </trkpt>
      <trkpt lat="43.40916" lon="6.11077">
        <ele>202</ele>
        <time>2017-01-25T14:17:28Z</time>
      </trkpt>
      <trkpt lat="43.40944" lon="6.1109">
        <ele>201.60000610352</ele>
        <time>2017-01-25T14:17:36Z</time>
      </trkpt>
      <trkpt lat="43.40952" lon="6.11091">
        <ele>201.39999389648</ele>
        <time>2017-01-25T14:17:38Z</time>
      </trkpt>
      <trkpt lat="43.40967" lon="6.11091">
        <ele>201.19999694824</ele>
        <time>2017-01-25T14:17:42Z</time>
      </trkpt>
      <trkpt lat="43.4099" lon="6.11088">
        <ele>201</ele>
        <time>2017-01-25T14:17:48Z</time>
      </trkpt>
      <trkpt lat="43.41001" lon="6.11091">
        <ele>201</ele>
        <time>2017-01-25T14:17:51Z</time>
      </trkpt>
      <trkpt lat="43.41021" lon="6.1111">
        <ele>201.60000610352</ele>
        <time>2017-01-25T14:17:58Z</time>
      </trkpt>
      <trkpt lat="43.41039" lon="6.11136">
        <ele>201.80000305176</ele>
        <time>2017-01-25T14:18:05Z</time>
      </trkpt>
      <trkpt lat="43.41046" lon="6.11151">
        <ele>201.60000610352</ele>
        <time>2017-01-25T14:18:08Z</time>
      </trkpt>
      <trkpt lat="43.41051" lon="6.11161">
        <ele>201.60000610352</ele>
        <time>2017-01-25T14:18:10Z</time>
      </trkpt>
      <trkpt lat="43.41068" lon="6.11186">
        <ele>201.39999389648</ele>
        <time>2017-01-25T14:18:16Z</time>
      </trkpt>
      <trkpt lat="43.41073" lon="6.11193">
        <ele>201.39999389648</ele>
        <time>2017-01-25T14:18:18Z</time>
      </trkpt>
      <trkpt lat="43.41097" lon="6.11196">
        <ele>202.60000610352</ele>
        <time>2017-01-25T14:18:25Z</time>
      </trkpt>
      <trkpt lat="43.41103" lon="6.11199">
        <ele>202.80000305176</ele>
        <time>2017-01-25T14:18:27Z</time>
      </trkpt>
      <trkpt lat="43.41105" lon="6.11202">
        <ele>203</ele>
        <time>2017-01-25T14:18:28Z</time>
      </trkpt>
      <trkpt lat="43.4111" lon="6.1123">
        <ele>203</ele>
        <time>2017-01-25T14:18:34Z</time>
      </trkpt>
      <trkpt lat="43.41107" lon="6.11249">
        <ele>203.19999694824</ele>
        <time>2017-01-25T14:18:38Z</time>
      </trkpt>
      <trkpt lat="43.411" lon="6.11279">
        <ele>203.60000610352</ele>
        <time>2017-01-25T14:18:44Z</time>
      </trkpt>
      <trkpt lat="43.41096" lon="6.11298">
        <ele>203.80000305176</ele>
        <time>2017-01-25T14:18:48Z</time>
      </trkpt>
      <trkpt lat="43.41093" lon="6.11343">
        <ele>205.19999694824</ele>
        <time>2017-01-25T14:18:58Z</time>
      </trkpt>
      <trkpt lat="43.4109" lon="6.11364">
        <ele>205.80000305176</ele>
        <time>2017-01-25T14:19:03Z</time>
      </trkpt>
      <trkpt lat="43.41087" lon="6.11385">
        <ele>206.19999694824</ele>
        <time>2017-01-25T14:19:08Z</time>
      </trkpt>
      <trkpt lat="43.41085" lon="6.1142">
        <ele>206.60000610352</ele>
        <time>2017-01-25T14:19:18Z</time>
      </trkpt>
      <trkpt lat="43.41085" lon="6.11427">
        <ele>206.60000610352</ele>
        <time>2017-01-25T14:19:20Z</time>
      </trkpt>
      <trkpt lat="43.41087" lon="6.11437">
        <ele>206.39999389648</ele>
        <time>2017-01-25T14:19:28Z</time>
      </trkpt>
      <trkpt lat="43.41086" lon="6.11437">
        <ele>206.39999389648</ele>
        <time>2017-01-25T14:19:31Z</time>
      </trkpt>
      <trkpt lat="43.41086" lon="6.11438">
        <ele>206.39999389648</ele>
        <time>2017-01-25T14:19:34Z</time>
      </trkpt>
      <trkpt lat="43.41086" lon="6.11438">
        <ele>206.39999389648</ele>
        <time>2017-01-25T14:19:38Z</time>
      </trkpt>
      <trkpt lat="43.41086" lon="6.11438">
        <ele>206.39999389648</ele>
        <time>2017-01-25T14:19:41Z</time>
      </trkpt>
      <trkpt lat="43.41086" lon="6.11438">
        <ele>206.19999694824</ele>
        <time>2017-01-25T14:19:44Z</time>
      </trkpt>
      <trkpt lat="43.41086" lon="6.11438">
        <ele>206.39999389648</ele>
        <time>2017-01-25T14:19:48Z</time>
      </trkpt>
      <trkpt lat="43.41086" lon="6.11438">
        <ele>206.60000610352</ele>
        <time>2017-01-25T14:19:52Z</time>
      </trkpt>
      <trkpt lat="43.41085" lon="6.11438">
        <ele>206.80000305176</ele>
        <time>2017-01-25T14:19:56Z</time>
      </trkpt>
      <trkpt lat="43.41086" lon="6.11438">
        <ele>206.60000610352</ele>
        <time>2017-01-25T14:19:58Z</time>
      </trkpt>
      <trkpt lat="43.41086" lon="6.11438">
        <ele>206.60000610352</ele>
        <time>2017-01-25T14:20:08Z</time>
      </trkpt>
      <trkpt lat="43.41085" lon="6.11438">
        <ele>206.60000610352</ele>
        <time>2017-01-25T14:20:18Z</time>
      </trkpt>
      <trkpt lat="43.41085" lon="6.11439">
        <ele>206.60000610352</ele>
        <time>2017-01-25T14:20:28Z</time>
      </trkpt>
      <trkpt lat="43.41085" lon="6.1144">
        <ele>206.39999389648</ele>
        <time>2017-01-25T14:20:38Z</time>
      </trkpt>
      <trkpt lat="43.41084" lon="6.1144">
        <ele>206.39999389648</ele>
        <time>2017-01-25T14:20:48Z</time>
      </trkpt>
      <trkpt lat="43.41084" lon="6.11441">
        <ele>206.39999389648</ele>
        <time>2017-01-25T14:20:58Z</time>
      </trkpt>
      <trkpt lat="43.41083" lon="6.11442">
        <ele>206.39999389648</ele>
        <time>2017-01-25T14:21:18Z</time>
      </trkpt>
      <trkpt lat="43.41083" lon="6.11442">
        <ele>206.39999389648</ele>
        <time>2017-01-25T14:21:28Z</time>
      </trkpt>
      <trkpt lat="43.41084" lon="6.11442">
        <ele>206</ele>
        <time>2017-01-25T14:21:38Z</time>
      </trkpt>
      <trkpt lat="43.41084" lon="6.11447">
        <ele>205.80000305176</ele>
        <time>2017-01-25T14:21:44Z</time>
      </trkpt>
      <trkpt lat="43.41085" lon="6.11454">
        <ele>205.60000610352</ele>
        <time>2017-01-25T14:21:48Z</time>
      </trkpt>
      <trkpt lat="43.41089" lon="6.11478">
        <ele>205.60000610352</ele>
        <time>2017-01-25T14:21:58Z</time>
      </trkpt>
      <trkpt lat="43.4109" lon="6.1148">
        <ele>205.39999389648</ele>
        <time>2017-01-25T14:21:59Z</time>
      </trkpt>
      <trkpt lat="43.4109" lon="6.11487">
        <ele>205.19999694824</ele>
        <time>2017-01-25T14:22:04Z</time>
      </trkpt>
      <trkpt lat="43.4109" lon="6.11488">
        <ele>205.39999389648</ele>
        <time>2017-01-25T14:22:08Z</time>
      </trkpt>
      <trkpt lat="43.4109" lon="6.11488">
        <ele>205</ele>
        <time>2017-01-25T14:22:18Z</time>
      </trkpt>
      <trkpt lat="43.41089" lon="6.11487">
        <ele>205.39999389648</ele>
        <time>2017-01-25T14:22:28Z</time>
      </trkpt>
      <trkpt lat="43.41089" lon="6.11488">
        <ele>205.39999389648</ele>
        <time>2017-01-25T14:22:38Z</time>
      </trkpt>
      <trkpt lat="43.4109" lon="6.1149">
        <ele>205.39999389648</ele>
        <time>2017-01-25T14:22:42Z</time>
      </trkpt>
      <trkpt lat="43.41093" lon="6.11494">
        <ele>205.19999694824</ele>
        <time>2017-01-25T14:22:44Z</time>
      </trkpt>
      <trkpt lat="43.41106" lon="6.115">
        <ele>205</ele>
        <time>2017-01-25T14:22:48Z</time>
      </trkpt>
      <trkpt lat="43.4111" lon="6.11501">
        <ele>205</ele>
        <time>2017-01-25T14:22:49Z</time>
      </trkpt>
      <trkpt lat="43.41114" lon="6.11504">
        <ele>204.80000305176</ele>
        <time>2017-01-25T14:22:50Z</time>
      </trkpt>
      <trkpt lat="43.41118" lon="6.11507">
        <ele>204.60000610352</ele>
        <time>2017-01-25T14:22:51Z</time>
      </trkpt>
      <trkpt lat="43.41125" lon="6.11514">
        <ele>204</ele>
        <time>2017-01-25T14:22:53Z</time>
      </trkpt>
      <trkpt lat="43.41131" lon="6.11524">
        <ele>203.60000610352</ele>
        <time>2017-01-25T14:22:55Z</time>
      </trkpt>
      <trkpt lat="43.4114" lon="6.11537">
        <ele>203.60000610352</ele>
        <time>2017-01-25T14:22:58Z</time>
      </trkpt>
      <trkpt lat="43.41164" lon="6.11583">
        <ele>203.60000610352</ele>
        <time>2017-01-25T14:23:08Z</time>
      </trkpt>
      <trkpt lat="43.41168" lon="6.11613">
        <ele>203.80000305176</ele>
        <time>2017-01-25T14:23:14Z</time>
      </trkpt>
      <trkpt lat="43.41171" lon="6.11631">
        <ele>204.19999694824</ele>
        <time>2017-01-25T14:23:18Z</time>
      </trkpt>
      <trkpt lat="43.41174" lon="6.11644">
        <ele>204.60000610352</ele>
        <time>2017-01-25T14:23:21Z</time>
      </trkpt>
      <trkpt lat="43.4119" lon="6.11667">
        <ele>204.80000305176</ele>
        <time>2017-01-25T14:23:28Z</time>
      </trkpt>
      <trkpt lat="43.4122" lon="6.11667">
        <ele>205</ele>
        <time>2017-01-25T14:23:37Z</time>
      </trkpt>
      <trkpt lat="43.41223" lon="6.11664">
        <ele>205</ele>
        <time>2017-01-25T14:23:38Z</time>
      </trkpt>
      <trkpt lat="43.41258" lon="6.11625">
        <ele>203.80000305176</ele>
        <time>2017-01-25T14:23:48Z</time>
      </trkpt>
      <trkpt lat="43.41262" lon="6.11621">
        <ele>203.60000610352</ele>
        <time>2017-01-25T14:23:49Z</time>
      </trkpt>
      <trkpt lat="43.41289" lon="6.11592">
        <ele>202.39999389648</ele>
        <time>2017-01-25T14:23:56Z</time>
      </trkpt>
      <trkpt lat="43.4131" lon="6.1157">
        <ele>202.19999694824</ele>
        <time>2017-01-25T14:24:02Z</time>
      </trkpt>
      <trkpt lat="43.41318" lon="6.11565">
        <ele>202.39999389648</ele>
        <time>2017-01-25T14:24:04Z</time>
      </trkpt>
      <trkpt lat="43.41335" lon="6.11561">
        <ele>202.39999389648</ele>
        <time>2017-01-25T14:24:08Z</time>
      </trkpt>
      <trkpt lat="43.41369" lon="6.11539">
        <ele>202</ele>
        <time>2017-01-25T14:24:18Z</time>
      </trkpt>
      <trkpt lat="43.41361" lon="6.11484">
        <ele>201.60000610352</ele>
        <time>2017-01-25T14:24:28Z</time>
      </trkpt>
      <trkpt lat="43.41358" lon="6.11458">
        <ele>201.39999389648</ele>
        <time>2017-01-25T14:24:32Z</time>
      </trkpt>
      <trkpt lat="43.4136" lon="6.11419">
        <ele>200.39999389648</ele>
        <time>2017-01-25T14:24:38Z</time>
      </trkpt>
      <trkpt lat="43.41375" lon="6.1136">
        <ele>200</ele>
        <time>2017-01-25T14:24:48Z</time>
      </trkpt>
      <trkpt lat="43.41378" lon="6.11346">
        <ele>199.80000305176</ele>
        <time>2017-01-25T14:24:50Z</time>
      </trkpt>
      <trkpt lat="43.41379" lon="6.11338">
        <ele>199.60000610352</ele>
        <time>2017-01-25T14:24:51Z</time>
      </trkpt>
      <trkpt lat="43.4138" lon="6.1133">
        <ele>199.19999694824</ele>
        <time>2017-01-25T14:24:52Z</time>
      </trkpt>
      <trkpt lat="43.4138" lon="6.11314">
        <ele>198</ele>
        <time>2017-01-25T14:24:54Z</time>
      </trkpt>
      <trkpt lat="43.41382" lon="6.11288">
        <ele>197</ele>
        <time>2017-01-25T14:24:58Z</time>
      </trkpt>
      <trkpt lat="43.41384" lon="6.11249">
        <ele>196</ele>
        <time>2017-01-25T14:25:07Z</time>
      </trkpt>
      <trkpt lat="43.41386" lon="6.11244">
        <ele>195.80000305176</ele>
        <time>2017-01-25T14:25:08Z</time>
      </trkpt>
      <trkpt lat="43.41388" lon="6.11239">
        <ele>195.60000610352</ele>
        <time>2017-01-25T14:25:09Z</time>
      </trkpt>
      <trkpt lat="43.4141" lon="6.11198">
        <ele>194.60000610352</ele>
        <time>2017-01-25T14:25:17Z</time>
      </trkpt>
      <trkpt lat="43.41413" lon="6.11193">
        <ele>194.19999694824</ele>
        <time>2017-01-25T14:25:18Z</time>
      </trkpt>
      <trkpt lat="43.41428" lon="6.11174">
        <ele>193.60000610352</ele>
        <time>2017-01-25T14:25:23Z</time>
      </trkpt>
      <trkpt lat="43.41446" lon="6.11168">
        <ele>193</ele>
        <time>2017-01-25T14:25:28Z</time>
      </trkpt>
      <trkpt lat="43.41489" lon="6.11163">
        <ele>192.80000305176</ele>
        <time>2017-01-25T14:25:38Z</time>
      </trkpt>
      <trkpt lat="43.41507" lon="6.11158">
        <ele>193.19999694824</ele>
        <time>2017-01-25T14:25:42Z</time>
      </trkpt>
      <trkpt lat="43.41512" lon="6.11156">
        <ele>193.19999694824</ele>
        <time>2017-01-25T14:25:43Z</time>
      </trkpt>
      <trkpt lat="43.41531" lon="6.11142">
        <ele>193</ele>
        <time>2017-01-25T14:25:48Z</time>
      </trkpt>
      <trkpt lat="43.41534" lon="6.1114">
        <ele>193</ele>
        <time>2017-01-25T14:25:49Z</time>
      </trkpt>
      <trkpt lat="43.41543" lon="6.11137">
        <ele>193</ele>
        <time>2017-01-25T14:25:51Z</time>
      </trkpt>
      <trkpt lat="43.41554" lon="6.11129">
        <ele>193.19999694824</ele>
        <time>2017-01-25T14:25:54Z</time>
      </trkpt>
      <trkpt lat="43.41571" lon="6.11111">
        <ele>193</ele>
        <time>2017-01-25T14:25:59Z</time>
      </trkpt>
      <trkpt lat="43.41578" lon="6.11103">
        <ele>192.60000610352</ele>
        <time>2017-01-25T14:26:01Z</time>
      </trkpt>
      <trkpt lat="43.41582" lon="6.11093">
        <ele>192.60000610352</ele>
        <time>2017-01-25T14:26:03Z</time>
      </trkpt>
      <trkpt lat="43.41587" lon="6.11082">
        <ele>192.60000610352</ele>
        <time>2017-01-25T14:26:06Z</time>
      </trkpt>
      <trkpt lat="43.41589" lon="6.11078">
        <ele>192.60000610352</ele>
        <time>2017-01-25T14:26:08Z</time>
      </trkpt>
      <trkpt lat="43.41594" lon="6.11066">
        <ele>192.39999389648</ele>
        <time>2017-01-25T14:26:14Z</time>
      </trkpt>
      <trkpt lat="43.41595" lon="6.11061">
        <ele>192.39999389648</ele>
        <time>2017-01-25T14:26:16Z</time>
      </trkpt>
      <trkpt lat="43.41597" lon="6.11057">
        <ele>192.39999389648</ele>
        <time>2017-01-25T14:26:18Z</time>
      </trkpt>
      <trkpt lat="43.41597" lon="6.11053">
        <ele>192.39999389648</ele>
        <time>2017-01-25T14:26:20Z</time>
      </trkpt>
      <trkpt lat="43.41599" lon="6.11038">
        <ele>191.80000305176</ele>
        <time>2017-01-25T14:26:28Z</time>
      </trkpt>
      <trkpt lat="43.41599" lon="6.11031">
        <ele>191.80000305176</ele>
        <time>2017-01-25T14:26:31Z</time>
      </trkpt>
      <trkpt lat="43.41598" lon="6.11024">
        <ele>191.39999389648</ele>
        <time>2017-01-25T14:26:33Z</time>
      </trkpt>
      <trkpt lat="43.41598" lon="6.11012">
        <ele>191.19999694824</ele>
        <time>2017-01-25T14:26:36Z</time>
      </trkpt>
      <trkpt lat="43.41599" lon="6.11005">
        <ele>190.80000305176</ele>
        <time>2017-01-25T14:26:38Z</time>
      </trkpt>
      <trkpt lat="43.41607" lon="6.10971">
        <ele>190.39999389648</ele>
        <time>2017-01-25T14:26:46Z</time>
      </trkpt>
      <trkpt lat="43.41608" lon="6.10966">
        <ele>190.19999694824</ele>
        <time>2017-01-25T14:26:47Z</time>
      </trkpt>
      <trkpt lat="43.4161" lon="6.10961">
        <ele>190.19999694824</ele>
        <time>2017-01-25T14:26:48Z</time>
      </trkpt>
      <trkpt lat="43.41611" lon="6.10956">
        <ele>190</ele>
        <time>2017-01-25T14:26:49Z</time>
      </trkpt>
      <trkpt lat="43.41612" lon="6.10948">
        <ele>189.80000305176</ele>
        <time>2017-01-25T14:26:51Z</time>
      </trkpt>
      <trkpt lat="43.41612" lon="6.10944">
        <ele>189.60000610352</ele>
        <time>2017-01-25T14:26:52Z</time>
      </trkpt>
      <trkpt lat="43.41611" lon="6.1094">
        <ele>189.60000610352</ele>
        <time>2017-01-25T14:26:53Z</time>
      </trkpt>
      <trkpt lat="43.41611" lon="6.10936">
        <ele>189.39999389648</ele>
        <time>2017-01-25T14:26:54Z</time>
      </trkpt>
      <trkpt lat="43.41611" lon="6.10919">
        <ele>189.19999694824</ele>
        <time>2017-01-25T14:26:58Z</time>
      </trkpt>
      <trkpt lat="43.4161" lon="6.10895">
        <ele>188.19999694824</ele>
        <time>2017-01-25T14:27:03Z</time>
      </trkpt>
      <trkpt lat="43.41608" lon="6.10881">
        <ele>187.60000610352</ele>
        <time>2017-01-25T14:27:08Z</time>
      </trkpt>
      <trkpt lat="43.41607" lon="6.10879">
        <ele>187.80000305176</ele>
        <time>2017-01-25T14:27:10Z</time>
      </trkpt>
      <trkpt lat="43.41607" lon="6.10878">
        <ele>187.80000305176</ele>
        <time>2017-01-25T14:27:12Z</time>
      </trkpt>
      <trkpt lat="43.41608" lon="6.10878">
        <ele>187.80000305176</ele>
        <time>2017-01-25T14:27:13Z</time>
      </trkpt>
      <trkpt lat="43.41608" lon="6.10878">
        <ele>187.80000305176</ele>
        <time>2017-01-25T14:27:14Z</time>
      </trkpt>
      <trkpt lat="43.41608" lon="6.10878">
        <ele>187.80000305176</ele>
        <time>2017-01-25T14:27:16Z</time>
      </trkpt>
      <trkpt lat="43.41608" lon="6.10878">
        <ele>187.80000305176</ele>
        <time>2017-01-25T14:27:17Z</time>
      </trkpt>
      <trkpt lat="43.41608" lon="6.10878">
        <ele>187.80000305176</ele>
        <time>2017-01-25T14:27:28Z</time>
      </trkpt>
      <trkpt lat="43.4161" lon="6.10883">
        <ele>188</ele>
        <time>2017-01-25T14:27:37Z</time>
      </trkpt>
      <trkpt lat="43.4161" lon="6.10885">
        <ele>188</ele>
        <time>2017-01-25T14:27:38Z</time>
      </trkpt>
      <trkpt lat="43.4161" lon="6.1089">
        <ele>188</ele>
        <time>2017-01-25T14:27:43Z</time>
      </trkpt>
      <trkpt lat="43.41611" lon="6.10895">
        <ele>188</ele>
        <time>2017-01-25T14:27:46Z</time>
      </trkpt>
      <trkpt lat="43.41612" lon="6.109">
        <ele>188</ele>
        <time>2017-01-25T14:27:48Z</time>
      </trkpt>
      <trkpt lat="43.41613" lon="6.10919">
        <ele>189</ele>
        <time>2017-01-25T14:27:55Z</time>
      </trkpt>
      <trkpt lat="43.41613" lon="6.10924">
        <ele>189.19999694824</ele>
        <time>2017-01-25T14:27:57Z</time>
      </trkpt>
      <trkpt lat="43.41613" lon="6.10928">
        <ele>189.19999694824</ele>
        <time>2017-01-25T14:27:58Z</time>
      </trkpt>
      <trkpt lat="43.41612" lon="6.10961">
        <ele>190.19999694824</ele>
        <time>2017-01-25T14:28:08Z</time>
      </trkpt>
      <trkpt lat="43.4161" lon="6.10968">
        <ele>190.39999389648</ele>
        <time>2017-01-25T14:28:10Z</time>
      </trkpt>
      <trkpt lat="43.41602" lon="6.10996">
        <ele>190.39999389648</ele>
        <time>2017-01-25T14:28:18Z</time>
      </trkpt>
      <trkpt lat="43.41601" lon="6.11021">
        <ele>191.19999694824</ele>
        <time>2017-01-25T14:28:25Z</time>
      </trkpt>
      <trkpt lat="43.41602" lon="6.11032">
        <ele>191.39999389648</ele>
        <time>2017-01-25T14:28:28Z</time>
      </trkpt>
      <trkpt lat="43.41594" lon="6.11071">
        <ele>192</ele>
        <time>2017-01-25T14:28:38Z</time>
      </trkpt>
      <trkpt lat="43.4159" lon="6.11085">
        <ele>192.39999389648</ele>
        <time>2017-01-25T14:28:42Z</time>
      </trkpt>
      <trkpt lat="43.41582" lon="6.111">
        <ele>193</ele>
        <time>2017-01-25T14:28:48Z</time>
      </trkpt>
      <trkpt lat="43.4156" lon="6.11123">
        <ele>193.39999389648</ele>
        <time>2017-01-25T14:28:57Z</time>
      </trkpt>
      <trkpt lat="43.41558" lon="6.11125">
        <ele>193.39999389648</ele>
        <time>2017-01-25T14:28:58Z</time>
      </trkpt>
      <trkpt lat="43.41536" lon="6.11139">
        <ele>193.19999694824</ele>
        <time>2017-01-25T14:29:06Z</time>
      </trkpt>
      <trkpt lat="43.41533" lon="6.11141">
        <ele>193.19999694824</ele>
        <time>2017-01-25T14:29:07Z</time>
      </trkpt>
      <trkpt lat="43.4153" lon="6.11143">
        <ele>193.19999694824</ele>
        <time>2017-01-25T14:29:08Z</time>
      </trkpt>
      <trkpt lat="43.41522" lon="6.11149">
        <ele>193</ele>
        <time>2017-01-25T14:29:11Z</time>
      </trkpt>
      <trkpt lat="43.4151" lon="6.11156">
        <ele>193.19999694824</ele>
        <time>2017-01-25T14:29:15Z</time>
      </trkpt>
      <trkpt lat="43.41501" lon="6.1116">
        <ele>193.19999694824</ele>
        <time>2017-01-25T14:29:18Z</time>
      </trkpt>
      <trkpt lat="43.41471" lon="6.11165">
        <ele>193</ele>
        <time>2017-01-25T14:29:28Z</time>
      </trkpt>
      <trkpt lat="43.41468" lon="6.11164">
        <ele>193</ele>
        <time>2017-01-25T14:29:30Z</time>
      </trkpt>
      <trkpt lat="43.41465" lon="6.11164">
        <ele>192.80000305176</ele>
        <time>2017-01-25T14:29:35Z</time>
      </trkpt>
      <trkpt lat="43.41465" lon="6.11164">
        <ele>192.80000305176</ele>
        <time>2017-01-25T14:29:38Z</time>
      </trkpt>
      <trkpt lat="43.41465" lon="6.11164">
        <ele>192.80000305176</ele>
        <time>2017-01-25T14:29:42Z</time>
      </trkpt>
      <trkpt lat="43.41464" lon="6.11164">
        <ele>192.80000305176</ele>
        <time>2017-01-25T14:29:48Z</time>
      </trkpt>
      <trkpt lat="43.41463" lon="6.11162">
        <ele>192.80000305176</ele>
        <time>2017-01-25T14:29:57Z</time>
      </trkpt>
      <trkpt lat="43.41463" lon="6.11162">
        <ele>192.80000305176</ele>
        <time>2017-01-25T14:29:58Z</time>
      </trkpt>
      <trkpt lat="43.41463" lon="6.11161">
        <ele>192.60000610352</ele>
        <time>2017-01-25T14:29:59Z</time>
      </trkpt>
      <trkpt lat="43.41464" lon="6.11153">
        <ele>192.39999389648</ele>
        <time>2017-01-25T14:30:01Z</time>
      </trkpt>
      <trkpt lat="43.41463" lon="6.11137">
        <ele>191.39999389648</ele>
        <time>2017-01-25T14:30:04Z</time>
      </trkpt>
      <trkpt lat="43.41467" lon="6.11121">
        <ele>191</ele>
        <time>2017-01-25T14:30:08Z</time>
      </trkpt>
      <trkpt lat="43.41473" lon="6.11103">
        <ele>191</ele>
        <time>2017-01-25T14:30:14Z</time>
      </trkpt>
      <trkpt lat="43.41481" lon="6.11095">
        <ele>190.39999389648</ele>
        <time>2017-01-25T14:30:18Z</time>
      </trkpt>
      <trkpt lat="43.41483" lon="6.11094">
        <ele>190.39999389648</ele>
        <time>2017-01-25T14:30:19Z</time>
      </trkpt>
      <trkpt lat="43.41485" lon="6.11094">
        <ele>190.39999389648</ele>
        <time>2017-01-25T14:30:20Z</time>
      </trkpt>
      <trkpt lat="43.41487" lon="6.11093">
        <ele>190.39999389648</ele>
        <time>2017-01-25T14:30:21Z</time>
      </trkpt>
      <trkpt lat="43.4149" lon="6.11092">
        <ele>190.60000610352</ele>
        <time>2017-01-25T14:30:23Z</time>
      </trkpt>
      <trkpt lat="43.41491" lon="6.11091">
        <ele>191</ele>
        <time>2017-01-25T14:30:28Z</time>
      </trkpt>
      <trkpt lat="43.41491" lon="6.11092">
        <ele>191.19999694824</ele>
        <time>2017-01-25T14:30:30Z</time>
      </trkpt>
      <trkpt lat="43.41492" lon="6.11091">
        <ele>191</ele>
        <time>2017-01-25T14:30:32Z</time>
      </trkpt>
      <trkpt lat="43.41493" lon="6.1109">
        <ele>190.80000305176</ele>
        <time>2017-01-25T14:30:38Z</time>
      </trkpt>
      <trkpt lat="43.41494" lon="6.11086">
        <ele>191</ele>
        <time>2017-01-25T14:30:48Z</time>
      </trkpt>
      <trkpt lat="43.41493" lon="6.11084">
        <ele>190.80000305176</ele>
        <time>2017-01-25T14:30:53Z</time>
      </trkpt>
      <trkpt lat="43.41492" lon="6.11085">
        <ele>190.60000610352</ele>
        <time>2017-01-25T14:30:58Z</time>
      </trkpt>
      <trkpt lat="43.41491" lon="6.11082">
        <ele>190.60000610352</ele>
        <time>2017-01-25T14:31:03Z</time>
      </trkpt>
      <trkpt lat="43.41491" lon="6.11071">
        <ele>190.60000610352</ele>
        <time>2017-01-25T14:31:08Z</time>
      </trkpt>
      <trkpt lat="43.41497" lon="6.11047">
        <ele>191.19999694824</ele>
        <time>2017-01-25T14:31:17Z</time>
      </trkpt>
      <trkpt lat="43.41498" lon="6.11045">
        <ele>191.39999389648</ele>
        <time>2017-01-25T14:31:18Z</time>
      </trkpt>
      <trkpt lat="43.41506" lon="6.11013">
        <ele>191.39999389648</ele>
        <time>2017-01-25T14:31:28Z</time>
      </trkpt>
      <trkpt lat="43.41511" lon="6.10996">
        <ele>191.19999694824</ele>
        <time>2017-01-25T14:31:34Z</time>
      </trkpt>
      <trkpt lat="43.41515" lon="6.10983">
        <ele>191.19999694824</ele>
        <time>2017-01-25T14:31:38Z</time>
      </trkpt>
      <trkpt lat="43.41523" lon="6.10953">
        <ele>191.19999694824</ele>
        <time>2017-01-25T14:31:48Z</time>
      </trkpt>
      <trkpt lat="43.41524" lon="6.10949">
        <ele>191</ele>
        <time>2017-01-25T14:31:49Z</time>
      </trkpt>
      <trkpt lat="43.41532" lon="6.10923">
        <ele>190.60000610352</ele>
        <time>2017-01-25T14:31:56Z</time>
      </trkpt>
      <trkpt lat="43.41534" lon="6.10913">
        <ele>190.39999389648</ele>
        <time>2017-01-25T14:31:58Z</time>
      </trkpt>
      <trkpt lat="43.41541" lon="6.10886">
        <ele>190.19999694824</ele>
        <time>2017-01-25T14:32:04Z</time>
      </trkpt>
      <trkpt lat="43.41546" lon="6.1087">
        <ele>190.80000305176</ele>
        <time>2017-01-25T14:32:08Z</time>
      </trkpt>
      <trkpt lat="43.41549" lon="6.10863">
        <ele>190.80000305176</ele>
        <time>2017-01-25T14:32:10Z</time>
      </trkpt>
      <trkpt lat="43.41566" lon="6.10833">
        <ele>190.39999389648</ele>
        <time>2017-01-25T14:32:18Z</time>
      </trkpt>
      <trkpt lat="43.41581" lon="6.10816">
        <ele>189.39999389648</ele>
        <time>2017-01-25T14:32:23Z</time>
      </trkpt>
      <trkpt lat="43.41584" lon="6.10813">
        <ele>189</ele>
        <time>2017-01-25T14:32:24Z</time>
      </trkpt>
      <trkpt lat="43.41592" lon="6.10802">
        <ele>188.19999694824</ele>
        <time>2017-01-25T14:32:27Z</time>
      </trkpt>
      <trkpt lat="43.41594" lon="6.10798">
        <ele>188</ele>
        <time>2017-01-25T14:32:28Z</time>
      </trkpt>
      <trkpt lat="43.41601" lon="6.10782">
        <ele>187.80000305176</ele>
        <time>2017-01-25T14:32:31Z</time>
      </trkpt>
      <trkpt lat="43.41618" lon="6.10749">
        <ele>187.19999694824</ele>
        <time>2017-01-25T14:32:38Z</time>
      </trkpt>
      <trkpt lat="43.4162" lon="6.10745">
        <ele>187</ele>
        <time>2017-01-25T14:32:40Z</time>
      </trkpt>
      <trkpt lat="43.41622" lon="6.10744">
        <ele>187</ele>
        <time>2017-01-25T14:32:41Z</time>
      </trkpt>
      <trkpt lat="43.41624" lon="6.10742">
        <ele>186.80000305176</ele>
        <time>2017-01-25T14:32:42Z</time>
      </trkpt>
      <trkpt lat="43.41627" lon="6.10737">
        <ele>186.80000305176</ele>
        <time>2017-01-25T14:32:44Z</time>
      </trkpt>
      <trkpt lat="43.41631" lon="6.1073">
        <ele>186.80000305176</ele>
        <time>2017-01-25T14:32:48Z</time>
      </trkpt>
      <trkpt lat="43.41634" lon="6.10729">
        <ele>187</ele>
        <time>2017-01-25T14:32:52Z</time>
      </trkpt>
      <trkpt lat="43.41634" lon="6.10729">
        <ele>187.19999694824</ele>
        <time>2017-01-25T14:32:53Z</time>
      </trkpt>
      <trkpt lat="43.41634" lon="6.10728">
        <ele>187.19999694824</ele>
        <time>2017-01-25T14:32:55Z</time>
      </trkpt>
      <trkpt lat="43.41634" lon="6.10728">
        <ele>187.19999694824</ele>
        <time>2017-01-25T14:32:58Z</time>
      </trkpt>
      <trkpt lat="43.41634" lon="6.10728">
        <ele>187</ele>
        <time>2017-01-25T14:33:07Z</time>
      </trkpt>
      <trkpt lat="43.41634" lon="6.10728">
        <ele>187</ele>
        <time>2017-01-25T14:33:13Z</time>
      </trkpt>
      <trkpt lat="43.41634" lon="6.10726">
        <ele>187.19999694824</ele>
        <time>2017-01-25T14:33:18Z</time>
      </trkpt>
      <trkpt lat="43.41634" lon="6.10724">
        <ele>187.39999389648</ele>
        <time>2017-01-25T14:33:20Z</time>
      </trkpt>
      <trkpt lat="43.41632" lon="6.10719">
        <ele>187.39999389648</ele>
        <time>2017-01-25T14:33:22Z</time>
      </trkpt>
      <trkpt lat="43.41632" lon="6.10718">
        <ele>188.39999389648</ele>
        <time>2017-01-25T14:33:25Z</time>
      </trkpt>
      <trkpt lat="43.41632" lon="6.10717">
        <ele>188.80000305176</ele>
        <time>2017-01-25T14:33:26Z</time>
      </trkpt>
      <trkpt lat="43.41632" lon="6.10716">
        <ele>188.80000305176</ele>
        <time>2017-01-25T14:33:27Z</time>
      </trkpt>
      <trkpt lat="43.41632" lon="6.10716">
        <ele>189</ele>
        <time>2017-01-25T14:33:28Z</time>
      </trkpt>
      <trkpt lat="43.41632" lon="6.10716">
        <ele>189</ele>
        <time>2017-01-25T14:33:30Z</time>
      </trkpt>
      <trkpt lat="43.41633" lon="6.10715">
        <ele>189</ele>
        <time>2017-01-25T14:33:33Z</time>
      </trkpt>
      <trkpt lat="43.41634" lon="6.10715">
        <ele>189.39999389648</ele>
        <time>2017-01-25T14:33:38Z</time>
      </trkpt>
      <trkpt lat="43.41634" lon="6.10715">
        <ele>189.39999389648</ele>
        <time>2017-01-25T14:33:39Z</time>
      </trkpt>
      <trkpt lat="43.41635" lon="6.10716">
        <ele>189.19999694824</ele>
        <time>2017-01-25T14:33:48Z</time>
      </trkpt>
      <trkpt lat="43.41636" lon="6.10711">
        <ele>189.19999694824</ele>
        <time>2017-01-25T14:33:58Z</time>
      </trkpt>
      <trkpt lat="43.41636" lon="6.10707">
        <ele>189.39999389648</ele>
        <time>2017-01-25T14:34:00Z</time>
      </trkpt>
      <trkpt lat="43.41634" lon="6.10697">
        <ele>190.60000610352</ele>
        <time>2017-01-25T14:34:05Z</time>
      </trkpt>
      <trkpt lat="43.41634" lon="6.10697">
        <ele>191.19999694824</ele>
        <time>2017-01-25T14:34:07Z</time>
      </trkpt>
      <trkpt lat="43.41634" lon="6.10697">
        <ele>191.60000610352</ele>
        <time>2017-01-25T14:34:08Z</time>
      </trkpt>
      <trkpt lat="43.41634" lon="6.10697">
        <ele>191.80000305176</ele>
        <time>2017-01-25T14:34:09Z</time>
      </trkpt>
      <trkpt lat="43.41634" lon="6.10694">
        <ele>192.39999389648</ele>
        <time>2017-01-25T14:34:13Z</time>
      </trkpt>
      <trkpt lat="43.41635" lon="6.10692">
        <ele>192.80000305176</ele>
        <time>2017-01-25T14:34:16Z</time>
      </trkpt>
      <trkpt lat="43.41635" lon="6.1069">
        <ele>193.19999694824</ele>
        <time>2017-01-25T14:34:18Z</time>
      </trkpt>
      <trkpt lat="43.41634" lon="6.10687">
        <ele>194</ele>
        <time>2017-01-25T14:34:23Z</time>
      </trkpt>
      <trkpt lat="43.41634" lon="6.10685">
        <ele>194.39999389648</ele>
        <time>2017-01-25T14:34:28Z</time>
      </trkpt>
      <trkpt lat="43.41634" lon="6.10684">
        <ele>195</ele>
        <time>2017-01-25T14:34:32Z</time>
      </trkpt>
      <trkpt lat="43.41634" lon="6.10682">
        <ele>195.80000305176</ele>
        <time>2017-01-25T14:34:38Z</time>
      </trkpt>
      <trkpt lat="43.41633" lon="6.10679">
        <ele>196</ele>
        <time>2017-01-25T14:34:42Z</time>
      </trkpt>
      <trkpt lat="43.41632" lon="6.10676">
        <ele>196.80000305176</ele>
        <time>2017-01-25T14:34:48Z</time>
      </trkpt>
      <trkpt lat="43.41632" lon="6.10675">
        <ele>197</ele>
        <time>2017-01-25T14:34:50Z</time>
      </trkpt>
      <trkpt lat="43.41631" lon="6.10673">
        <ele>197.60000610352</ele>
        <time>2017-01-25T14:34:57Z</time>
      </trkpt>
      <trkpt lat="43.41632" lon="6.10672">
        <ele>197.80000305176</ele>
        <time>2017-01-25T14:35:04Z</time>
      </trkpt>
      <trkpt lat="43.41632" lon="6.10672">
        <ele>197.80000305176</ele>
        <time>2017-01-25T14:35:06Z</time>
      </trkpt>
      <trkpt lat="43.41631" lon="6.10672">
        <ele>197.80000305176</ele>
        <time>2017-01-25T14:35:08Z</time>
      </trkpt>
      <trkpt lat="43.41632" lon="6.10672">
        <ele>197.60000610352</ele>
        <time>2017-01-25T14:35:13Z</time>
      </trkpt>
      <trkpt lat="43.41632" lon="6.10672">
        <ele>197.60000610352</ele>
        <time>2017-01-25T14:35:16Z</time>
      </trkpt>
      <trkpt lat="43.41632" lon="6.10672">
        <ele>197.60000610352</ele>
        <time>2017-01-25T14:35:18Z</time>
      </trkpt>
      <trkpt lat="43.41632" lon="6.10672">
        <ele>197.60000610352</ele>
        <time>2017-01-25T14:35:28Z</time>
      </trkpt>
      <trkpt lat="43.41632" lon="6.10672">
        <ele>197.39999389648</ele>
        <time>2017-01-25T14:35:38Z</time>
      </trkpt>
      <trkpt lat="43.41632" lon="6.10672">
        <ele>197.60000610352</ele>
        <time>2017-01-25T14:35:48Z</time>
      </trkpt>
      <trkpt lat="43.41632" lon="6.10672">
        <ele>197.19999694824</ele>
        <time>2017-01-25T14:36:17Z</time>
      </trkpt>
      <trkpt lat="43.41632" lon="6.10672">
        <ele>197.19999694824</ele>
        <time>2017-01-25T14:36:23Z</time>
      </trkpt>
      <trkpt lat="43.41632" lon="6.10671">
        <ele>197.19999694824</ele>
        <time>2017-01-25T14:36:25Z</time>
      </trkpt>
      <trkpt lat="43.41632" lon="6.1067">
        <ele>197.19999694824</ele>
        <time>2017-01-25T14:36:28Z</time>
      </trkpt>
      <trkpt lat="43.41633" lon="6.1067">
        <ele>197.19999694824</ele>
        <time>2017-01-25T14:36:35Z</time>
      </trkpt>
      <trkpt lat="43.41632" lon="6.10665">
        <ele>198</ele>
        <time>2017-01-25T14:36:38Z</time>
      </trkpt>
      <trkpt lat="43.41632" lon="6.10659">
        <ele>199</ele>
        <time>2017-01-25T14:36:40Z</time>
      </trkpt>
      <trkpt lat="43.41632" lon="6.10657">
        <ele>199</ele>
        <time>2017-01-25T14:36:41Z</time>
      </trkpt>
      <trkpt lat="43.41634" lon="6.10642">
        <ele>199.39999389648</ele>
        <time>2017-01-25T14:36:48Z</time>
      </trkpt>
      <trkpt lat="43.41634" lon="6.10629">
        <ele>200</ele>
        <time>2017-01-25T14:36:54Z</time>
      </trkpt>
      <trkpt lat="43.41635" lon="6.10613">
        <ele>200.80000305176</ele>
        <time>2017-01-25T14:37:01Z</time>
      </trkpt>
      <trkpt lat="43.41635" lon="6.10598">
        <ele>201</ele>
        <time>2017-01-25T14:37:08Z</time>
      </trkpt>
      <trkpt lat="43.41635" lon="6.10593">
        <ele>201.19999694824</ele>
        <time>2017-01-25T14:37:10Z</time>
      </trkpt>
      <trkpt lat="43.41635" lon="6.10591">
        <ele>201.19999694824</ele>
        <time>2017-01-25T14:37:11Z</time>
      </trkpt>
      <trkpt lat="43.41633" lon="6.1058">
        <ele>202.19999694824</ele>
        <time>2017-01-25T14:37:17Z</time>
      </trkpt>
      <trkpt lat="43.41632" lon="6.10579">
        <ele>202.39999389648</ele>
        <time>2017-01-25T14:37:18Z</time>
      </trkpt>
      <trkpt lat="43.41631" lon="6.10572">
        <ele>203.39999389648</ele>
        <time>2017-01-25T14:37:22Z</time>
      </trkpt>
      <trkpt lat="43.41627" lon="6.10561">
        <ele>204.39999389648</ele>
        <time>2017-01-25T14:37:28Z</time>
      </trkpt>
      <trkpt lat="43.41626" lon="6.10559">
        <ele>204.60000610352</ele>
        <time>2017-01-25T14:37:29Z</time>
      </trkpt>
      <trkpt lat="43.41625" lon="6.10553">
        <ele>205.39999389648</ele>
        <time>2017-01-25T14:37:32Z</time>
      </trkpt>
      <trkpt lat="43.41624" lon="6.10549">
        <ele>205.80000305176</ele>
        <time>2017-01-25T14:37:35Z</time>
      </trkpt>
      <trkpt lat="43.41624" lon="6.10544">
        <ele>206</ele>
        <time>2017-01-25T14:37:38Z</time>
      </trkpt>
      <trkpt lat="43.41624" lon="6.10543">
        <ele>206.80000305176</ele>
        <time>2017-01-25T14:37:41Z</time>
      </trkpt>
      <trkpt lat="43.41625" lon="6.10543">
        <ele>207.19999694824</ele>
        <time>2017-01-25T14:37:46Z</time>
      </trkpt>
      <trkpt lat="43.41625" lon="6.10543">
        <ele>207.39999389648</ele>
        <time>2017-01-25T14:37:48Z</time>
      </trkpt>
      <trkpt lat="43.41625" lon="6.10543">
        <ele>207.39999389648</ele>
        <time>2017-01-25T14:37:58Z</time>
      </trkpt>
      <trkpt lat="43.41624" lon="6.10543">
        <ele>206.60000610352</ele>
        <time>2017-01-25T14:38:08Z</time>
      </trkpt>
      <trkpt lat="43.41624" lon="6.1054">
        <ele>206.60000610352</ele>
        <time>2017-01-25T14:38:15Z</time>
      </trkpt>
      <trkpt lat="43.41622" lon="6.10535">
        <ele>206.80000305176</ele>
        <time>2017-01-25T14:38:18Z</time>
      </trkpt>
      <trkpt lat="43.41621" lon="6.10533">
        <ele>207</ele>
        <time>2017-01-25T14:38:19Z</time>
      </trkpt>
      <trkpt lat="43.41621" lon="6.10532">
        <ele>207.19999694824</ele>
        <time>2017-01-25T14:38:20Z</time>
      </trkpt>
      <trkpt lat="43.4162" lon="6.10532">
        <ele>208</ele>
        <time>2017-01-25T14:38:23Z</time>
      </trkpt>
      <trkpt lat="43.41619" lon="6.1053">
        <ele>208.60000610352</ele>
        <time>2017-01-25T14:38:28Z</time>
      </trkpt>
      <trkpt lat="43.41619" lon="6.10528">
        <ele>209</ele>
        <time>2017-01-25T14:38:32Z</time>
      </trkpt>
      <trkpt lat="43.41618" lon="6.10523">
        <ele>210.19999694824</ele>
        <time>2017-01-25T14:38:39Z</time>
      </trkpt>
      <trkpt lat="43.41617" lon="6.10518">
        <ele>211.39999389648</ele>
        <time>2017-01-25T14:38:46Z</time>
      </trkpt>
      <trkpt lat="43.41617" lon="6.10517">
        <ele>211.60000610352</ele>
        <time>2017-01-25T14:38:48Z</time>
      </trkpt>
      <trkpt lat="43.41617" lon="6.10514">
        <ele>212</ele>
        <time>2017-01-25T14:38:51Z</time>
      </trkpt>
      <trkpt lat="43.41616" lon="6.10511">
        <ele>212.39999389648</ele>
        <time>2017-01-25T14:38:54Z</time>
      </trkpt>
      <trkpt lat="43.41614" lon="6.10509">
        <ele>212.60000610352</ele>
        <time>2017-01-25T14:38:58Z</time>
      </trkpt>
      <trkpt lat="43.41607" lon="6.105">
        <ele>212.60000610352</ele>
        <time>2017-01-25T14:39:08Z</time>
      </trkpt>
      <trkpt lat="43.41604" lon="6.10494">
        <ele>212.19999694824</ele>
        <time>2017-01-25T14:39:10Z</time>
      </trkpt>
      <trkpt lat="43.41603" lon="6.10491">
        <ele>212</ele>
        <time>2017-01-25T14:39:11Z</time>
      </trkpt>
      <trkpt lat="43.41599" lon="6.10474">
        <ele>211.80000305176</ele>
        <time>2017-01-25T14:39:17Z</time>
      </trkpt>
      <trkpt lat="43.41597" lon="6.10469">
        <ele>211.60000610352</ele>
        <time>2017-01-25T14:39:19Z</time>
      </trkpt>
      <trkpt lat="43.41596" lon="6.10464">
        <ele>211.39999389648</ele>
        <time>2017-01-25T14:39:21Z</time>
      </trkpt>
      <trkpt lat="43.41594" lon="6.10457">
        <ele>211.39999389648</ele>
        <time>2017-01-25T14:39:24Z</time>
      </trkpt>
      <trkpt lat="43.41594" lon="6.10449">
        <ele>211.80000305176</ele>
        <time>2017-01-25T14:39:28Z</time>
      </trkpt>
      <trkpt lat="43.41593" lon="6.10416">
        <ele>210.39999389648</ele>
        <time>2017-01-25T14:39:38Z</time>
      </trkpt>
      <trkpt lat="43.41592" lon="6.10412">
        <ele>210.19999694824</ele>
        <time>2017-01-25T14:39:39Z</time>
      </trkpt>
      <trkpt lat="43.41591" lon="6.10408">
        <ele>210.19999694824</ele>
        <time>2017-01-25T14:39:40Z</time>
      </trkpt>
      <trkpt lat="43.41591" lon="6.10405">
        <ele>210</ele>
        <time>2017-01-25T14:39:41Z</time>
      </trkpt>
      <trkpt lat="43.4159" lon="6.10396">
        <ele>209.19999694824</ele>
        <time>2017-01-25T14:39:46Z</time>
      </trkpt>
      <trkpt lat="43.4159" lon="6.10395">
        <ele>209.19999694824</ele>
        <time>2017-01-25T14:39:47Z</time>
      </trkpt>
      <trkpt lat="43.4159" lon="6.10395">
        <ele>209</ele>
        <time>2017-01-25T14:39:48Z</time>
      </trkpt>
      <trkpt lat="43.4159" lon="6.10395">
        <ele>208.80000305176</ele>
        <time>2017-01-25T14:39:49Z</time>
      </trkpt>
      <trkpt lat="43.4159" lon="6.10395">
        <ele>208.80000305176</ele>
        <time>2017-01-25T14:39:50Z</time>
      </trkpt>
      <trkpt lat="43.4159" lon="6.10394">
        <ele>208.60000610352</ele>
        <time>2017-01-25T14:39:52Z</time>
      </trkpt>
      <trkpt lat="43.4159" lon="6.10394">
        <ele>208.60000610352</ele>
        <time>2017-01-25T14:39:54Z</time>
      </trkpt>
      <trkpt lat="43.4159" lon="6.10393">
        <ele>208.60000610352</ele>
        <time>2017-01-25T14:39:55Z</time>
      </trkpt>
      <trkpt lat="43.4159" lon="6.10391">
        <ele>208.60000610352</ele>
        <time>2017-01-25T14:39:58Z</time>
      </trkpt>
      <trkpt lat="43.4159" lon="6.10391">
        <ele>208.39999389648</ele>
        <time>2017-01-25T14:39:59Z</time>
      </trkpt>
      <trkpt lat="43.4159" lon="6.10391">
        <ele>208.39999389648</ele>
        <time>2017-01-25T14:40:01Z</time>
      </trkpt>
      <trkpt lat="43.4159" lon="6.10391">
        <ele>208.39999389648</ele>
        <time>2017-01-25T14:40:03Z</time>
      </trkpt>
      <trkpt lat="43.4159" lon="6.10391">
        <ele>208.39999389648</ele>
        <time>2017-01-25T14:40:05Z</time>
      </trkpt>
      <trkpt lat="43.4159" lon="6.10391">
        <ele>208.19999694824</ele>
        <time>2017-01-25T14:40:14Z</time>
      </trkpt>
      <trkpt lat="43.4159" lon="6.10391">
        <ele>208.39999389648</ele>
        <time>2017-01-25T14:40:18Z</time>
      </trkpt>
      <trkpt lat="43.4159" lon="6.1039">
        <ele>208.60000610352</ele>
        <time>2017-01-25T14:40:21Z</time>
      </trkpt>
      <trkpt lat="43.4159" lon="6.1039">
        <ele>208.39999389648</ele>
        <time>2017-01-25T14:40:28Z</time>
      </trkpt>
      <trkpt lat="43.4159" lon="6.10389">
        <ele>208.19999694824</ele>
        <time>2017-01-25T14:40:38Z</time>
      </trkpt>
      <trkpt lat="43.4159" lon="6.10387">
        <ele>208.19999694824</ele>
        <time>2017-01-25T14:40:45Z</time>
      </trkpt>
      <trkpt lat="43.4159" lon="6.10387">
        <ele>208</ele>
        <time>2017-01-25T14:40:47Z</time>
      </trkpt>
      <trkpt lat="43.4159" lon="6.10386">
        <ele>208</ele>
        <time>2017-01-25T14:40:48Z</time>
      </trkpt>
      <trkpt lat="43.41589" lon="6.10382">
        <ele>207.80000305176</ele>
        <time>2017-01-25T14:40:50Z</time>
      </trkpt>
      <trkpt lat="43.41587" lon="6.10367">
        <ele>207</ele>
        <time>2017-01-25T14:40:54Z</time>
      </trkpt>
      <trkpt lat="43.41584" lon="6.10356">
        <ele>205.60000610352</ele>
        <time>2017-01-25T14:40:57Z</time>
      </trkpt>
      <trkpt lat="43.41582" lon="6.10354">
        <ele>205.39999389648</ele>
        <time>2017-01-25T14:40:58Z</time>
      </trkpt>
      <trkpt lat="43.41581" lon="6.10352">
        <ele>205.19999694824</ele>
        <time>2017-01-25T14:40:59Z</time>
      </trkpt>
      <trkpt lat="43.4158" lon="6.1035">
        <ele>205</ele>
        <time>2017-01-25T14:41:00Z</time>
      </trkpt>
      <trkpt lat="43.41573" lon="6.1034">
        <ele>204.39999389648</ele>
        <time>2017-01-25T14:41:04Z</time>
      </trkpt>
      <trkpt lat="43.41565" lon="6.10329">
        <ele>204</ele>
        <time>2017-01-25T14:41:08Z</time>
      </trkpt>
      <trkpt lat="43.41556" lon="6.10318">
        <ele>203.60000610352</ele>
        <time>2017-01-25T14:41:16Z</time>
      </trkpt>
      <trkpt lat="43.41555" lon="6.10318">
        <ele>203.60000610352</ele>
        <time>2017-01-25T14:41:17Z</time>
      </trkpt>
      <trkpt lat="43.41555" lon="6.10318">
        <ele>203.80000305176</ele>
        <time>2017-01-25T14:41:19Z</time>
      </trkpt>
      <trkpt lat="43.41555" lon="6.10318">
        <ele>203.60000610352</ele>
        <time>2017-01-25T14:41:22Z</time>
      </trkpt>
      <trkpt lat="43.41554" lon="6.10316">
        <ele>203.60000610352</ele>
        <time>2017-01-25T14:41:28Z</time>
      </trkpt>
      <trkpt lat="43.41553" lon="6.10315">
        <ele>203.60000610352</ele>
        <time>2017-01-25T14:41:30Z</time>
      </trkpt>
      <trkpt lat="43.41552" lon="6.10313">
        <ele>203.60000610352</ele>
        <time>2017-01-25T14:41:32Z</time>
      </trkpt>
      <trkpt lat="43.41548" lon="6.10306">
        <ele>203.19999694824</ele>
        <time>2017-01-25T14:41:35Z</time>
      </trkpt>
      <trkpt lat="43.41545" lon="6.10302">
        <ele>203</ele>
        <time>2017-01-25T14:41:36Z</time>
      </trkpt>
      <trkpt lat="43.4154" lon="6.10296">
        <ele>202</ele>
        <time>2017-01-25T14:41:38Z</time>
      </trkpt>
      <trkpt lat="43.41537" lon="6.10293">
        <ele>201.60000610352</ele>
        <time>2017-01-25T14:41:39Z</time>
      </trkpt>
      <trkpt lat="43.41534" lon="6.10291">
        <ele>201.19999694824</ele>
        <time>2017-01-25T14:41:40Z</time>
      </trkpt>
      <trkpt lat="43.41528" lon="6.10286">
        <ele>200.60000610352</ele>
        <time>2017-01-25T14:41:42Z</time>
      </trkpt>
      <trkpt lat="43.4152" lon="6.10271">
        <ele>200.39999389648</ele>
        <time>2017-01-25T14:41:46Z</time>
      </trkpt>
      <trkpt lat="43.41518" lon="6.10257">
        <ele>200</ele>
        <time>2017-01-25T14:41:48Z</time>
      </trkpt>
      <trkpt lat="43.41517" lon="6.1025">
        <ele>199.60000610352</ele>
        <time>2017-01-25T14:41:49Z</time>
      </trkpt>
      <trkpt lat="43.41515" lon="6.10233">
        <ele>198</ele>
        <time>2017-01-25T14:41:51Z</time>
      </trkpt>
      <trkpt lat="43.41514" lon="6.10217">
        <ele>196.60000610352</ele>
        <time>2017-01-25T14:41:53Z</time>
      </trkpt>
      <trkpt lat="43.41515" lon="6.10182">
        <ele>196</ele>
        <time>2017-01-25T14:41:58Z</time>
      </trkpt>
      <trkpt lat="43.41516" lon="6.10177">
        <ele>195.80000305176</ele>
        <time>2017-01-25T14:42:00Z</time>
      </trkpt>
      <trkpt lat="43.41516" lon="6.10176">
        <ele>195.80000305176</ele>
        <time>2017-01-25T14:42:01Z</time>
      </trkpt>
      <trkpt lat="43.41516" lon="6.10176">
        <ele>195.60000610352</ele>
        <time>2017-01-25T14:42:02Z</time>
      </trkpt>
      <trkpt lat="43.41516" lon="6.10175">
        <ele>195.60000610352</ele>
        <time>2017-01-25T14:42:03Z</time>
      </trkpt>
      <trkpt lat="43.41516" lon="6.10175">
        <ele>195.60000610352</ele>
        <time>2017-01-25T14:42:05Z</time>
      </trkpt>
      <trkpt lat="43.41516" lon="6.10175">
        <ele>195.60000610352</ele>
        <time>2017-01-25T14:42:07Z</time>
      </trkpt>
      <trkpt lat="43.41516" lon="6.10175">
        <ele>195.60000610352</ele>
        <time>2017-01-25T14:42:12Z</time>
      </trkpt>
      <trkpt lat="43.41515" lon="6.10175">
        <ele>195.60000610352</ele>
        <time>2017-01-25T14:42:18Z</time>
      </trkpt>
      <trkpt lat="43.41516" lon="6.10174">
        <ele>195.80000305176</ele>
        <time>2017-01-25T14:42:28Z</time>
      </trkpt>
      <trkpt lat="43.41515" lon="6.10172">
        <ele>195.80000305176</ele>
        <time>2017-01-25T14:42:38Z</time>
      </trkpt>
      <trkpt lat="43.41513" lon="6.10169">
        <ele>195.80000305176</ele>
        <time>2017-01-25T14:42:40Z</time>
      </trkpt>
      <trkpt lat="43.41511" lon="6.10165">
        <ele>196.19999694824</ele>
        <time>2017-01-25T14:42:42Z</time>
      </trkpt>
      <trkpt lat="43.4151" lon="6.10162">
        <ele>196.19999694824</ele>
        <time>2017-01-25T14:42:43Z</time>
      </trkpt>
      <trkpt lat="43.41508" lon="6.10156">
        <ele>196.39999389648</ele>
        <time>2017-01-25T14:42:45Z</time>
      </trkpt>
      <trkpt lat="43.41507" lon="6.10153">
        <ele>196.60000610352</ele>
        <time>2017-01-25T14:42:46Z</time>
      </trkpt>
      <trkpt lat="43.41507" lon="6.1015">
        <ele>197</ele>
        <time>2017-01-25T14:42:47Z</time>
      </trkpt>
      <trkpt lat="43.41506" lon="6.10147">
        <ele>197.19999694824</ele>
        <time>2017-01-25T14:42:48Z</time>
      </trkpt>
      <trkpt lat="43.41505" lon="6.10144">
        <ele>197.60000610352</ele>
        <time>2017-01-25T14:42:49Z</time>
      </trkpt>
      <trkpt lat="43.41502" lon="6.10132">
        <ele>198.80000305176</ele>
        <time>2017-01-25T14:42:53Z</time>
      </trkpt>
      <trkpt lat="43.41498" lon="6.10116">
        <ele>199.19999694824</ele>
        <time>2017-01-25T14:42:58Z</time>
      </trkpt>
      <trkpt lat="43.41497" lon="6.10112">
        <ele>199.19999694824</ele>
        <time>2017-01-25T14:42:59Z</time>
      </trkpt>
      <trkpt lat="43.41489" lon="6.10093">
        <ele>198.39999389648</ele>
        <time>2017-01-25T14:43:04Z</time>
      </trkpt>
      <trkpt lat="43.4148" lon="6.10077">
        <ele>197.60000610352</ele>
        <time>2017-01-25T14:43:08Z</time>
      </trkpt>
      <trkpt lat="43.41476" lon="6.10067">
        <ele>197.19999694824</ele>
        <time>2017-01-25T14:43:10Z</time>
      </trkpt>
      <trkpt lat="43.41472" lon="6.10056">
        <ele>196.80000305176</ele>
        <time>2017-01-25T14:43:12Z</time>
      </trkpt>
      <trkpt lat="43.41471" lon="6.10052">
        <ele>196.60000610352</ele>
        <time>2017-01-25T14:43:13Z</time>
      </trkpt>
      <trkpt lat="43.4147" lon="6.10049">
        <ele>196.39999389648</ele>
        <time>2017-01-25T14:43:14Z</time>
      </trkpt>
      <trkpt lat="43.41469" lon="6.10043">
        <ele>196</ele>
        <time>2017-01-25T14:43:16Z</time>
      </trkpt>
      <trkpt lat="43.41468" lon="6.10039">
        <ele>195.80000305176</ele>
        <time>2017-01-25T14:43:17Z</time>
      </trkpt>
      <trkpt lat="43.41467" lon="6.10035">
        <ele>195.60000610352</ele>
        <time>2017-01-25T14:43:18Z</time>
      </trkpt>
      <trkpt lat="43.41464" lon="6.10029">
        <ele>195.39999389648</ele>
        <time>2017-01-25T14:43:20Z</time>
      </trkpt>
      <trkpt lat="43.41455" lon="6.1001">
        <ele>196.39999389648</ele>
        <time>2017-01-25T14:43:28Z</time>
      </trkpt>
      <trkpt lat="43.41455" lon="6.10007">
        <ele>196.60000610352</ele>
        <time>2017-01-25T14:43:29Z</time>
      </trkpt>
      <trkpt lat="43.4145" lon="6.09995">
        <ele>197</ele>
        <time>2017-01-25T14:43:34Z</time>
      </trkpt>
      <trkpt lat="43.41447" lon="6.09986">
        <ele>196.80000305176</ele>
        <time>2017-01-25T14:43:38Z</time>
      </trkpt>
      <trkpt lat="43.4144" lon="6.0996">
        <ele>195.80000305176</ele>
        <time>2017-01-25T14:43:46Z</time>
      </trkpt>
      <trkpt lat="43.41438" lon="6.09953">
        <ele>195.80000305176</ele>
        <time>2017-01-25T14:43:48Z</time>
      </trkpt>
      <trkpt lat="43.41438" lon="6.09947">
        <ele>196</ele>
        <time>2017-01-25T14:43:50Z</time>
      </trkpt>
      <trkpt lat="43.41437" lon="6.09921">
        <ele>197</ele>
        <time>2017-01-25T14:43:58Z</time>
      </trkpt>
      <trkpt lat="43.41438" lon="6.09901">
        <ele>196.39999389648</ele>
        <time>2017-01-25T14:44:04Z</time>
      </trkpt>
      <trkpt lat="43.41439" lon="6.09898">
        <ele>196.19999694824</ele>
        <time>2017-01-25T14:44:05Z</time>
      </trkpt>
      <trkpt lat="43.41441" lon="6.09894">
        <ele>196</ele>
        <time>2017-01-25T14:44:06Z</time>
      </trkpt>
      <trkpt lat="43.41442" lon="6.09891">
        <ele>195.80000305176</ele>
        <time>2017-01-25T14:44:07Z</time>
      </trkpt>
      <trkpt lat="43.41443" lon="6.09888">
        <ele>195.39999389648</ele>
        <time>2017-01-25T14:44:08Z</time>
      </trkpt>
      <trkpt lat="43.41449" lon="6.09879">
        <ele>194.60000610352</ele>
        <time>2017-01-25T14:44:11Z</time>
      </trkpt>
      <trkpt lat="43.41449" lon="6.09875">
        <ele>194.39999389648</ele>
        <time>2017-01-25T14:44:12Z</time>
      </trkpt>
      <trkpt lat="43.41448" lon="6.09858">
        <ele>193.80000305176</ele>
        <time>2017-01-25T14:44:18Z</time>
      </trkpt>
      <trkpt lat="43.41446" lon="6.09836">
        <ele>196</ele>
        <time>2017-01-25T14:44:25Z</time>
      </trkpt>
      <trkpt lat="43.41446" lon="6.09827">
        <ele>196.80000305176</ele>
        <time>2017-01-25T14:44:28Z</time>
      </trkpt>
      <trkpt lat="43.41445" lon="6.09824">
        <ele>197.19999694824</ele>
        <time>2017-01-25T14:44:29Z</time>
      </trkpt>
      <trkpt lat="43.41443" lon="6.09808">
        <ele>198.19999694824</ele>
        <time>2017-01-25T14:44:35Z</time>
      </trkpt>
      <trkpt lat="43.41442" lon="6.098">
        <ele>198.19999694824</ele>
        <time>2017-01-25T14:44:38Z</time>
      </trkpt>
      <trkpt lat="43.41447" lon="6.09783">
        <ele>197.80000305176</ele>
        <time>2017-01-25T14:44:45Z</time>
      </trkpt>
      <trkpt lat="43.4145" lon="6.09777">
        <ele>197.60000610352</ele>
        <time>2017-01-25T14:44:48Z</time>
      </trkpt>
      <trkpt lat="43.41455" lon="6.09766">
        <ele>197</ele>
        <time>2017-01-25T14:44:52Z</time>
      </trkpt>
      <trkpt lat="43.41457" lon="6.09763">
        <ele>197</ele>
        <time>2017-01-25T14:44:53Z</time>
      </trkpt>
      <trkpt lat="43.41457" lon="6.0976">
        <ele>196.80000305176</ele>
        <time>2017-01-25T14:44:54Z</time>
      </trkpt>
      <trkpt lat="43.4146" lon="6.09746">
        <ele>196.19999694824</ele>
        <time>2017-01-25T14:44:58Z</time>
      </trkpt>
      <trkpt lat="43.41465" lon="6.09712">
        <ele>194.80000305176</ele>
        <time>2017-01-25T14:45:06Z</time>
      </trkpt>
      <trkpt lat="43.41467" lon="6.09703">
        <ele>194.39999389648</ele>
        <time>2017-01-25T14:45:08Z</time>
      </trkpt>
      <trkpt lat="43.41479" lon="6.09676">
        <ele>195</ele>
        <time>2017-01-25T14:45:18Z</time>
      </trkpt>
      <trkpt lat="43.41482" lon="6.09669">
        <ele>195</ele>
        <time>2017-01-25T14:45:23Z</time>
      </trkpt>
      <trkpt lat="43.41482" lon="6.09667">
        <ele>195.19999694824</ele>
        <time>2017-01-25T14:45:27Z</time>
      </trkpt>
      <trkpt lat="43.41482" lon="6.09666">
        <ele>195.39999389648</ele>
        <time>2017-01-25T14:45:28Z</time>
      </trkpt>
      <trkpt lat="43.41481" lon="6.09665">
        <ele>195.39999389648</ele>
        <time>2017-01-25T14:45:29Z</time>
      </trkpt>
      <trkpt lat="43.41481" lon="6.09663">
        <ele>195.80000305176</ele>
        <time>2017-01-25T14:45:32Z</time>
      </trkpt>
      <trkpt lat="43.4148" lon="6.09662">
        <ele>196</ele>
        <time>2017-01-25T14:45:34Z</time>
      </trkpt>
      <trkpt lat="43.4148" lon="6.09662">
        <ele>196.19999694824</ele>
        <time>2017-01-25T14:45:36Z</time>
      </trkpt>
      <trkpt lat="43.4148" lon="6.09661">
        <ele>196.39999389648</ele>
        <time>2017-01-25T14:45:38Z</time>
      </trkpt>
      <trkpt lat="43.41479" lon="6.09656">
        <ele>196.80000305176</ele>
        <time>2017-01-25T14:45:42Z</time>
      </trkpt>
      <trkpt lat="43.41479" lon="6.09654">
        <ele>197</ele>
        <time>2017-01-25T14:45:44Z</time>
      </trkpt>
      <trkpt lat="43.41478" lon="6.09652">
        <ele>197.39999389648</ele>
        <time>2017-01-25T14:45:48Z</time>
      </trkpt>
      <trkpt lat="43.41479" lon="6.09649">
        <ele>197.80000305176</ele>
        <time>2017-01-25T14:45:58Z</time>
      </trkpt>
      <trkpt lat="43.4148" lon="6.09648">
        <ele>198</ele>
        <time>2017-01-25T14:46:00Z</time>
      </trkpt>
      <trkpt lat="43.4148" lon="6.09646">
        <ele>198.60000610352</ele>
        <time>2017-01-25T14:46:08Z</time>
      </trkpt>
      <trkpt lat="43.41482" lon="6.09641">
        <ele>198.60000610352</ele>
        <time>2017-01-25T14:46:16Z</time>
      </trkpt>
      <trkpt lat="43.41482" lon="6.0964">
        <ele>198.80000305176</ele>
        <time>2017-01-25T14:46:18Z</time>
      </trkpt>
      <trkpt lat="43.41482" lon="6.09639">
        <ele>199.19999694824</ele>
        <time>2017-01-25T14:46:19Z</time>
      </trkpt>
      <trkpt lat="43.41483" lon="6.09635">
        <ele>200</ele>
        <time>2017-01-25T14:46:28Z</time>
      </trkpt>
      <trkpt lat="43.41484" lon="6.09635">
        <ele>200</ele>
        <time>2017-01-25T14:46:32Z</time>
      </trkpt>
      <trkpt lat="43.41484" lon="6.09635">
        <ele>199.80000305176</ele>
        <time>2017-01-25T14:46:38Z</time>
      </trkpt>
      <trkpt lat="43.41483" lon="6.09635">
        <ele>199.80000305176</ele>
        <time>2017-01-25T14:46:46Z</time>
      </trkpt>
      <trkpt lat="43.41484" lon="6.09635">
        <ele>199.80000305176</ele>
        <time>2017-01-25T14:46:48Z</time>
      </trkpt>
      <trkpt lat="43.41484" lon="6.09635">
        <ele>199.80000305176</ele>
        <time>2017-01-25T14:46:52Z</time>
      </trkpt>
      <trkpt lat="43.41484" lon="6.09634">
        <ele>199.80000305176</ele>
        <time>2017-01-25T14:46:58Z</time>
      </trkpt>
      <trkpt lat="43.41484" lon="6.09634">
        <ele>199.80000305176</ele>
        <time>2017-01-25T14:47:03Z</time>
      </trkpt>
      <trkpt lat="43.41483" lon="6.09634">
        <ele>199.80000305176</ele>
        <time>2017-01-25T14:47:04Z</time>
      </trkpt>
      <trkpt lat="43.41483" lon="6.09634">
        <ele>199.80000305176</ele>
        <time>2017-01-25T14:47:06Z</time>
      </trkpt>
      <trkpt lat="43.41483" lon="6.09633">
        <ele>199.80000305176</ele>
        <time>2017-01-25T14:47:08Z</time>
      </trkpt>
      <trkpt lat="43.41483" lon="6.09632">
        <ele>200</ele>
        <time>2017-01-25T14:47:09Z</time>
      </trkpt>
      <trkpt lat="43.41482" lon="6.09628">
        <ele>200.19999694824</ele>
        <time>2017-01-25T14:47:11Z</time>
      </trkpt>
      <trkpt lat="43.41482" lon="6.09626">
        <ele>200.19999694824</ele>
        <time>2017-01-25T14:47:12Z</time>
      </trkpt>
      <trkpt lat="43.41481" lon="6.09624">
        <ele>200.39999389648</ele>
        <time>2017-01-25T14:47:13Z</time>
      </trkpt>
      <trkpt lat="43.41481" lon="6.09622">
        <ele>200.60000610352</ele>
        <time>2017-01-25T14:47:14Z</time>
      </trkpt>
      <trkpt lat="43.4148" lon="6.09615">
        <ele>201.39999389648</ele>
        <time>2017-01-25T14:47:17Z</time>
      </trkpt>
      <trkpt lat="43.4148" lon="6.09613">
        <ele>201.60000610352</ele>
        <time>2017-01-25T14:47:18Z</time>
      </trkpt>
      <trkpt lat="43.4148" lon="6.09609">
        <ele>202</ele>
        <time>2017-01-25T14:47:20Z</time>
      </trkpt>
      <trkpt lat="43.4148" lon="6.09605">
        <ele>202.39999389648</ele>
        <time>2017-01-25T14:47:23Z</time>
      </trkpt>
      <trkpt lat="43.4149" lon="6.09579">
        <ele>201.80000305176</ele>
        <time>2017-01-25T14:47:38Z</time>
      </trkpt>
      <trkpt lat="43.41492" lon="6.09575">
        <ele>201</ele>
        <time>2017-01-25T14:47:40Z</time>
      </trkpt>
      <trkpt lat="43.41493" lon="6.09573">
        <ele>200.39999389648</ele>
        <time>2017-01-25T14:47:41Z</time>
      </trkpt>
      <trkpt lat="43.41493" lon="6.09571">
        <ele>200</ele>
        <time>2017-01-25T14:47:42Z</time>
      </trkpt>
      <trkpt lat="43.41494" lon="6.09566">
        <ele>199</ele>
        <time>2017-01-25T14:47:45Z</time>
      </trkpt>
      <trkpt lat="43.41495" lon="6.09565">
        <ele>198.80000305176</ele>
        <time>2017-01-25T14:47:46Z</time>
      </trkpt>
      <trkpt lat="43.41497" lon="6.09561">
        <ele>198.19999694824</ele>
        <time>2017-01-25T14:47:48Z</time>
      </trkpt>
      <trkpt lat="43.41499" lon="6.09556">
        <ele>197.80000305176</ele>
        <time>2017-01-25T14:47:50Z</time>
      </trkpt>
      <trkpt lat="43.41501" lon="6.09552">
        <ele>197.39999389648</ele>
        <time>2017-01-25T14:47:52Z</time>
      </trkpt>
      <trkpt lat="43.41506" lon="6.09546">
        <ele>196.80000305176</ele>
        <time>2017-01-25T14:47:55Z</time>
      </trkpt>
      <trkpt lat="43.41507" lon="6.09543">
        <ele>196.60000610352</ele>
        <time>2017-01-25T14:47:56Z</time>
      </trkpt>
      <trkpt lat="43.41506" lon="6.09536">
        <ele>196.19999694824</ele>
        <time>2017-01-25T14:47:59Z</time>
      </trkpt>
      <trkpt lat="43.41511" lon="6.09515">
        <ele>197.39999389648</ele>
        <time>2017-01-25T14:48:08Z</time>
      </trkpt>
      <trkpt lat="43.41514" lon="6.09505">
        <ele>197.60000610352</ele>
        <time>2017-01-25T14:48:12Z</time>
      </trkpt>
      <trkpt lat="43.4152" lon="6.0949">
        <ele>197.60000610352</ele>
        <time>2017-01-25T14:48:18Z</time>
      </trkpt>
      <trkpt lat="43.41527" lon="6.09486">
        <ele>197</ele>
        <time>2017-01-25T14:48:22Z</time>
      </trkpt>
      <trkpt lat="43.41529" lon="6.09484">
        <ele>196.60000610352</ele>
        <time>2017-01-25T14:48:23Z</time>
      </trkpt>
      <trkpt lat="43.4153" lon="6.09478">
        <ele>195.19999694824</ele>
        <time>2017-01-25T14:48:26Z</time>
      </trkpt>
      <trkpt lat="43.41533" lon="6.09473">
        <ele>194.60000610352</ele>
        <time>2017-01-25T14:48:30Z</time>
      </trkpt>
      <trkpt lat="43.41534" lon="6.09472">
        <ele>194.60000610352</ele>
        <time>2017-01-25T14:48:31Z</time>
      </trkpt>
      <trkpt lat="43.41535" lon="6.0947">
        <ele>194.39999389648</ele>
        <time>2017-01-25T14:48:38Z</time>
      </trkpt>
      <trkpt lat="43.41536" lon="6.09469">
        <ele>194.39999389648</ele>
        <time>2017-01-25T14:48:41Z</time>
      </trkpt>
      <trkpt lat="43.41536" lon="6.09466">
        <ele>195.60000610352</ele>
        <time>2017-01-25T14:48:46Z</time>
      </trkpt>
      <trkpt lat="43.41536" lon="6.09465">
        <ele>195.80000305176</ele>
        <time>2017-01-25T14:48:48Z</time>
      </trkpt>
      <trkpt lat="43.41536" lon="6.09464">
        <ele>196.39999389648</ele>
        <time>2017-01-25T14:48:52Z</time>
      </trkpt>
      <trkpt lat="43.41536" lon="6.09461">
        <ele>197.19999694824</ele>
        <time>2017-01-25T14:48:58Z</time>
      </trkpt>
      <trkpt lat="43.41536" lon="6.09461">
        <ele>197.60000610352</ele>
        <time>2017-01-25T14:49:01Z</time>
      </trkpt>
      <trkpt lat="43.41537" lon="6.09455">
        <ele>197.80000305176</ele>
        <time>2017-01-25T14:49:15Z</time>
      </trkpt>
      <trkpt lat="43.41537" lon="6.09455">
        <ele>198</ele>
        <time>2017-01-25T14:49:18Z</time>
      </trkpt>
      <trkpt lat="43.41537" lon="6.0945">
        <ele>198.39999389648</ele>
        <time>2017-01-25T14:49:28Z</time>
      </trkpt>
      <trkpt lat="43.41542" lon="6.09444">
        <ele>197.80000305176</ele>
        <time>2017-01-25T14:49:37Z</time>
      </trkpt>
      <trkpt lat="43.41543" lon="6.09442">
        <ele>197.39999389648</ele>
        <time>2017-01-25T14:49:38Z</time>
      </trkpt>
      <trkpt lat="43.41544" lon="6.09437">
        <ele>196.60000610352</ele>
        <time>2017-01-25T14:49:40Z</time>
      </trkpt>
      <trkpt lat="43.41545" lon="6.09421">
        <ele>196.19999694824</ele>
        <time>2017-01-25T14:49:48Z</time>
      </trkpt>
      <trkpt lat="43.41545" lon="6.09416">
        <ele>196</ele>
        <time>2017-01-25T14:49:50Z</time>
      </trkpt>
      <trkpt lat="43.41544" lon="6.09414">
        <ele>196</ele>
        <time>2017-01-25T14:49:51Z</time>
      </trkpt>
      <trkpt lat="43.41543" lon="6.09397">
        <ele>196.39999389648</ele>
        <time>2017-01-25T14:49:58Z</time>
      </trkpt>
      <trkpt lat="43.41544" lon="6.09387">
        <ele>197</ele>
        <time>2017-01-25T14:50:05Z</time>
      </trkpt>
      <trkpt lat="43.41545" lon="6.09386">
        <ele>197.19999694824</ele>
        <time>2017-01-25T14:50:08Z</time>
      </trkpt>
      <trkpt lat="43.41546" lon="6.09386">
        <ele>197.19999694824</ele>
        <time>2017-01-25T14:50:11Z</time>
      </trkpt>
      <trkpt lat="43.41546" lon="6.09386">
        <ele>197.19999694824</ele>
        <time>2017-01-25T14:50:14Z</time>
      </trkpt>
      <trkpt lat="43.41546" lon="6.09382">
        <ele>197.19999694824</ele>
        <time>2017-01-25T14:50:18Z</time>
      </trkpt>
      <trkpt lat="43.41545" lon="6.09378">
        <ele>197.19999694824</ele>
        <time>2017-01-25T14:50:20Z</time>
      </trkpt>
      <trkpt lat="43.41544" lon="6.09374">
        <ele>197.39999389648</ele>
        <time>2017-01-25T14:50:25Z</time>
      </trkpt>
      <trkpt lat="43.41544" lon="6.09372">
        <ele>197.60000610352</ele>
        <time>2017-01-25T14:50:28Z</time>
      </trkpt>
      <trkpt lat="43.41544" lon="6.09371">
        <ele>197.60000610352</ele>
        <time>2017-01-25T14:50:29Z</time>
      </trkpt>
      <trkpt lat="43.41544" lon="6.09369">
        <ele>197.60000610352</ele>
        <time>2017-01-25T14:50:30Z</time>
      </trkpt>
      <trkpt lat="43.41544" lon="6.09364">
        <ele>198.19999694824</ele>
        <time>2017-01-25T14:50:33Z</time>
      </trkpt>
      <trkpt lat="43.41546" lon="6.09358">
        <ele>198.60000610352</ele>
        <time>2017-01-25T14:50:36Z</time>
      </trkpt>
      <trkpt lat="43.41547" lon="6.09356">
        <ele>199</ele>
        <time>2017-01-25T14:50:38Z</time>
      </trkpt>
      <trkpt lat="43.41547" lon="6.09355">
        <ele>199.19999694824</ele>
        <time>2017-01-25T14:50:41Z</time>
      </trkpt>
      <trkpt lat="43.41548" lon="6.09353">
        <ele>199.60000610352</ele>
        <time>2017-01-25T14:50:45Z</time>
      </trkpt>
      <trkpt lat="43.41549" lon="6.09353">
        <ele>200</ele>
        <time>2017-01-25T14:50:48Z</time>
      </trkpt>
      <trkpt lat="43.4155" lon="6.09353">
        <ele>200.19999694824</ele>
        <time>2017-01-25T14:50:51Z</time>
      </trkpt>
      <trkpt lat="43.41552" lon="6.09353">
        <ele>200.19999694824</ele>
        <time>2017-01-25T14:50:55Z</time>
      </trkpt>
      <trkpt lat="43.41552" lon="6.09353">
        <ele>200.19999694824</ele>
        <time>2017-01-25T14:50:58Z</time>
      </trkpt>
      <trkpt lat="43.41552" lon="6.09352">
        <ele>200.19999694824</ele>
        <time>2017-01-25T14:51:08Z</time>
      </trkpt>
      <trkpt lat="43.41552" lon="6.09352">
        <ele>200</ele>
        <time>2017-01-25T14:51:15Z</time>
      </trkpt>
      <trkpt lat="43.41552" lon="6.09351">
        <ele>200</ele>
        <time>2017-01-25T14:51:18Z</time>
      </trkpt>
      <trkpt lat="43.41552" lon="6.09351">
        <ele>200</ele>
        <time>2017-01-25T14:51:22Z</time>
      </trkpt>
      <trkpt lat="43.41552" lon="6.09348">
        <ele>200.19999694824</ele>
        <time>2017-01-25T14:51:33Z</time>
      </trkpt>
      <trkpt lat="43.41552" lon="6.09345">
        <ele>200.60000610352</ele>
        <time>2017-01-25T14:51:37Z</time>
      </trkpt>
      <trkpt lat="43.41552" lon="6.09344">
        <ele>200.80000305176</ele>
        <time>2017-01-25T14:51:38Z</time>
      </trkpt>
      <trkpt lat="43.41552" lon="6.09341">
        <ele>201.39999389648</ele>
        <time>2017-01-25T14:51:45Z</time>
      </trkpt>
      <trkpt lat="43.41554" lon="6.09338">
        <ele>201.39999389648</ele>
        <time>2017-01-25T14:51:48Z</time>
      </trkpt>
      <trkpt lat="43.41557" lon="6.09328">
        <ele>201.19999694824</ele>
        <time>2017-01-25T14:51:55Z</time>
      </trkpt>
      <trkpt lat="43.41558" lon="6.09324">
        <ele>201.39999389648</ele>
        <time>2017-01-25T14:51:58Z</time>
      </trkpt>
      <trkpt lat="43.41558" lon="6.09317">
        <ele>201.80000305176</ele>
        <time>2017-01-25T14:52:02Z</time>
      </trkpt>
      <trkpt lat="43.4156" lon="6.09306">
        <ele>201.60000610352</ele>
        <time>2017-01-25T14:52:08Z</time>
      </trkpt>
      <trkpt lat="43.4156" lon="6.09301">
        <ele>201</ele>
        <time>2017-01-25T14:52:11Z</time>
      </trkpt>
      <trkpt lat="43.41561" lon="6.093">
        <ele>200.80000305176</ele>
        <time>2017-01-25T14:52:14Z</time>
      </trkpt>
      <trkpt lat="43.41562" lon="6.09299">
        <ele>200.60000610352</ele>
        <time>2017-01-25T14:52:15Z</time>
      </trkpt>
      <trkpt lat="43.41565" lon="6.09292">
        <ele>200</ele>
        <time>2017-01-25T14:52:18Z</time>
      </trkpt>
      <trkpt lat="43.41566" lon="6.09289">
        <ele>199.60000610352</ele>
        <time>2017-01-25T14:52:19Z</time>
      </trkpt>
      <trkpt lat="43.41568" lon="6.09279">
        <ele>198.39999389648</ele>
        <time>2017-01-25T14:52:22Z</time>
      </trkpt>
      <trkpt lat="43.41568" lon="6.09276">
        <ele>197.39999389648</ele>
        <time>2017-01-25T14:52:25Z</time>
      </trkpt>
      <trkpt lat="43.41568" lon="6.09274">
        <ele>197</ele>
        <time>2017-01-25T14:52:28Z</time>
      </trkpt>
      <trkpt lat="43.41568" lon="6.09272">
        <ele>196.80000305176</ele>
        <time>2017-01-25T14:52:31Z</time>
      </trkpt>
      <trkpt lat="43.4157" lon="6.09271">
        <ele>196.80000305176</ele>
        <time>2017-01-25T14:52:32Z</time>
      </trkpt>
      <trkpt lat="43.41575" lon="6.0927">
        <ele>196</ele>
        <time>2017-01-25T14:52:34Z</time>
      </trkpt>
      <trkpt lat="43.41579" lon="6.09269">
        <ele>194.19999694824</ele>
        <time>2017-01-25T14:52:36Z</time>
      </trkpt>
      <trkpt lat="43.41579" lon="6.09268">
        <ele>192.60000610352</ele>
        <time>2017-01-25T14:52:38Z</time>
      </trkpt>
      <trkpt lat="43.41582" lon="6.09265">
        <ele>191.60000610352</ele>
        <time>2017-01-25T14:52:42Z</time>
      </trkpt>
      <trkpt lat="43.41583" lon="6.09263">
        <ele>191.60000610352</ele>
        <time>2017-01-25T14:52:43Z</time>
      </trkpt>
      <trkpt lat="43.41582" lon="6.09258">
        <ele>191.80000305176</ele>
        <time>2017-01-25T14:52:46Z</time>
      </trkpt>
      <trkpt lat="43.41583" lon="6.09254">
        <ele>191.80000305176</ele>
        <time>2017-01-25T14:52:48Z</time>
      </trkpt>
      <trkpt lat="43.41584" lon="6.09252">
        <ele>191.80000305176</ele>
        <time>2017-01-25T14:52:49Z</time>
      </trkpt>
      <trkpt lat="43.41586" lon="6.09249">
        <ele>191.80000305176</ele>
        <time>2017-01-25T14:52:50Z</time>
      </trkpt>
      <trkpt lat="43.41589" lon="6.09245">
        <ele>191.19999694824</ele>
        <time>2017-01-25T14:52:53Z</time>
      </trkpt>
      <trkpt lat="43.4159" lon="6.09247">
        <ele>190.39999389648</ele>
        <time>2017-01-25T14:52:55Z</time>
      </trkpt>
      <trkpt lat="43.4159" lon="6.0925">
        <ele>190</ele>
        <time>2017-01-25T14:52:56Z</time>
      </trkpt>
      <trkpt lat="43.4159" lon="6.09254">
        <ele>189.60000610352</ele>
        <time>2017-01-25T14:52:58Z</time>
      </trkpt>
      <trkpt lat="43.4159" lon="6.09258">
        <ele>189.60000610352</ele>
        <time>2017-01-25T14:53:00Z</time>
      </trkpt>
      <trkpt lat="43.4159" lon="6.09262">
        <ele>189.60000610352</ele>
        <time>2017-01-25T14:53:02Z</time>
      </trkpt>
      <trkpt lat="43.4159" lon="6.09264">
        <ele>189.39999389648</ele>
        <time>2017-01-25T14:53:04Z</time>
      </trkpt>
      <trkpt lat="43.4159" lon="6.09268">
        <ele>189.60000610352</ele>
        <time>2017-01-25T14:53:06Z</time>
      </trkpt>
      <trkpt lat="43.4159" lon="6.09272">
        <ele>189.39999389648</ele>
        <time>2017-01-25T14:53:08Z</time>
      </trkpt>
      <trkpt lat="43.4159" lon="6.09274">
        <ele>189.39999389648</ele>
        <time>2017-01-25T14:53:09Z</time>
      </trkpt>
      <trkpt lat="43.4159" lon="6.09279">
        <ele>189.19999694824</ele>
        <time>2017-01-25T14:53:11Z</time>
      </trkpt>
      <trkpt lat="43.41591" lon="6.09298">
        <ele>188.80000305176</ele>
        <time>2017-01-25T14:53:18Z</time>
      </trkpt>
      <trkpt lat="43.41593" lon="6.09319">
        <ele>188.39999389648</ele>
        <time>2017-01-25T14:53:25Z</time>
      </trkpt>
      <trkpt lat="43.41595" lon="6.09325">
        <ele>188.19999694824</ele>
        <time>2017-01-25T14:53:27Z</time>
      </trkpt>
      <trkpt lat="43.41598" lon="6.0933">
        <ele>188</ele>
        <time>2017-01-25T14:53:29Z</time>
      </trkpt>
      <trkpt lat="43.41621" lon="6.09326">
        <ele>187.19999694824</ele>
        <time>2017-01-25T14:53:37Z</time>
      </trkpt>
      <trkpt lat="43.41624" lon="6.09325">
        <ele>187</ele>
        <time>2017-01-25T14:53:38Z</time>
      </trkpt>
      <trkpt lat="43.41654" lon="6.09319">
        <ele>186.80000305176</ele>
        <time>2017-01-25T14:53:48Z</time>
      </trkpt>
      <trkpt lat="43.41672" lon="6.09315">
        <ele>186</ele>
        <time>2017-01-25T14:53:56Z</time>
      </trkpt>
      <trkpt lat="43.41677" lon="6.09314">
        <ele>186</ele>
        <time>2017-01-25T14:53:58Z</time>
      </trkpt>
      <trkpt lat="43.41691" lon="6.0931">
        <ele>186.19999694824</ele>
        <time>2017-01-25T14:54:05Z</time>
      </trkpt>
      <trkpt lat="43.41695" lon="6.09308">
        <ele>186.19999694824</ele>
        <time>2017-01-25T14:54:08Z</time>
      </trkpt>
      <trkpt lat="43.41713" lon="6.09301">
        <ele>186</ele>
        <time>2017-01-25T14:54:17Z</time>
      </trkpt>
      <trkpt lat="43.41714" lon="6.093">
        <ele>186</ele>
        <time>2017-01-25T14:54:18Z</time>
      </trkpt>
      <trkpt lat="43.4172" lon="6.09299">
        <ele>186.60000610352</ele>
        <time>2017-01-25T14:54:25Z</time>
      </trkpt>
      <trkpt lat="43.41721" lon="6.09298">
        <ele>186.80000305176</ele>
        <time>2017-01-25T14:54:28Z</time>
      </trkpt>
      <trkpt lat="43.41721" lon="6.09298">
        <ele>186.60000610352</ele>
        <time>2017-01-25T14:54:30Z</time>
      </trkpt>
      <trkpt lat="43.41723" lon="6.09294">
        <ele>186.80000305176</ele>
        <time>2017-01-25T14:54:33Z</time>
      </trkpt>
      <trkpt lat="43.41727" lon="6.09279">
        <ele>186.80000305176</ele>
        <time>2017-01-25T14:54:38Z</time>
      </trkpt>
      <trkpt lat="43.41725" lon="6.09232">
        <ele>186.39999389648</ele>
        <time>2017-01-25T14:54:48Z</time>
      </trkpt>
      <trkpt lat="43.41723" lon="6.09177">
        <ele>186.60000610352</ele>
        <time>2017-01-25T14:54:58Z</time>
      </trkpt>
      <trkpt lat="43.41723" lon="6.09117">
        <ele>186.80000305176</ele>
        <time>2017-01-25T14:55:08Z</time>
      </trkpt>
      <trkpt lat="43.41724" lon="6.09057">
        <ele>187</ele>
        <time>2017-01-25T14:55:18Z</time>
      </trkpt>
      <trkpt lat="43.41725" lon="6.09045">
        <ele>187</ele>
        <time>2017-01-25T14:55:20Z</time>
      </trkpt>
      <trkpt lat="43.41731" lon="6.08993">
        <ele>187</ele>
        <time>2017-01-25T14:55:28Z</time>
      </trkpt>
      <trkpt lat="43.41737" lon="6.08949">
        <ele>187.19999694824</ele>
        <time>2017-01-25T14:55:34Z</time>
      </trkpt>
      <trkpt lat="43.41739" lon="6.08919">
        <ele>187.39999389648</ele>
        <time>2017-01-25T14:55:38Z</time>
      </trkpt>
      <trkpt lat="43.41737" lon="6.08895">
        <ele>187.39999389648</ele>
        <time>2017-01-25T14:55:41Z</time>
      </trkpt>
      <trkpt lat="43.41734" lon="6.0888">
        <ele>187</ele>
        <time>2017-01-25T14:55:43Z</time>
      </trkpt>
      <trkpt lat="43.41723" lon="6.08852">
        <ele>187</ele>
        <time>2017-01-25T14:55:47Z</time>
      </trkpt>
      <trkpt lat="43.41719" lon="6.08846">
        <ele>187</ele>
        <time>2017-01-25T14:55:48Z</time>
      </trkpt>
      <trkpt lat="43.41683" lon="6.08781">
        <ele>187</ele>
        <time>2017-01-25T14:55:58Z</time>
      </trkpt>
      <trkpt lat="43.41677" lon="6.08769">
        <ele>187</ele>
        <time>2017-01-25T14:56:00Z</time>
      </trkpt>
      <trkpt lat="43.41667" lon="6.08751">
        <ele>187</ele>
        <time>2017-01-25T14:56:03Z</time>
      </trkpt>
      <trkpt lat="43.41651" lon="6.08721">
        <ele>187.19999694824</ele>
        <time>2017-01-25T14:56:08Z</time>
      </trkpt>
      <trkpt lat="43.41636" lon="6.08693">
        <ele>187.19999694824</ele>
        <time>2017-01-25T14:56:13Z</time>
      </trkpt>
      <trkpt lat="43.41621" lon="6.08663">
        <ele>188</ele>
        <time>2017-01-25T14:56:18Z</time>
      </trkpt>
      <trkpt lat="43.41618" lon="6.08657">
        <ele>188.19999694824</ele>
        <time>2017-01-25T14:56:19Z</time>
      </trkpt>
      <trkpt lat="43.41605" lon="6.08599">
        <ele>188.19999694824</ele>
        <time>2017-01-25T14:56:28Z</time>
      </trkpt>
      <trkpt lat="43.41597" lon="6.08539">
        <ele>188.80000305176</ele>
        <time>2017-01-25T14:56:38Z</time>
      </trkpt>
      <trkpt lat="43.4159" lon="6.08492">
        <ele>189</ele>
        <time>2017-01-25T14:56:46Z</time>
      </trkpt>
      <trkpt lat="43.41588" lon="6.08481">
        <ele>189</ele>
        <time>2017-01-25T14:56:48Z</time>
      </trkpt>
      <trkpt lat="43.41584" lon="6.08448">
        <ele>189</ele>
        <time>2017-01-25T14:56:54Z</time>
      </trkpt>
      <trkpt lat="43.41582" lon="6.08437">
        <ele>189</ele>
        <time>2017-01-25T14:56:56Z</time>
      </trkpt>
      <trkpt lat="43.41581" lon="6.08425">
        <ele>189</ele>
        <time>2017-01-25T14:56:58Z</time>
      </trkpt>
      <trkpt lat="43.41572" lon="6.08381">
        <ele>188.39999389648</ele>
        <time>2017-01-25T14:57:05Z</time>
      </trkpt>
      <trkpt lat="43.41568" lon="6.08361">
        <ele>188.19999694824</ele>
        <time>2017-01-25T14:57:08Z</time>
      </trkpt>
      <trkpt lat="43.41554" lon="6.08293">
        <ele>188</ele>
        <time>2017-01-25T14:57:18Z</time>
      </trkpt>
      <trkpt lat="43.41533" lon="6.08227">
        <ele>188.19999694824</ele>
        <time>2017-01-25T14:57:28Z</time>
      </trkpt>
      <trkpt lat="43.41507" lon="6.08172">
        <ele>189.60000610352</ele>
        <time>2017-01-25T14:57:38Z</time>
      </trkpt>
      <trkpt lat="43.41504" lon="6.08167">
        <ele>189.80000305176</ele>
        <time>2017-01-25T14:57:39Z</time>
      </trkpt>
      <trkpt lat="43.41499" lon="6.08157">
        <ele>189.80000305176</ele>
        <time>2017-01-25T14:57:41Z</time>
      </trkpt>
      <trkpt lat="43.41479" lon="6.08125">
        <ele>189.39999389648</ele>
        <time>2017-01-25T14:57:48Z</time>
      </trkpt>
      <trkpt lat="43.41472" lon="6.08115">
        <ele>189.19999694824</ele>
        <time>2017-01-25T14:57:50Z</time>
      </trkpt>
      <trkpt lat="43.41456" lon="6.08088">
        <ele>188.80000305176</ele>
        <time>2017-01-25T14:57:55Z</time>
      </trkpt>
      <trkpt lat="43.41447" lon="6.08071">
        <ele>188.80000305176</ele>
        <time>2017-01-25T14:57:58Z</time>
      </trkpt>
      <trkpt lat="43.41431" lon="6.08047">
        <ele>188.80000305176</ele>
        <time>2017-01-25T14:58:03Z</time>
      </trkpt>
      <trkpt lat="43.41418" lon="6.08022">
        <ele>188.80000305176</ele>
        <time>2017-01-25T14:58:08Z</time>
      </trkpt>
      <trkpt lat="43.414" lon="6.07992">
        <ele>189</ele>
        <time>2017-01-25T14:58:15Z</time>
      </trkpt>
      <trkpt lat="43.41392" lon="6.07979">
        <ele>189</ele>
        <time>2017-01-25T14:58:18Z</time>
      </trkpt>
      <trkpt lat="43.41365" lon="6.07942">
        <ele>189.19999694824</ele>
        <time>2017-01-25T14:58:28Z</time>
      </trkpt>
      <trkpt lat="43.41338" lon="6.07918">
        <ele>190</ele>
        <time>2017-01-25T14:58:38Z</time>
      </trkpt>
      <trkpt lat="43.41336" lon="6.0791">
        <ele>190.39999389648</ele>
        <time>2017-01-25T14:58:40Z</time>
      </trkpt>
      <trkpt lat="43.41335" lon="6.07898">
        <ele>190.60000610352</ele>
        <time>2017-01-25T14:58:43Z</time>
      </trkpt>
      <trkpt lat="43.4133" lon="6.0788">
        <ele>190.19999694824</ele>
        <time>2017-01-25T14:58:48Z</time>
      </trkpt>
      <trkpt lat="43.41325" lon="6.07864">
        <ele>189.80000305176</ele>
        <time>2017-01-25T14:58:52Z</time>
      </trkpt>
      <trkpt lat="43.4132" lon="6.07849">
        <ele>189.39999389648</ele>
        <time>2017-01-25T14:58:56Z</time>
      </trkpt>
      <trkpt lat="43.41319" lon="6.07841">
        <ele>189.19999694824</ele>
        <time>2017-01-25T14:58:58Z</time>
      </trkpt>
      <trkpt lat="43.41308" lon="6.07806">
        <ele>189</ele>
        <time>2017-01-25T14:59:08Z</time>
      </trkpt>
      <trkpt lat="43.41298" lon="6.07766">
        <ele>189.60000610352</ele>
        <time>2017-01-25T14:59:18Z</time>
      </trkpt>
      <trkpt lat="43.41292" lon="6.07726">
        <ele>189.80000305176</ele>
        <time>2017-01-25T14:59:28Z</time>
      </trkpt>
      <trkpt lat="43.41294" lon="6.07694">
        <ele>190.39999389648</ele>
        <time>2017-01-25T14:59:35Z</time>
      </trkpt>
      <trkpt lat="43.41296" lon="6.0768">
        <ele>190.39999389648</ele>
        <time>2017-01-25T14:59:38Z</time>
      </trkpt>
      <trkpt lat="43.41308" lon="6.07638">
        <ele>191</ele>
        <time>2017-01-25T14:59:48Z</time>
      </trkpt>
      <trkpt lat="43.41332" lon="6.07553">
        <ele>191.39999389648</ele>
        <time>2017-01-25T15:00:08Z</time>
      </trkpt>
      <trkpt lat="43.41335" lon="6.07545">
        <ele>191.60000610352</ele>
        <time>2017-01-25T15:00:10Z</time>
      </trkpt>
      <trkpt lat="43.41342" lon="6.07512">
        <ele>192</ele>
        <time>2017-01-25T15:00:18Z</time>
      </trkpt>
      <trkpt lat="43.4135" lon="6.07474">
        <ele>192.39999389648</ele>
        <time>2017-01-25T15:00:28Z</time>
      </trkpt>
      <trkpt lat="43.41351" lon="6.07471">
        <ele>192.60000610352</ele>
        <time>2017-01-25T15:00:29Z</time>
      </trkpt>
      <trkpt lat="43.41352" lon="6.07467">
        <ele>192.80000305176</ele>
        <time>2017-01-25T15:00:31Z</time>
      </trkpt>
      <trkpt lat="43.41356" lon="6.07449">
        <ele>192.80000305176</ele>
        <time>2017-01-25T15:00:38Z</time>
      </trkpt>
      <trkpt lat="43.41367" lon="6.07392">
        <ele>193.39999389648</ele>
        <time>2017-01-25T15:00:58Z</time>
      </trkpt>
      <trkpt lat="43.41369" lon="6.07379">
        <ele>193.60000610352</ele>
        <time>2017-01-25T15:01:02Z</time>
      </trkpt>
      <trkpt lat="43.41374" lon="6.07357">
        <ele>194</ele>
        <time>2017-01-25T15:01:08Z</time>
      </trkpt>
      <trkpt lat="43.41381" lon="6.07328">
        <ele>194.39999389648</ele>
        <time>2017-01-25T15:01:18Z</time>
      </trkpt>
      <trkpt lat="43.41385" lon="6.07311">
        <ele>194.80000305176</ele>
        <time>2017-01-25T15:01:24Z</time>
      </trkpt>
      <trkpt lat="43.41388" lon="6.07298">
        <ele>194.80000305176</ele>
        <time>2017-01-25T15:01:28Z</time>
      </trkpt>
      <trkpt lat="43.41399" lon="6.07265">
        <ele>195</ele>
        <time>2017-01-25T15:01:38Z</time>
      </trkpt>
      <trkpt lat="43.41411" lon="6.07227">
        <ele>195.39999389648</ele>
        <time>2017-01-25T15:01:48Z</time>
      </trkpt>
      <trkpt lat="43.41424" lon="6.07187">
        <ele>195.39999389648</ele>
        <time>2017-01-25T15:01:58Z</time>
      </trkpt>
      <trkpt lat="43.41437" lon="6.07146">
        <ele>195.80000305176</ele>
        <time>2017-01-25T15:02:08Z</time>
      </trkpt>
      <trkpt lat="43.4145" lon="6.07106">
        <ele>195.80000305176</ele>
        <time>2017-01-25T15:02:18Z</time>
      </trkpt>
      <trkpt lat="43.4146" lon="6.07084">
        <ele>196</ele>
        <time>2017-01-25T15:02:28Z</time>
      </trkpt>
      <trkpt lat="43.4146" lon="6.07078">
        <ele>196.19999694824</ele>
        <time>2017-01-25T15:02:36Z</time>
      </trkpt>
      <trkpt lat="43.41459" lon="6.07076">
        <ele>196.19999694824</ele>
        <time>2017-01-25T15:02:37Z</time>
      </trkpt>
      <trkpt lat="43.41457" lon="6.07076">
        <ele>196.19999694824</ele>
        <time>2017-01-25T15:02:38Z</time>
      </trkpt>
      <trkpt lat="43.41452" lon="6.07088">
        <ele>196</ele>
        <time>2017-01-25T15:02:44Z</time>
      </trkpt>
      <trkpt lat="43.41449" lon="6.07095">
        <ele>195.80000305176</ele>
        <time>2017-01-25T15:02:47Z</time>
      </trkpt>
      <trkpt lat="43.41449" lon="6.07097">
        <ele>195.80000305176</ele>
        <time>2017-01-25T15:02:48Z</time>
      </trkpt>
      <trkpt lat="43.41445" lon="6.07106">
        <ele>195.60000610352</ele>
        <time>2017-01-25T15:02:52Z</time>
      </trkpt>
      <trkpt lat="43.41441" lon="6.07117">
        <ele>195.60000610352</ele>
        <time>2017-01-25T15:02:58Z</time>
      </trkpt>
      <trkpt lat="43.41434" lon="6.07132">
        <ele>195.60000610352</ele>
        <time>2017-01-25T15:03:06Z</time>
      </trkpt>
      <trkpt lat="43.41434" lon="6.07133">
        <ele>195.39999389648</ele>
        <time>2017-01-25T15:03:08Z</time>
      </trkpt>
      <trkpt lat="43.41438" lon="6.07135">
        <ele>195.39999389648</ele>
        <time>2017-01-25T15:03:11Z</time>
      </trkpt>
      <trkpt lat="43.41446" lon="6.07119">
        <ele>195.39999389648</ele>
        <time>2017-01-25T15:03:18Z</time>
      </trkpt>
      <trkpt lat="43.41459" lon="6.07084">
        <ele>195.19999694824</ele>
        <time>2017-01-25T15:03:28Z</time>
      </trkpt>
      <trkpt lat="43.41479" lon="6.07075">
        <ele>196.19999694824</ele>
        <time>2017-01-25T15:03:37Z</time>
      </trkpt>
      <trkpt lat="43.41481" lon="6.07075">
        <ele>196.39999389648</ele>
        <time>2017-01-25T15:03:38Z</time>
      </trkpt>
      <trkpt lat="43.41488" lon="6.07077">
        <ele>196.60000610352</ele>
        <time>2017-01-25T15:03:42Z</time>
      </trkpt>
      <trkpt lat="43.41489" lon="6.07079">
        <ele>196.60000610352</ele>
        <time>2017-01-25T15:03:43Z</time>
      </trkpt>
      <trkpt lat="43.41496" lon="6.07088">
        <ele>196.80000305176</ele>
        <time>2017-01-25T15:03:47Z</time>
      </trkpt>
      <trkpt lat="43.41497" lon="6.07092">
        <ele>196.80000305176</ele>
        <time>2017-01-25T15:03:48Z</time>
      </trkpt>
      <trkpt lat="43.41491" lon="6.07126">
        <ele>196.60000610352</ele>
        <time>2017-01-25T15:03:58Z</time>
      </trkpt>
      <trkpt lat="43.41465" lon="6.07155">
        <ele>196.19999694824</ele>
        <time>2017-01-25T15:04:08Z</time>
      </trkpt>
      <trkpt lat="43.41455" lon="6.07169">
        <ele>196.19999694824</ele>
        <time>2017-01-25T15:04:13Z</time>
      </trkpt>
      <trkpt lat="43.41452" lon="6.07189">
        <ele>196</ele>
        <time>2017-01-25T15:04:18Z</time>
      </trkpt>
      <trkpt lat="43.41455" lon="6.07201">
        <ele>196.19999694824</ele>
        <time>2017-01-25T15:04:21Z</time>
      </trkpt>
      <trkpt lat="43.4146" lon="6.07201">
        <ele>196.60000610352</ele>
        <time>2017-01-25T15:04:23Z</time>
      </trkpt>
      <trkpt lat="43.41463" lon="6.072">
        <ele>196.80000305176</ele>
        <time>2017-01-25T15:04:24Z</time>
      </trkpt>
      <trkpt lat="43.41475" lon="6.07195">
        <ele>196.60000610352</ele>
        <time>2017-01-25T15:04:28Z</time>
      </trkpt>
      <trkpt lat="43.41488" lon="6.07199">
        <ele>195.60000610352</ele>
        <time>2017-01-25T15:04:33Z</time>
      </trkpt>
      <trkpt lat="43.4149" lon="6.07203">
        <ele>195.80000305176</ele>
        <time>2017-01-25T15:04:35Z</time>
      </trkpt>
      <trkpt lat="43.41488" lon="6.07212">
        <ele>195.60000610352</ele>
        <time>2017-01-25T15:04:38Z</time>
      </trkpt>
      <trkpt lat="43.4147" lon="6.07219">
        <ele>194.60000610352</ele>
        <time>2017-01-25T15:04:44Z</time>
      </trkpt>
      <trkpt lat="43.4146" lon="6.07217">
        <ele>194.60000610352</ele>
        <time>2017-01-25T15:04:48Z</time>
      </trkpt>
      <trkpt lat="43.41437" lon="6.0722">
        <ele>194.60000610352</ele>
        <time>2017-01-25T15:04:58Z</time>
      </trkpt>
      <trkpt lat="43.41421" lon="6.07243">
        <ele>194.60000610352</ele>
        <time>2017-01-25T15:05:08Z</time>
      </trkpt>
      <trkpt lat="43.41403" lon="6.07272">
        <ele>194.39999389648</ele>
        <time>2017-01-25T15:05:18Z</time>
      </trkpt>
      <trkpt lat="43.41396" lon="6.07305">
        <ele>194.39999389648</ele>
        <time>2017-01-25T15:05:28Z</time>
      </trkpt>
      <trkpt lat="43.41401" lon="6.07309">
        <ele>194.60000610352</ele>
        <time>2017-01-25T15:05:30Z</time>
      </trkpt>
      <trkpt lat="43.41409" lon="6.07311">
        <ele>194.60000610352</ele>
        <time>2017-01-25T15:05:33Z</time>
      </trkpt>
      <trkpt lat="43.4141" lon="6.07314">
        <ele>194.60000610352</ele>
        <time>2017-01-25T15:05:34Z</time>
      </trkpt>
      <trkpt lat="43.41417" lon="6.07322">
        <ele>194.60000610352</ele>
        <time>2017-01-25T15:05:37Z</time>
      </trkpt>
      <trkpt lat="43.4142" lon="6.07321">
        <ele>194.60000610352</ele>
        <time>2017-01-25T15:05:38Z</time>
      </trkpt>
      <trkpt lat="43.41423" lon="6.07312">
        <ele>194.60000610352</ele>
        <time>2017-01-25T15:05:41Z</time>
      </trkpt>
      <trkpt lat="43.41416" lon="6.07286">
        <ele>194.39999389648</ele>
        <time>2017-01-25T15:05:48Z</time>
      </trkpt>
      <trkpt lat="43.41415" lon="6.07268">
        <ele>194.19999694824</ele>
        <time>2017-01-25T15:05:53Z</time>
      </trkpt>
      <trkpt lat="43.41424" lon="6.07256">
        <ele>194.39999389648</ele>
        <time>2017-01-25T15:05:58Z</time>
      </trkpt>
      <trkpt lat="43.41442" lon="6.07282">
        <ele>194.39999389648</ele>
        <time>2017-01-25T15:06:08Z</time>
      </trkpt>
      <trkpt lat="43.41458" lon="6.07286">
        <ele>194.60000610352</ele>
        <time>2017-01-25T15:06:14Z</time>
      </trkpt>
      <trkpt lat="43.41465" lon="6.07271">
        <ele>195</ele>
        <time>2017-01-25T15:06:18Z</time>
      </trkpt>
      <trkpt lat="43.41475" lon="6.07247">
        <ele>194.60000610352</ele>
        <time>2017-01-25T15:06:24Z</time>
      </trkpt>
      <trkpt lat="43.41483" lon="6.07236">
        <ele>194.60000610352</ele>
        <time>2017-01-25T15:06:28Z</time>
      </trkpt>
      <trkpt lat="43.41498" lon="6.07216">
        <ele>194.39999389648</ele>
        <time>2017-01-25T15:06:35Z</time>
      </trkpt>
      <trkpt lat="43.41507" lon="6.07213">
        <ele>194.39999389648</ele>
        <time>2017-01-25T15:06:38Z</time>
      </trkpt>
      <trkpt lat="43.4151" lon="6.07212">
        <ele>194.39999389648</ele>
        <time>2017-01-25T15:06:39Z</time>
      </trkpt>
      <trkpt lat="43.41515" lon="6.07214">
        <ele>194.39999389648</ele>
        <time>2017-01-25T15:06:41Z</time>
      </trkpt>
      <trkpt lat="43.4151" lon="6.07222">
        <ele>194.19999694824</ele>
        <time>2017-01-25T15:06:45Z</time>
      </trkpt>
      <trkpt lat="43.41501" lon="6.07224">
        <ele>194</ele>
        <time>2017-01-25T15:06:48Z</time>
      </trkpt>
      <trkpt lat="43.41496" lon="6.0723">
        <ele>194</ele>
        <time>2017-01-25T15:06:50Z</time>
      </trkpt>
      <trkpt lat="43.41493" lon="6.07279">
        <ele>194.19999694824</ele>
        <time>2017-01-25T15:07:02Z</time>
      </trkpt>
      <trkpt lat="43.41498" lon="6.07283">
        <ele>194</ele>
        <time>2017-01-25T15:07:04Z</time>
      </trkpt>
      <trkpt lat="43.41502" lon="6.07274">
        <ele>194</ele>
        <time>2017-01-25T15:07:07Z</time>
      </trkpt>
      <trkpt lat="43.41502" lon="6.0727">
        <ele>194</ele>
        <time>2017-01-25T15:07:08Z</time>
      </trkpt>
      <trkpt lat="43.415" lon="6.07263">
        <ele>194</ele>
        <time>2017-01-25T15:07:10Z</time>
      </trkpt>
      <trkpt lat="43.41503" lon="6.07239">
        <ele>194.39999389648</ele>
        <time>2017-01-25T15:07:16Z</time>
      </trkpt>
      <trkpt lat="43.41505" lon="6.07236">
        <ele>194.39999389648</ele>
        <time>2017-01-25T15:07:17Z</time>
      </trkpt>
      <trkpt lat="43.41507" lon="6.07234">
        <ele>194.39999389648</ele>
        <time>2017-01-25T15:07:18Z</time>
      </trkpt>
      <trkpt lat="43.41512" lon="6.07233">
        <ele>194.19999694824</ele>
        <time>2017-01-25T15:07:20Z</time>
      </trkpt>
      <trkpt lat="43.41516" lon="6.07238">
        <ele>194.19999694824</ele>
        <time>2017-01-25T15:07:22Z</time>
      </trkpt>
      <trkpt lat="43.41516" lon="6.07242">
        <ele>194.19999694824</ele>
        <time>2017-01-25T15:07:23Z</time>
      </trkpt>
      <trkpt lat="43.41517" lon="6.07252">
        <ele>194.19999694824</ele>
        <time>2017-01-25T15:07:26Z</time>
      </trkpt>
      <trkpt lat="43.41517" lon="6.07258">
        <ele>194.19999694824</ele>
        <time>2017-01-25T15:07:28Z</time>
      </trkpt>
      <trkpt lat="43.41518" lon="6.07262">
        <ele>194.39999389648</ele>
        <time>2017-01-25T15:07:30Z</time>
      </trkpt>
      <trkpt lat="43.41519" lon="6.07264">
        <ele>194.39999389648</ele>
        <time>2017-01-25T15:07:32Z</time>
      </trkpt>
      <trkpt lat="43.41519" lon="6.07266">
        <ele>194.39999389648</ele>
        <time>2017-01-25T15:07:34Z</time>
      </trkpt>
      <trkpt lat="43.41521" lon="6.07271">
        <ele>194.39999389648</ele>
        <time>2017-01-25T15:07:37Z</time>
      </trkpt>
      <trkpt lat="43.41521" lon="6.07273">
        <ele>194.39999389648</ele>
        <time>2017-01-25T15:07:38Z</time>
      </trkpt>
      <trkpt lat="43.41531" lon="6.073">
        <ele>194.39999389648</ele>
        <time>2017-01-25T15:07:48Z</time>
      </trkpt>
      <trkpt lat="43.41547" lon="6.0733">
        <ele>194.60000610352</ele>
        <time>2017-01-25T15:07:58Z</time>
      </trkpt>
      <trkpt lat="43.4155" lon="6.07364">
        <ele>194.60000610352</ele>
        <time>2017-01-25T15:08:08Z</time>
      </trkpt>
      <trkpt lat="43.41547" lon="6.07382">
        <ele>195</ele>
        <time>2017-01-25T15:08:13Z</time>
      </trkpt>
      <trkpt lat="43.41547" lon="6.07386">
        <ele>195</ele>
        <time>2017-01-25T15:08:14Z</time>
      </trkpt>
      <trkpt lat="43.41545" lon="6.07403">
        <ele>195.19999694824</ele>
        <time>2017-01-25T15:08:18Z</time>
      </trkpt>
      <trkpt lat="43.41552" lon="6.07429">
        <ele>195.60000610352</ele>
        <time>2017-01-25T15:08:25Z</time>
      </trkpt>
      <trkpt lat="43.41559" lon="6.07434">
        <ele>195.80000305176</ele>
        <time>2017-01-25T15:08:28Z</time>
      </trkpt>
      <trkpt lat="43.41572" lon="6.07435">
        <ele>196.19999694824</ele>
        <time>2017-01-25T15:08:33Z</time>
      </trkpt>
      <trkpt lat="43.4158" lon="6.07434">
        <ele>196.39999389648</ele>
        <time>2017-01-25T15:08:36Z</time>
      </trkpt>
      <trkpt lat="43.41585" lon="6.07432">
        <ele>196.39999389648</ele>
        <time>2017-01-25T15:08:38Z</time>
      </trkpt>
      <trkpt lat="43.41593" lon="6.07428">
        <ele>196.60000610352</ele>
        <time>2017-01-25T15:08:41Z</time>
      </trkpt>
      <trkpt lat="43.41604" lon="6.0741">
        <ele>197.19999694824</ele>
        <time>2017-01-25T15:08:48Z</time>
      </trkpt>
      <trkpt lat="43.41617" lon="6.07391">
        <ele>197.60000610352</ele>
        <time>2017-01-25T15:08:57Z</time>
      </trkpt>
      <trkpt lat="43.41619" lon="6.07393">
        <ele>197.80000305176</ele>
        <time>2017-01-25T15:08:58Z</time>
      </trkpt>
      <trkpt lat="43.41628" lon="6.07399">
        <ele>198.60000610352</ele>
        <time>2017-01-25T15:09:03Z</time>
      </trkpt>
      <trkpt lat="43.41632" lon="6.07396">
        <ele>198.80000305176</ele>
        <time>2017-01-25T15:09:05Z</time>
      </trkpt>
      <trkpt lat="43.41634" lon="6.07392">
        <ele>199</ele>
        <time>2017-01-25T15:09:07Z</time>
      </trkpt>
      <trkpt lat="43.41635" lon="6.07388">
        <ele>199</ele>
        <time>2017-01-25T15:09:08Z</time>
      </trkpt>
      <trkpt lat="43.41639" lon="6.07357">
        <ele>198.60000610352</ele>
        <time>2017-01-25T15:09:17Z</time>
      </trkpt>
      <trkpt lat="43.41639" lon="6.07354">
        <ele>198.60000610352</ele>
        <time>2017-01-25T15:09:18Z</time>
      </trkpt>
      <trkpt lat="43.4165" lon="6.07324">
        <ele>198.80000305176</ele>
        <time>2017-01-25T15:09:28Z</time>
      </trkpt>
      <trkpt lat="43.41649" lon="6.0732">
        <ele>198.80000305176</ele>
        <time>2017-01-25T15:09:29Z</time>
      </trkpt>
      <trkpt lat="43.41645" lon="6.07316">
        <ele>198.80000305176</ele>
        <time>2017-01-25T15:09:31Z</time>
      </trkpt>
      <trkpt lat="43.41641" lon="6.07318">
        <ele>198.80000305176</ele>
        <time>2017-01-25T15:09:33Z</time>
      </trkpt>
      <trkpt lat="43.41637" lon="6.07334">
        <ele>198.60000610352</ele>
        <time>2017-01-25T15:09:38Z</time>
      </trkpt>
      <trkpt lat="43.41611" lon="6.07346">
        <ele>198.39999389648</ele>
        <time>2017-01-25T15:09:48Z</time>
      </trkpt>
      <trkpt lat="43.41602" lon="6.0733">
        <ele>197.80000305176</ele>
        <time>2017-01-25T15:09:53Z</time>
      </trkpt>
      <trkpt lat="43.41601" lon="6.07326">
        <ele>197.80000305176</ele>
        <time>2017-01-25T15:09:54Z</time>
      </trkpt>
      <trkpt lat="43.41596" lon="6.07312">
        <ele>198</ele>
        <time>2017-01-25T15:09:58Z</time>
      </trkpt>
      <trkpt lat="43.41588" lon="6.07312">
        <ele>198.19999694824</ele>
        <time>2017-01-25T15:10:01Z</time>
      </trkpt>
      <trkpt lat="43.41586" lon="6.07318">
        <ele>198</ele>
        <time>2017-01-25T15:10:03Z</time>
      </trkpt>
      <trkpt lat="43.41586" lon="6.07338">
        <ele>197.80000305176</ele>
        <time>2017-01-25T15:10:08Z</time>
      </trkpt>
      <trkpt lat="43.41583" lon="6.07346">
        <ele>197.60000610352</ele>
        <time>2017-01-25T15:10:10Z</time>
      </trkpt>
      <trkpt lat="43.4157" lon="6.07377">
        <ele>197.39999389648</ele>
        <time>2017-01-25T15:10:18Z</time>
      </trkpt>
      <trkpt lat="43.41559" lon="6.0738">
        <ele>197.19999694824</ele>
        <time>2017-01-25T15:10:22Z</time>
      </trkpt>
      <trkpt lat="43.41556" lon="6.07376">
        <ele>197</ele>
        <time>2017-01-25T15:10:23Z</time>
      </trkpt>
      <trkpt lat="43.41554" lon="6.0737">
        <ele>196.80000305176</ele>
        <time>2017-01-25T15:10:24Z</time>
      </trkpt>
      <trkpt lat="43.41553" lon="6.07363">
        <ele>196.39999389648</ele>
        <time>2017-01-25T15:10:25Z</time>
      </trkpt>
      <trkpt lat="43.41552" lon="6.07347">
        <ele>195.60000610352</ele>
        <time>2017-01-25T15:10:27Z</time>
      </trkpt>
      <trkpt lat="43.4155" lon="6.07339">
        <ele>195.39999389648</ele>
        <time>2017-01-25T15:10:28Z</time>
      </trkpt>
      <trkpt lat="43.41536" lon="6.07286">
        <ele>194.60000610352</ele>
        <time>2017-01-25T15:10:38Z</time>
      </trkpt>
      <trkpt lat="43.41533" lon="6.07273">
        <ele>194.60000610352</ele>
        <time>2017-01-25T15:10:41Z</time>
      </trkpt>
      <trkpt lat="43.41533" lon="6.07264">
        <ele>194.39999389648</ele>
        <time>2017-01-25T15:10:43Z</time>
      </trkpt>
      <trkpt lat="43.4153" lon="6.0724">
        <ele>194.39999389648</ele>
        <time>2017-01-25T15:10:48Z</time>
      </trkpt>
      <trkpt lat="43.41526" lon="6.07196">
        <ele>194.39999389648</ele>
        <time>2017-01-25T15:10:58Z</time>
      </trkpt>
      <trkpt lat="43.41525" lon="6.07188">
        <ele>194.60000610352</ele>
        <time>2017-01-25T15:11:00Z</time>
      </trkpt>
      <trkpt lat="43.41521" lon="6.07183">
        <ele>194.80000305176</ele>
        <time>2017-01-25T15:11:02Z</time>
      </trkpt>
      <trkpt lat="43.41513" lon="6.07175">
        <ele>195.19999694824</ele>
        <time>2017-01-25T15:11:07Z</time>
      </trkpt>
      <trkpt lat="43.41512" lon="6.07172">
        <ele>195.39999389648</ele>
        <time>2017-01-25T15:11:08Z</time>
      </trkpt>
      <trkpt lat="43.41512" lon="6.07168">
        <ele>195.39999389648</ele>
        <time>2017-01-25T15:11:09Z</time>
      </trkpt>
      <trkpt lat="43.41511" lon="6.07165">
        <ele>195.39999389648</ele>
        <time>2017-01-25T15:11:10Z</time>
      </trkpt>
      <trkpt lat="43.41511" lon="6.07158">
        <ele>195.39999389648</ele>
        <time>2017-01-25T15:11:12Z</time>
      </trkpt>
      <trkpt lat="43.41511" lon="6.07155">
        <ele>195.39999389648</ele>
        <time>2017-01-25T15:11:13Z</time>
      </trkpt>
      <trkpt lat="43.41516" lon="6.07142">
        <ele>196</ele>
        <time>2017-01-25T15:11:18Z</time>
      </trkpt>
      <trkpt lat="43.41526" lon="6.07134">
        <ele>196.39999389648</ele>
        <time>2017-01-25T15:11:24Z</time>
      </trkpt>
      <trkpt lat="43.41531" lon="6.0713">
        <ele>196.60000610352</ele>
        <time>2017-01-25T15:11:27Z</time>
      </trkpt>
      <trkpt lat="43.41533" lon="6.07128">
        <ele>196.60000610352</ele>
        <time>2017-01-25T15:11:28Z</time>
      </trkpt>
      <trkpt lat="43.41535" lon="6.07125">
        <ele>196.80000305176</ele>
        <time>2017-01-25T15:11:30Z</time>
      </trkpt>
      <trkpt lat="43.41548" lon="6.07122">
        <ele>197.39999389648</ele>
        <time>2017-01-25T15:11:37Z</time>
      </trkpt>
      <trkpt lat="43.41549" lon="6.07122">
        <ele>197.60000610352</ele>
        <time>2017-01-25T15:11:38Z</time>
      </trkpt>
      <trkpt lat="43.41554" lon="6.07121">
        <ele>197.80000305176</ele>
        <time>2017-01-25T15:11:43Z</time>
      </trkpt>
      <trkpt lat="43.4156" lon="6.07122">
        <ele>197.80000305176</ele>
        <time>2017-01-25T15:11:48Z</time>
      </trkpt>
      <trkpt lat="43.41564" lon="6.07122">
        <ele>198</ele>
        <time>2017-01-25T15:11:55Z</time>
      </trkpt>
      <trkpt lat="43.41565" lon="6.07123">
        <ele>198</ele>
        <time>2017-01-25T15:11:58Z</time>
      </trkpt>
      <trkpt lat="43.41565" lon="6.07122">
        <ele>198</ele>
        <time>2017-01-25T15:12:05Z</time>
      </trkpt>
      <trkpt lat="43.41564" lon="6.07123">
        <ele>198.39999389648</ele>
        <time>2017-01-25T15:12:08Z</time>
      </trkpt>
      <trkpt lat="43.41564" lon="6.07123">
        <ele>198.19999694824</ele>
        <time>2017-01-25T15:12:16Z</time>
      </trkpt>
      <trkpt lat="43.41564" lon="6.07123">
        <ele>198.19999694824</ele>
        <time>2017-01-25T15:12:18Z</time>
      </trkpt>
      <trkpt lat="43.41563" lon="6.07123">
        <ele>198</ele>
        <time>2017-01-25T15:12:28Z</time>
      </trkpt>
      <trkpt lat="43.41563" lon="6.07122">
        <ele>198</ele>
        <time>2017-01-25T15:12:35Z</time>
      </trkpt>
      <trkpt lat="43.41563" lon="6.07122">
        <ele>198</ele>
        <time>2017-01-25T15:12:38Z</time>
      </trkpt>
      <trkpt lat="43.41563" lon="6.07122">
        <ele>197.80000305176</ele>
        <time>2017-01-25T15:12:48Z</time>
      </trkpt>
      <trkpt lat="43.41566" lon="6.07123">
        <ele>197.80000305176</ele>
        <time>2017-01-25T15:12:57Z</time>
      </trkpt>
      <trkpt lat="43.41566" lon="6.07123">
        <ele>197.80000305176</ele>
        <time>2017-01-25T15:12:58Z</time>
      </trkpt>
      <trkpt lat="43.41567" lon="6.07125">
        <ele>198.19999694824</ele>
        <time>2017-01-25T15:13:07Z</time>
      </trkpt>
      <trkpt lat="43.41567" lon="6.07125">
        <ele>198.19999694824</ele>
        <time>2017-01-25T15:13:08Z</time>
      </trkpt>
      <trkpt lat="43.41566" lon="6.07126">
        <ele>198.60000610352</ele>
        <time>2017-01-25T15:13:12Z</time>
      </trkpt>
      <trkpt lat="43.41566" lon="6.07127">
        <ele>198.39999389648</ele>
        <time>2017-01-25T15:13:18Z</time>
      </trkpt>
      <trkpt lat="43.41566" lon="6.07128">
        <ele>198.60000610352</ele>
        <time>2017-01-25T15:13:35Z</time>
      </trkpt>
      <trkpt lat="43.41566" lon="6.07128">
        <ele>198.80000305176</ele>
        <time>2017-01-25T15:13:38Z</time>
      </trkpt>
      <trkpt lat="43.41565" lon="6.07129">
        <ele>198.39999389648</ele>
        <time>2017-01-25T15:13:48Z</time>
      </trkpt>
      <trkpt lat="43.41565" lon="6.07129">
        <ele>198.39999389648</ele>
        <time>2017-01-25T15:13:49Z</time>
      </trkpt>
      <trkpt lat="43.41565" lon="6.07131">
        <ele>198.39999389648</ele>
        <time>2017-01-25T15:13:53Z</time>
      </trkpt>
      <trkpt lat="43.41565" lon="6.07131">
        <ele>198.39999389648</ele>
        <time>2017-01-25T15:13:56Z</time>
      </trkpt>
      <trkpt lat="43.41565" lon="6.07131">
        <ele>198.39999389648</ele>
        <time>2017-01-25T15:13:58Z</time>
      </trkpt>
      <trkpt lat="43.41565" lon="6.07132">
        <ele>198.60000610352</ele>
        <time>2017-01-25T15:14:08Z</time>
      </trkpt>
      <trkpt lat="43.41566" lon="6.0713">
        <ele>198.60000610352</ele>
        <time>2017-01-25T15:14:18Z</time>
      </trkpt>
      <trkpt lat="43.41567" lon="6.07129">
        <ele>198.60000610352</ele>
        <time>2017-01-25T15:14:28Z</time>
      </trkpt>
      <trkpt lat="43.41568" lon="6.07127">
        <ele>198.60000610352</ele>
        <time>2017-01-25T15:14:38Z</time>
      </trkpt>
      <trkpt lat="43.41568" lon="6.07124">
        <ele>198.60000610352</ele>
        <time>2017-01-25T15:14:40Z</time>
      </trkpt>
      <trkpt lat="43.4157" lon="6.07116">
        <ele>197.60000610352</ele>
        <time>2017-01-25T15:14:44Z</time>
      </trkpt>
      <trkpt lat="43.41575" lon="6.07114">
        <ele>197.39999389648</ele>
        <time>2017-01-25T15:14:47Z</time>
      </trkpt>
      <trkpt lat="43.41578" lon="6.07113">
        <ele>197.39999389648</ele>
        <time>2017-01-25T15:14:48Z</time>
      </trkpt>
      <trkpt lat="43.41584" lon="6.07109">
        <ele>197.60000610352</ele>
        <time>2017-01-25T15:14:51Z</time>
      </trkpt>
      <trkpt lat="43.41587" lon="6.07078">
        <ele>198.19999694824</ele>
        <time>2017-01-25T15:15:00Z</time>
      </trkpt>
      <trkpt lat="43.41587" lon="6.07071">
        <ele>198.19999694824</ele>
        <time>2017-01-25T15:15:02Z</time>
      </trkpt>
      <trkpt lat="43.41586" lon="6.07053">
        <ele>198.19999694824</ele>
        <time>2017-01-25T15:15:07Z</time>
      </trkpt>
      <trkpt lat="43.41586" lon="6.0705">
        <ele>198.19999694824</ele>
        <time>2017-01-25T15:15:08Z</time>
      </trkpt>
      <trkpt lat="43.41583" lon="6.07038">
        <ele>198</ele>
        <time>2017-01-25T15:15:12Z</time>
      </trkpt>
      <trkpt lat="43.41581" lon="6.07037">
        <ele>198.19999694824</ele>
        <time>2017-01-25T15:15:18Z</time>
      </trkpt>
      <trkpt lat="43.41581" lon="6.07035">
        <ele>198</ele>
        <time>2017-01-25T15:15:28Z</time>
      </trkpt>
      <trkpt lat="43.41581" lon="6.07034">
        <ele>198.60000610352</ele>
        <time>2017-01-25T15:15:38Z</time>
      </trkpt>
      <trkpt lat="43.41581" lon="6.07035">
        <ele>198.60000610352</ele>
        <time>2017-01-25T15:15:43Z</time>
      </trkpt>
    </trkseg>
  </trk>
</gpx>